<?xml version="1.0" encoding="UTF-8" standalone="no" ?>
<gpx xmlns="http://www.topografix.com/GPX/1/1" xmlns:xsi="http://www.w3.org/2001/XMLSchema-instance" xsi:schemaLocation="http://www.topografix.com/GPX/1/1 http://www.topografix.com/GPX/1/1/gpx.xsd" version="1.1" creator="VisuGPX - https://www.visugpx.com">
  <metadata>
    <name>boucle au départ du cimetière de Sarrebruck</name>
    <desc><![CDATA[praticable par tout temps, pas de difficulté notoire sur cette rando]]></desc>
  </metadata>
  <trk>
    <name><![CDATA[2014-06-11-01]]></name>
    <trkseg>
      <trkpt lat="49.20744" lon="6.96073">
        <ele>222.1</ele>
        <time>2014-06-11T06:28:09Z</time>
      </trkpt>
      <trkpt lat="49.20744" lon="6.96073">
        <ele>222.2</ele>
        <time>2014-06-11T06:28:10Z</time>
      </trkpt>
      <trkpt lat="49.20744" lon="6.96073">
        <ele>222.7</ele>
        <time>2014-06-11T06:28:15Z</time>
      </trkpt>
      <trkpt lat="49.20743" lon="6.96074">
        <ele>221.6</ele>
        <time>2014-06-11T06:28:20Z</time>
      </trkpt>
      <trkpt lat="49.20744" lon="6.96075">
        <ele>221.6</ele>
        <time>2014-06-11T06:28:25Z</time>
      </trkpt>
      <trkpt lat="49.20745" lon="6.96074">
        <ele>221.6</ele>
        <time>2014-06-11T06:28:30Z</time>
      </trkpt>
      <trkpt lat="49.20746" lon="6.96074">
        <ele>221.2</ele>
        <time>2014-06-11T06:28:35Z</time>
      </trkpt>
      <trkpt lat="49.20747" lon="6.96073">
        <ele>221.9</ele>
        <time>2014-06-11T06:28:40Z</time>
      </trkpt>
      <trkpt lat="49.20748" lon="6.96073">
        <ele>221.3</ele>
        <time>2014-06-11T06:28:45Z</time>
      </trkpt>
      <trkpt lat="49.20748" lon="6.96073">
        <ele>221.9</ele>
        <time>2014-06-11T06:28:50Z</time>
      </trkpt>
      <trkpt lat="49.20748" lon="6.96073">
        <ele>222.7</ele>
        <time>2014-06-11T06:28:55Z</time>
      </trkpt>
      <trkpt lat="49.20749" lon="6.96073">
        <ele>222.1</ele>
        <time>2014-06-11T06:29:00Z</time>
      </trkpt>
      <trkpt lat="49.2075" lon="6.96072">
        <ele>221.9</ele>
        <time>2014-06-11T06:29:05Z</time>
      </trkpt>
      <trkpt lat="49.2075" lon="6.96072">
        <ele>221.8</ele>
        <time>2014-06-11T06:29:10Z</time>
      </trkpt>
      <trkpt lat="49.20749" lon="6.96072">
        <ele>222.2</ele>
        <time>2014-06-11T06:29:15Z</time>
      </trkpt>
      <trkpt lat="49.20749" lon="6.96072">
        <ele>221.7</ele>
        <time>2014-06-11T06:29:20Z</time>
      </trkpt>
      <trkpt lat="49.20749" lon="6.96071">
        <ele>221</ele>
        <time>2014-06-11T06:29:26Z</time>
      </trkpt>
      <trkpt lat="49.20749" lon="6.96071">
        <ele>221.5</ele>
        <time>2014-06-11T06:29:31Z</time>
      </trkpt>
      <trkpt lat="49.20749" lon="6.9607">
        <ele>222</ele>
        <time>2014-06-11T06:29:36Z</time>
      </trkpt>
      <trkpt lat="49.20749" lon="6.9607">
        <ele>221.2</ele>
        <time>2014-06-11T06:29:41Z</time>
      </trkpt>
      <trkpt lat="49.20749" lon="6.96071">
        <ele>221.6</ele>
        <time>2014-06-11T06:29:46Z</time>
      </trkpt>
      <trkpt lat="49.20749" lon="6.96071">
        <ele>222.1</ele>
        <time>2014-06-11T06:29:51Z</time>
      </trkpt>
      <trkpt lat="49.20748" lon="6.96072">
        <ele>222.2</ele>
        <time>2014-06-11T06:29:56Z</time>
      </trkpt>
      <trkpt lat="49.20748" lon="6.96072">
        <ele>222.1</ele>
        <time>2014-06-11T06:30:01Z</time>
      </trkpt>
      <trkpt lat="49.20748" lon="6.96072">
        <ele>222.1</ele>
        <time>2014-06-11T06:30:06Z</time>
      </trkpt>
      <trkpt lat="49.20749" lon="6.96072">
        <ele>221.9</ele>
        <time>2014-06-11T06:30:11Z</time>
      </trkpt>
      <trkpt lat="49.2075" lon="6.96072">
        <ele>223.6</ele>
        <time>2014-06-11T06:30:16Z</time>
      </trkpt>
      <trkpt lat="49.2075" lon="6.96072">
        <ele>222</ele>
        <time>2014-06-11T06:30:21Z</time>
      </trkpt>
      <trkpt lat="49.20749" lon="6.96072">
        <ele>221.7</ele>
        <time>2014-06-11T06:30:26Z</time>
      </trkpt>
      <trkpt lat="49.20748" lon="6.96072">
        <ele>222.4</ele>
        <time>2014-06-11T06:30:31Z</time>
      </trkpt>
      <trkpt lat="49.20747" lon="6.96073">
        <ele>222.1</ele>
        <time>2014-06-11T06:30:36Z</time>
      </trkpt>
      <trkpt lat="49.20747" lon="6.96074">
        <ele>222</ele>
        <time>2014-06-11T06:30:41Z</time>
      </trkpt>
      <trkpt lat="49.20746" lon="6.96074">
        <ele>222.1</ele>
        <time>2014-06-11T06:30:46Z</time>
      </trkpt>
      <trkpt lat="49.20746" lon="6.96073">
        <ele>222.7</ele>
        <time>2014-06-11T06:30:51Z</time>
      </trkpt>
      <trkpt lat="49.20747" lon="6.96071">
        <ele>221.7</ele>
        <time>2014-06-11T06:30:56Z</time>
      </trkpt>
      <trkpt lat="49.20751" lon="6.96072">
        <ele>222</ele>
        <time>2014-06-11T06:31:01Z</time>
      </trkpt>
      <trkpt lat="49.20754" lon="6.96073">
        <ele>222.2</ele>
        <time>2014-06-11T06:31:06Z</time>
      </trkpt>
      <trkpt lat="49.20758" lon="6.96076">
        <ele>222.4</ele>
        <time>2014-06-11T06:31:11Z</time>
      </trkpt>
      <trkpt lat="49.20762" lon="6.9608">
        <ele>222.7</ele>
        <time>2014-06-11T06:31:16Z</time>
      </trkpt>
      <trkpt lat="49.20766" lon="6.96082">
        <ele>222.9</ele>
        <time>2014-06-11T06:31:21Z</time>
      </trkpt>
      <trkpt lat="49.20774" lon="6.96088">
        <ele>222.3</ele>
        <time>2014-06-11T06:31:31Z</time>
      </trkpt>
      <trkpt lat="49.20778" lon="6.96093">
        <ele>221.8</ele>
        <time>2014-06-11T06:31:36Z</time>
      </trkpt>
      <trkpt lat="49.20783" lon="6.96096">
        <ele>222.7</ele>
        <time>2014-06-11T06:31:41Z</time>
      </trkpt>
      <trkpt lat="49.20787" lon="6.96098">
        <ele>223.2</ele>
        <time>2014-06-11T06:31:46Z</time>
      </trkpt>
      <trkpt lat="49.20792" lon="6.96101">
        <ele>223.3</ele>
        <time>2014-06-11T06:31:51Z</time>
      </trkpt>
      <trkpt lat="49.20798" lon="6.96103">
        <ele>222.4</ele>
        <time>2014-06-11T06:31:56Z</time>
      </trkpt>
      <trkpt lat="49.20803" lon="6.96104">
        <ele>223.5</ele>
        <time>2014-06-11T06:32:01Z</time>
      </trkpt>
      <trkpt lat="49.20807" lon="6.96105">
        <ele>221.6</ele>
        <time>2014-06-11T06:32:06Z</time>
      </trkpt>
      <trkpt lat="49.20811" lon="6.96108">
        <ele>222.1</ele>
        <time>2014-06-11T06:32:11Z</time>
      </trkpt>
      <trkpt lat="49.20814" lon="6.96107">
        <ele>221.8</ele>
        <time>2014-06-11T06:32:16Z</time>
      </trkpt>
      <trkpt lat="49.20818" lon="6.96103">
        <ele>222.1</ele>
        <time>2014-06-11T06:32:21Z</time>
      </trkpt>
      <trkpt lat="49.20819" lon="6.96099">
        <ele>221.3</ele>
        <time>2014-06-11T06:32:26Z</time>
      </trkpt>
      <trkpt lat="49.20825" lon="6.96088">
        <ele>220.6</ele>
        <time>2014-06-11T06:32:36Z</time>
      </trkpt>
      <trkpt lat="49.20827" lon="6.96083">
        <ele>220.9</ele>
        <time>2014-06-11T06:32:41Z</time>
      </trkpt>
      <trkpt lat="49.2083" lon="6.96077">
        <ele>220</ele>
        <time>2014-06-11T06:32:46Z</time>
      </trkpt>
      <trkpt lat="49.20834" lon="6.96071">
        <ele>220.7</ele>
        <time>2014-06-11T06:32:51Z</time>
      </trkpt>
      <trkpt lat="49.20838" lon="6.96066">
        <ele>220.5</ele>
        <time>2014-06-11T06:32:56Z</time>
      </trkpt>
      <trkpt lat="49.20842" lon="6.96061">
        <ele>220</ele>
        <time>2014-06-11T06:33:01Z</time>
      </trkpt>
      <trkpt lat="49.20847" lon="6.96056">
        <ele>219.8</ele>
        <time>2014-06-11T06:33:06Z</time>
      </trkpt>
      <trkpt lat="49.2085" lon="6.96048">
        <ele>220.1</ele>
        <time>2014-06-11T06:33:11Z</time>
      </trkpt>
      <trkpt lat="49.20853" lon="6.96043">
        <ele>219.6</ele>
        <time>2014-06-11T06:33:16Z</time>
      </trkpt>
      <trkpt lat="49.20857" lon="6.96035">
        <ele>219.9</ele>
        <time>2014-06-11T06:33:21Z</time>
      </trkpt>
      <trkpt lat="49.20861" lon="6.96028">
        <ele>220.2</ele>
        <time>2014-06-11T06:33:26Z</time>
      </trkpt>
      <trkpt lat="49.20863" lon="6.9602">
        <ele>219</ele>
        <time>2014-06-11T06:33:31Z</time>
      </trkpt>
      <trkpt lat="49.20869" lon="6.96006">
        <ele>219.1</ele>
        <time>2014-06-11T06:33:41Z</time>
      </trkpt>
      <trkpt lat="49.20873" lon="6.95999">
        <ele>219</ele>
        <time>2014-06-11T06:33:46Z</time>
      </trkpt>
      <trkpt lat="49.20878" lon="6.95993">
        <ele>219.4</ele>
        <time>2014-06-11T06:33:51Z</time>
      </trkpt>
      <trkpt lat="49.20882" lon="6.95985">
        <ele>220.3</ele>
        <time>2014-06-11T06:33:56Z</time>
      </trkpt>
      <trkpt lat="49.20886" lon="6.95978">
        <ele>218.6</ele>
        <time>2014-06-11T06:34:01Z</time>
      </trkpt>
      <trkpt lat="49.2089" lon="6.9597">
        <ele>219</ele>
        <time>2014-06-11T06:34:06Z</time>
      </trkpt>
      <trkpt lat="49.20894" lon="6.95962">
        <ele>219.3</ele>
        <time>2014-06-11T06:34:11Z</time>
      </trkpt>
      <trkpt lat="49.20896" lon="6.95952">
        <ele>219.5</ele>
        <time>2014-06-11T06:34:16Z</time>
      </trkpt>
      <trkpt lat="49.20899" lon="6.95943">
        <ele>218.8</ele>
        <time>2014-06-11T06:34:21Z</time>
      </trkpt>
      <trkpt lat="49.20903" lon="6.95936">
        <ele>219.3</ele>
        <time>2014-06-11T06:34:26Z</time>
      </trkpt>
      <trkpt lat="49.20905" lon="6.95927">
        <ele>219.3</ele>
        <time>2014-06-11T06:34:31Z</time>
      </trkpt>
      <trkpt lat="49.2091" lon="6.95921">
        <ele>218.9</ele>
        <time>2014-06-11T06:34:36Z</time>
      </trkpt>
      <trkpt lat="49.20915" lon="6.95907">
        <ele>218.7</ele>
        <time>2014-06-11T06:34:46Z</time>
      </trkpt>
      <trkpt lat="49.20918" lon="6.959">
        <ele>219.2</ele>
        <time>2014-06-11T06:34:51Z</time>
      </trkpt>
      <trkpt lat="49.20921" lon="6.95891">
        <ele>219.4</ele>
        <time>2014-06-11T06:34:56Z</time>
      </trkpt>
      <trkpt lat="49.20924" lon="6.95884">
        <ele>219.2</ele>
        <time>2014-06-11T06:35:01Z</time>
      </trkpt>
      <trkpt lat="49.2093" lon="6.95877">
        <ele>218.9</ele>
        <time>2014-06-11T06:35:06Z</time>
      </trkpt>
      <trkpt lat="49.20933" lon="6.95869">
        <ele>218.3</ele>
        <time>2014-06-11T06:35:11Z</time>
      </trkpt>
      <trkpt lat="49.20938" lon="6.95861">
        <ele>218.2</ele>
        <time>2014-06-11T06:35:16Z</time>
      </trkpt>
      <trkpt lat="49.20943" lon="6.95853">
        <ele>218.9</ele>
        <time>2014-06-11T06:35:21Z</time>
      </trkpt>
      <trkpt lat="49.20947" lon="6.95845">
        <ele>219.2</ele>
        <time>2014-06-11T06:35:26Z</time>
      </trkpt>
      <trkpt lat="49.2095" lon="6.95836">
        <ele>219.5</ele>
        <time>2014-06-11T06:35:31Z</time>
      </trkpt>
      <trkpt lat="49.20956" lon="6.9583">
        <ele>218.3</ele>
        <time>2014-06-11T06:35:36Z</time>
      </trkpt>
      <trkpt lat="49.20962" lon="6.95823">
        <ele>217.7</ele>
        <time>2014-06-11T06:35:41Z</time>
      </trkpt>
      <trkpt lat="49.2097" lon="6.95809">
        <ele>218.6</ele>
        <time>2014-06-11T06:35:51Z</time>
      </trkpt>
      <trkpt lat="49.20974" lon="6.95801">
        <ele>217.5</ele>
        <time>2014-06-11T06:35:56Z</time>
      </trkpt>
      <trkpt lat="49.20979" lon="6.95794">
        <ele>217.8</ele>
        <time>2014-06-11T06:36:01Z</time>
      </trkpt>
      <trkpt lat="49.20982" lon="6.95785">
        <ele>218.4</ele>
        <time>2014-06-11T06:36:06Z</time>
      </trkpt>
      <trkpt lat="49.20985" lon="6.95776">
        <ele>218</ele>
        <time>2014-06-11T06:36:11Z</time>
      </trkpt>
      <trkpt lat="49.2099" lon="6.95769">
        <ele>217.3</ele>
        <time>2014-06-11T06:36:16Z</time>
      </trkpt>
      <trkpt lat="49.20992" lon="6.95759">
        <ele>216.5</ele>
        <time>2014-06-11T06:36:21Z</time>
      </trkpt>
      <trkpt lat="49.20994" lon="6.9575">
        <ele>217</ele>
        <time>2014-06-11T06:36:26Z</time>
      </trkpt>
      <trkpt lat="49.20996" lon="6.95741">
        <ele>216.9</ele>
        <time>2014-06-11T06:36:31Z</time>
      </trkpt>
      <trkpt lat="49.21001" lon="6.95733">
        <ele>217.3</ele>
        <time>2014-06-11T06:36:36Z</time>
      </trkpt>
      <trkpt lat="49.21006" lon="6.95726">
        <ele>217.7</ele>
        <time>2014-06-11T06:36:41Z</time>
      </trkpt>
      <trkpt lat="49.21009" lon="6.95718">
        <ele>216.5</ele>
        <time>2014-06-11T06:36:46Z</time>
      </trkpt>
      <trkpt lat="49.21017" lon="6.95703">
        <ele>217.1</ele>
        <time>2014-06-11T06:36:56Z</time>
      </trkpt>
      <trkpt lat="49.21021" lon="6.95696">
        <ele>216.6</ele>
        <time>2014-06-11T06:37:01Z</time>
      </trkpt>
      <trkpt lat="49.21026" lon="6.95689">
        <ele>216</ele>
        <time>2014-06-11T06:37:06Z</time>
      </trkpt>
      <trkpt lat="49.21031" lon="6.95681">
        <ele>217.3</ele>
        <time>2014-06-11T06:37:11Z</time>
      </trkpt>
      <trkpt lat="49.21036" lon="6.95672">
        <ele>216.8</ele>
        <time>2014-06-11T06:37:16Z</time>
      </trkpt>
      <trkpt lat="49.21041" lon="6.95665">
        <ele>216</ele>
        <time>2014-06-11T06:37:21Z</time>
      </trkpt>
      <trkpt lat="49.21044" lon="6.95657">
        <ele>216.3</ele>
        <time>2014-06-11T06:37:26Z</time>
      </trkpt>
      <trkpt lat="49.21048" lon="6.95649">
        <ele>216</ele>
        <time>2014-06-11T06:37:31Z</time>
      </trkpt>
      <trkpt lat="49.21054" lon="6.95643">
        <ele>216</ele>
        <time>2014-06-11T06:37:36Z</time>
      </trkpt>
      <trkpt lat="49.2106" lon="6.95637">
        <ele>215.7</ele>
        <time>2014-06-11T06:37:41Z</time>
      </trkpt>
      <trkpt lat="49.21065" lon="6.95631">
        <ele>215.2</ele>
        <time>2014-06-11T06:37:46Z</time>
      </trkpt>
      <trkpt lat="49.2107" lon="6.95626">
        <ele>217</ele>
        <time>2014-06-11T06:37:51Z</time>
      </trkpt>
      <trkpt lat="49.21084" lon="6.95616">
        <ele>215.8</ele>
        <time>2014-06-11T06:38:01Z</time>
      </trkpt>
      <trkpt lat="49.2109" lon="6.9561">
        <ele>216.1</ele>
        <time>2014-06-11T06:38:06Z</time>
      </trkpt>
      <trkpt lat="49.21094" lon="6.95605">
        <ele>216.2</ele>
        <time>2014-06-11T06:38:11Z</time>
      </trkpt>
      <trkpt lat="49.21098" lon="6.95601">
        <ele>215.9</ele>
        <time>2014-06-11T06:38:16Z</time>
      </trkpt>
      <trkpt lat="49.21103" lon="6.95596">
        <ele>216.8</ele>
        <time>2014-06-11T06:38:21Z</time>
      </trkpt>
      <trkpt lat="49.21107" lon="6.95592">
        <ele>215.9</ele>
        <time>2014-06-11T06:38:26Z</time>
      </trkpt>
      <trkpt lat="49.21114" lon="6.95592">
        <ele>215.3</ele>
        <time>2014-06-11T06:38:31Z</time>
      </trkpt>
      <trkpt lat="49.2112" lon="6.95591">
        <ele>215</ele>
        <time>2014-06-11T06:38:36Z</time>
      </trkpt>
      <trkpt lat="49.21125" lon="6.95591">
        <ele>215.2</ele>
        <time>2014-06-11T06:38:41Z</time>
      </trkpt>
      <trkpt lat="49.21129" lon="6.9559">
        <ele>214.2</ele>
        <time>2014-06-11T06:38:46Z</time>
      </trkpt>
      <trkpt lat="49.21135" lon="6.9559">
        <ele>214.5</ele>
        <time>2014-06-11T06:38:51Z</time>
      </trkpt>
      <trkpt lat="49.2114" lon="6.9559">
        <ele>213.8</ele>
        <time>2014-06-11T06:38:56Z</time>
      </trkpt>
      <trkpt lat="49.2115" lon="6.9559">
        <ele>214</ele>
        <time>2014-06-11T06:39:06Z</time>
      </trkpt>
      <trkpt lat="49.21156" lon="6.95591">
        <ele>213.5</ele>
        <time>2014-06-11T06:39:11Z</time>
      </trkpt>
      <trkpt lat="49.21162" lon="6.95593">
        <ele>212.8</ele>
        <time>2014-06-11T06:39:16Z</time>
      </trkpt>
      <trkpt lat="49.21167" lon="6.95592">
        <ele>213.2</ele>
        <time>2014-06-11T06:39:21Z</time>
      </trkpt>
      <trkpt lat="49.21173" lon="6.95594">
        <ele>212.6</ele>
        <time>2014-06-11T06:39:26Z</time>
      </trkpt>
      <trkpt lat="49.2118" lon="6.95594">
        <ele>212.6</ele>
        <time>2014-06-11T06:39:31Z</time>
      </trkpt>
      <trkpt lat="49.21187" lon="6.95594">
        <ele>212.6</ele>
        <time>2014-06-11T06:39:36Z</time>
      </trkpt>
      <trkpt lat="49.21194" lon="6.95596">
        <ele>212.3</ele>
        <time>2014-06-11T06:39:41Z</time>
      </trkpt>
      <trkpt lat="49.21201" lon="6.95598">
        <ele>212</ele>
        <time>2014-06-11T06:39:46Z</time>
      </trkpt>
      <trkpt lat="49.21208" lon="6.956">
        <ele>212.4</ele>
        <time>2014-06-11T06:39:51Z</time>
      </trkpt>
      <trkpt lat="49.21215" lon="6.95601">
        <ele>211.9</ele>
        <time>2014-06-11T06:39:56Z</time>
      </trkpt>
      <trkpt lat="49.21222" lon="6.95601">
        <ele>212</ele>
        <time>2014-06-11T06:40:01Z</time>
      </trkpt>
      <trkpt lat="49.21235" lon="6.95598">
        <ele>211.5</ele>
        <time>2014-06-11T06:40:11Z</time>
      </trkpt>
      <trkpt lat="49.21241" lon="6.95597">
        <ele>211.4</ele>
        <time>2014-06-11T06:40:16Z</time>
      </trkpt>
      <trkpt lat="49.21248" lon="6.95596">
        <ele>210.3</ele>
        <time>2014-06-11T06:40:21Z</time>
      </trkpt>
      <trkpt lat="49.21254" lon="6.95593">
        <ele>210.6</ele>
        <time>2014-06-11T06:40:26Z</time>
      </trkpt>
      <trkpt lat="49.2126" lon="6.95592">
        <ele>210.9</ele>
        <time>2014-06-11T06:40:31Z</time>
      </trkpt>
      <trkpt lat="49.21266" lon="6.9559">
        <ele>211</ele>
        <time>2014-06-11T06:40:36Z</time>
      </trkpt>
      <trkpt lat="49.21271" lon="6.95593">
        <ele>211.4</ele>
        <time>2014-06-11T06:40:41Z</time>
      </trkpt>
      <trkpt lat="49.21276" lon="6.95595">
        <ele>211</ele>
        <time>2014-06-11T06:40:46Z</time>
      </trkpt>
      <trkpt lat="49.21282" lon="6.95595">
        <ele>210.2</ele>
        <time>2014-06-11T06:40:51Z</time>
      </trkpt>
      <trkpt lat="49.21288" lon="6.95596">
        <ele>210.4</ele>
        <time>2014-06-11T06:40:56Z</time>
      </trkpt>
      <trkpt lat="49.21294" lon="6.95596">
        <ele>210.7</ele>
        <time>2014-06-11T06:41:01Z</time>
      </trkpt>
      <trkpt lat="49.21301" lon="6.95596">
        <ele>210.5</ele>
        <time>2014-06-11T06:41:06Z</time>
      </trkpt>
      <trkpt lat="49.21314" lon="6.95596">
        <ele>210.1</ele>
        <time>2014-06-11T06:41:16Z</time>
      </trkpt>
      <trkpt lat="49.2132" lon="6.95594">
        <ele>209.9</ele>
        <time>2014-06-11T06:41:21Z</time>
      </trkpt>
      <trkpt lat="49.21326" lon="6.95593">
        <ele>210</ele>
        <time>2014-06-11T06:41:26Z</time>
      </trkpt>
      <trkpt lat="49.21333" lon="6.95592">
        <ele>209.7</ele>
        <time>2014-06-11T06:41:31Z</time>
      </trkpt>
      <trkpt lat="49.2134" lon="6.95589">
        <ele>210.3</ele>
        <time>2014-06-11T06:41:36Z</time>
      </trkpt>
      <trkpt lat="49.21347" lon="6.95588">
        <ele>210.1</ele>
        <time>2014-06-11T06:41:41Z</time>
      </trkpt>
      <trkpt lat="49.21354" lon="6.95588">
        <ele>210.1</ele>
        <time>2014-06-11T06:41:46Z</time>
      </trkpt>
      <trkpt lat="49.21361" lon="6.95586">
        <ele>209.7</ele>
        <time>2014-06-11T06:41:51Z</time>
      </trkpt>
      <trkpt lat="49.21366" lon="6.95585">
        <ele>209.5</ele>
        <time>2014-06-11T06:41:56Z</time>
      </trkpt>
      <trkpt lat="49.21373" lon="6.95583">
        <ele>209</ele>
        <time>2014-06-11T06:42:01Z</time>
      </trkpt>
      <trkpt lat="49.2138" lon="6.9558">
        <ele>208.5</ele>
        <time>2014-06-11T06:42:06Z</time>
      </trkpt>
      <trkpt lat="49.21387" lon="6.95579">
        <ele>209.5</ele>
        <time>2014-06-11T06:42:11Z</time>
      </trkpt>
      <trkpt lat="49.214" lon="6.95576">
        <ele>209.4</ele>
        <time>2014-06-11T06:42:21Z</time>
      </trkpt>
      <trkpt lat="49.21405" lon="6.95573">
        <ele>209</ele>
        <time>2014-06-11T06:42:26Z</time>
      </trkpt>
      <trkpt lat="49.21411" lon="6.9557">
        <ele>208.7</ele>
        <time>2014-06-11T06:42:31Z</time>
      </trkpt>
      <trkpt lat="49.21416" lon="6.95567">
        <ele>209.5</ele>
        <time>2014-06-11T06:42:36Z</time>
      </trkpt>
      <trkpt lat="49.21423" lon="6.95564">
        <ele>209.3</ele>
        <time>2014-06-11T06:42:41Z</time>
      </trkpt>
      <trkpt lat="49.21431" lon="6.95562">
        <ele>208.9</ele>
        <time>2014-06-11T06:42:46Z</time>
      </trkpt>
      <trkpt lat="49.21436" lon="6.95559">
        <ele>209.1</ele>
        <time>2014-06-11T06:42:51Z</time>
      </trkpt>
      <trkpt lat="49.21441" lon="6.95557">
        <ele>208.7</ele>
        <time>2014-06-11T06:42:56Z</time>
      </trkpt>
      <trkpt lat="49.21446" lon="6.95557">
        <ele>208.2</ele>
        <time>2014-06-11T06:43:01Z</time>
      </trkpt>
      <trkpt lat="49.21453" lon="6.95557">
        <ele>207.9</ele>
        <time>2014-06-11T06:43:06Z</time>
      </trkpt>
      <trkpt lat="49.2146" lon="6.95555">
        <ele>208.4</ele>
        <time>2014-06-11T06:43:11Z</time>
      </trkpt>
      <trkpt lat="49.21469" lon="6.95554">
        <ele>208.8</ele>
        <time>2014-06-11T06:43:16Z</time>
      </trkpt>
      <trkpt lat="49.21483" lon="6.95552">
        <ele>209.2</ele>
        <time>2014-06-11T06:43:26Z</time>
      </trkpt>
      <trkpt lat="49.21491" lon="6.95552">
        <ele>209.5</ele>
        <time>2014-06-11T06:43:31Z</time>
      </trkpt>
      <trkpt lat="49.21498" lon="6.95552">
        <ele>208.6</ele>
        <time>2014-06-11T06:43:36Z</time>
      </trkpt>
      <trkpt lat="49.21505" lon="6.95551">
        <ele>208.6</ele>
        <time>2014-06-11T06:43:41Z</time>
      </trkpt>
      <trkpt lat="49.2151" lon="6.9555">
        <ele>208.7</ele>
        <time>2014-06-11T06:43:46Z</time>
      </trkpt>
      <trkpt lat="49.21518" lon="6.95548">
        <ele>208.1</ele>
        <time>2014-06-11T06:43:51Z</time>
      </trkpt>
      <trkpt lat="49.21525" lon="6.95546">
        <ele>208.1</ele>
        <time>2014-06-11T06:43:56Z</time>
      </trkpt>
      <trkpt lat="49.21532" lon="6.95543">
        <ele>207.6</ele>
        <time>2014-06-11T06:44:01Z</time>
      </trkpt>
      <trkpt lat="49.21538" lon="6.95541">
        <ele>206.9</ele>
        <time>2014-06-11T06:44:06Z</time>
      </trkpt>
      <trkpt lat="49.21544" lon="6.95538">
        <ele>207.9</ele>
        <time>2014-06-11T06:44:11Z</time>
      </trkpt>
      <trkpt lat="49.2155" lon="6.95534">
        <ele>207.3</ele>
        <time>2014-06-11T06:44:16Z</time>
      </trkpt>
      <trkpt lat="49.21555" lon="6.95531">
        <ele>207.9</ele>
        <time>2014-06-11T06:44:21Z</time>
      </trkpt>
      <trkpt lat="49.21566" lon="6.95523">
        <ele>207.5</ele>
        <time>2014-06-11T06:44:31Z</time>
      </trkpt>
      <trkpt lat="49.21571" lon="6.95516">
        <ele>207.7</ele>
        <time>2014-06-11T06:44:36Z</time>
      </trkpt>
      <trkpt lat="49.21576" lon="6.95509">
        <ele>208.1</ele>
        <time>2014-06-11T06:44:41Z</time>
      </trkpt>
      <trkpt lat="49.21579" lon="6.95502">
        <ele>208</ele>
        <time>2014-06-11T06:44:46Z</time>
      </trkpt>
      <trkpt lat="49.2158" lon="6.95495">
        <ele>209.2</ele>
        <time>2014-06-11T06:44:51Z</time>
      </trkpt>
      <trkpt lat="49.2158" lon="6.95487">
        <ele>209.8</ele>
        <time>2014-06-11T06:44:56Z</time>
      </trkpt>
      <trkpt lat="49.2158" lon="6.95479">
        <ele>210.4</ele>
        <time>2014-06-11T06:45:01Z</time>
      </trkpt>
      <trkpt lat="49.21579" lon="6.95471">
        <ele>210.4</ele>
        <time>2014-06-11T06:45:06Z</time>
      </trkpt>
      <trkpt lat="49.2158" lon="6.95463">
        <ele>210.5</ele>
        <time>2014-06-11T06:45:11Z</time>
      </trkpt>
      <trkpt lat="49.21582" lon="6.95457">
        <ele>210.6</ele>
        <time>2014-06-11T06:45:16Z</time>
      </trkpt>
      <trkpt lat="49.21584" lon="6.95453">
        <ele>210.1</ele>
        <time>2014-06-11T06:45:21Z</time>
      </trkpt>
      <trkpt lat="49.21588" lon="6.95451">
        <ele>210.3</ele>
        <time>2014-06-11T06:45:26Z</time>
      </trkpt>
      <trkpt lat="49.21598" lon="6.95447">
        <ele>210.2</ele>
        <time>2014-06-11T06:45:36Z</time>
      </trkpt>
      <trkpt lat="49.21604" lon="6.95444">
        <ele>209.3</ele>
        <time>2014-06-11T06:45:41Z</time>
      </trkpt>
      <trkpt lat="49.2161" lon="6.9544">
        <ele>209.1</ele>
        <time>2014-06-11T06:45:46Z</time>
      </trkpt>
      <trkpt lat="49.21616" lon="6.95436">
        <ele>209</ele>
        <time>2014-06-11T06:45:51Z</time>
      </trkpt>
      <trkpt lat="49.21623" lon="6.95431">
        <ele>209.3</ele>
        <time>2014-06-11T06:45:56Z</time>
      </trkpt>
      <trkpt lat="49.2163" lon="6.95425">
        <ele>209.7</ele>
        <time>2014-06-11T06:46:01Z</time>
      </trkpt>
      <trkpt lat="49.21636" lon="6.95419">
        <ele>210</ele>
        <time>2014-06-11T06:46:06Z</time>
      </trkpt>
      <trkpt lat="49.21642" lon="6.95415">
        <ele>210.7</ele>
        <time>2014-06-11T06:46:11Z</time>
      </trkpt>
      <trkpt lat="49.21647" lon="6.95412">
        <ele>210</ele>
        <time>2014-06-11T06:46:16Z</time>
      </trkpt>
      <trkpt lat="49.21653" lon="6.95408">
        <ele>210</ele>
        <time>2014-06-11T06:46:21Z</time>
      </trkpt>
      <trkpt lat="49.21658" lon="6.95405">
        <ele>210.4</ele>
        <time>2014-06-11T06:46:26Z</time>
      </trkpt>
      <trkpt lat="49.21664" lon="6.95403">
        <ele>210</ele>
        <time>2014-06-11T06:46:31Z</time>
      </trkpt>
      <trkpt lat="49.21677" lon="6.95402">
        <ele>209.8</ele>
        <time>2014-06-11T06:46:41Z</time>
      </trkpt>
      <trkpt lat="49.21686" lon="6.95401">
        <ele>209.5</ele>
        <time>2014-06-11T06:46:46Z</time>
      </trkpt>
      <trkpt lat="49.21693" lon="6.95402">
        <ele>209.3</ele>
        <time>2014-06-11T06:46:51Z</time>
      </trkpt>
      <trkpt lat="49.21701" lon="6.95401">
        <ele>209.9</ele>
        <time>2014-06-11T06:46:56Z</time>
      </trkpt>
      <trkpt lat="49.21707" lon="6.95398">
        <ele>209.6</ele>
        <time>2014-06-11T06:47:01Z</time>
      </trkpt>
      <trkpt lat="49.21714" lon="6.95393">
        <ele>209.3</ele>
        <time>2014-06-11T06:47:06Z</time>
      </trkpt>
      <trkpt lat="49.21719" lon="6.95389">
        <ele>209.1</ele>
        <time>2014-06-11T06:47:11Z</time>
      </trkpt>
      <trkpt lat="49.21725" lon="6.95385">
        <ele>208.9</ele>
        <time>2014-06-11T06:47:16Z</time>
      </trkpt>
      <trkpt lat="49.2173" lon="6.95384">
        <ele>208.3</ele>
        <time>2014-06-11T06:47:21Z</time>
      </trkpt>
      <trkpt lat="49.21735" lon="6.95382">
        <ele>208.4</ele>
        <time>2014-06-11T06:47:26Z</time>
      </trkpt>
      <trkpt lat="49.21741" lon="6.9538">
        <ele>207.5</ele>
        <time>2014-06-11T06:47:31Z</time>
      </trkpt>
      <trkpt lat="49.21747" lon="6.95379">
        <ele>208.4</ele>
        <time>2014-06-11T06:47:36Z</time>
      </trkpt>
      <trkpt lat="49.2176" lon="6.95377">
        <ele>209</ele>
        <time>2014-06-11T06:47:46Z</time>
      </trkpt>
      <trkpt lat="49.21766" lon="6.95376">
        <ele>208.7</ele>
        <time>2014-06-11T06:47:51Z</time>
      </trkpt>
      <trkpt lat="49.21773" lon="6.95376">
        <ele>208.8</ele>
        <time>2014-06-11T06:47:56Z</time>
      </trkpt>
      <trkpt lat="49.21781" lon="6.95376">
        <ele>209.2</ele>
        <time>2014-06-11T06:48:01Z</time>
      </trkpt>
      <trkpt lat="49.21787" lon="6.95377">
        <ele>208.9</ele>
        <time>2014-06-11T06:48:06Z</time>
      </trkpt>
      <trkpt lat="49.21794" lon="6.95378">
        <ele>208.8</ele>
        <time>2014-06-11T06:48:11Z</time>
      </trkpt>
      <trkpt lat="49.21801" lon="6.95381">
        <ele>208.6</ele>
        <time>2014-06-11T06:48:16Z</time>
      </trkpt>
      <trkpt lat="49.21809" lon="6.95384">
        <ele>208.8</ele>
        <time>2014-06-11T06:48:21Z</time>
      </trkpt>
      <trkpt lat="49.21817" lon="6.95386">
        <ele>208.7</ele>
        <time>2014-06-11T06:48:26Z</time>
      </trkpt>
      <trkpt lat="49.21823" lon="6.95389">
        <ele>208.1</ele>
        <time>2014-06-11T06:48:31Z</time>
      </trkpt>
      <trkpt lat="49.21829" lon="6.95392">
        <ele>208.2</ele>
        <time>2014-06-11T06:48:36Z</time>
      </trkpt>
      <trkpt lat="49.21837" lon="6.95395">
        <ele>207.9</ele>
        <time>2014-06-11T06:48:41Z</time>
      </trkpt>
      <trkpt lat="49.21852" lon="6.95405">
        <ele>207.9</ele>
        <time>2014-06-11T06:48:51Z</time>
      </trkpt>
      <trkpt lat="49.21859" lon="6.95411">
        <ele>207.9</ele>
        <time>2014-06-11T06:48:56Z</time>
      </trkpt>
      <trkpt lat="49.21865" lon="6.95418">
        <ele>207.7</ele>
        <time>2014-06-11T06:49:01Z</time>
      </trkpt>
      <trkpt lat="49.21871" lon="6.95426">
        <ele>207.6</ele>
        <time>2014-06-11T06:49:06Z</time>
      </trkpt>
      <trkpt lat="49.21875" lon="6.95434">
        <ele>207.7</ele>
        <time>2014-06-11T06:49:11Z</time>
      </trkpt>
      <trkpt lat="49.21879" lon="6.95442">
        <ele>207.1</ele>
        <time>2014-06-11T06:49:16Z</time>
      </trkpt>
      <trkpt lat="49.21883" lon="6.95451">
        <ele>207.3</ele>
        <time>2014-06-11T06:49:21Z</time>
      </trkpt>
      <trkpt lat="49.21888" lon="6.9546">
        <ele>207.5</ele>
        <time>2014-06-11T06:49:26Z</time>
      </trkpt>
      <trkpt lat="49.21892" lon="6.95469">
        <ele>207</ele>
        <time>2014-06-11T06:49:31Z</time>
      </trkpt>
      <trkpt lat="49.21896" lon="6.95476">
        <ele>206.5</ele>
        <time>2014-06-11T06:49:36Z</time>
      </trkpt>
      <trkpt lat="49.21899" lon="6.95484">
        <ele>206.2</ele>
        <time>2014-06-11T06:49:41Z</time>
      </trkpt>
      <trkpt lat="49.21902" lon="6.95491">
        <ele>206.7</ele>
        <time>2014-06-11T06:49:46Z</time>
      </trkpt>
      <trkpt lat="49.21908" lon="6.95512">
        <ele>205.9</ele>
        <time>2014-06-11T06:49:56Z</time>
      </trkpt>
      <trkpt lat="49.21911" lon="6.95522">
        <ele>204.7</ele>
        <time>2014-06-11T06:50:01Z</time>
      </trkpt>
      <trkpt lat="49.21914" lon="6.95532">
        <ele>205.2</ele>
        <time>2014-06-11T06:50:06Z</time>
      </trkpt>
      <trkpt lat="49.21917" lon="6.95541">
        <ele>206</ele>
        <time>2014-06-11T06:50:11Z</time>
      </trkpt>
      <trkpt lat="49.21921" lon="6.95551">
        <ele>206.2</ele>
        <time>2014-06-11T06:50:16Z</time>
      </trkpt>
      <trkpt lat="49.21924" lon="6.95559">
        <ele>206.6</ele>
        <time>2014-06-11T06:50:21Z</time>
      </trkpt>
      <trkpt lat="49.21926" lon="6.95566">
        <ele>206.5</ele>
        <time>2014-06-11T06:50:26Z</time>
      </trkpt>
      <trkpt lat="49.21929" lon="6.95576">
        <ele>205.4</ele>
        <time>2014-06-11T06:50:31Z</time>
      </trkpt>
      <trkpt lat="49.21932" lon="6.95585">
        <ele>205.9</ele>
        <time>2014-06-11T06:50:36Z</time>
      </trkpt>
      <trkpt lat="49.21936" lon="6.95594">
        <ele>206.5</ele>
        <time>2014-06-11T06:50:41Z</time>
      </trkpt>
      <trkpt lat="49.2194" lon="6.95602">
        <ele>206.5</ele>
        <time>2014-06-11T06:50:46Z</time>
      </trkpt>
      <trkpt lat="49.21945" lon="6.9561">
        <ele>205.9</ele>
        <time>2014-06-11T06:50:51Z</time>
      </trkpt>
      <trkpt lat="49.21955" lon="6.95625">
        <ele>205.8</ele>
        <time>2014-06-11T06:51:01Z</time>
      </trkpt>
      <trkpt lat="49.2196" lon="6.95633">
        <ele>205.3</ele>
        <time>2014-06-11T06:51:06Z</time>
      </trkpt>
      <trkpt lat="49.21966" lon="6.9564">
        <ele>205.6</ele>
        <time>2014-06-11T06:51:11Z</time>
      </trkpt>
      <trkpt lat="49.21971" lon="6.95649">
        <ele>205.3</ele>
        <time>2014-06-11T06:51:16Z</time>
      </trkpt>
      <trkpt lat="49.21971" lon="6.95658">
        <ele>205.1</ele>
        <time>2014-06-11T06:51:21Z</time>
      </trkpt>
      <trkpt lat="49.21968" lon="6.95666">
        <ele>205.5</ele>
        <time>2014-06-11T06:51:26Z</time>
      </trkpt>
      <trkpt lat="49.21964" lon="6.95675">
        <ele>205.3</ele>
        <time>2014-06-11T06:51:31Z</time>
      </trkpt>
      <trkpt lat="49.2196" lon="6.95684">
        <ele>206.6</ele>
        <time>2014-06-11T06:51:36Z</time>
      </trkpt>
      <trkpt lat="49.21956" lon="6.95694">
        <ele>206.5</ele>
        <time>2014-06-11T06:51:41Z</time>
      </trkpt>
      <trkpt lat="49.21952" lon="6.95702">
        <ele>206</ele>
        <time>2014-06-11T06:51:46Z</time>
      </trkpt>
      <trkpt lat="49.21948" lon="6.95709">
        <ele>206.3</ele>
        <time>2014-06-11T06:51:51Z</time>
      </trkpt>
      <trkpt lat="49.21943" lon="6.95718">
        <ele>206.7</ele>
        <time>2014-06-11T06:51:56Z</time>
      </trkpt>
      <trkpt lat="49.21938" lon="6.95736">
        <ele>207.4</ele>
        <time>2014-06-11T06:52:06Z</time>
      </trkpt>
      <trkpt lat="49.21936" lon="6.95744">
        <ele>206.9</ele>
        <time>2014-06-11T06:52:11Z</time>
      </trkpt>
      <trkpt lat="49.21934" lon="6.95754">
        <ele>206.8</ele>
        <time>2014-06-11T06:52:16Z</time>
      </trkpt>
      <trkpt lat="49.21932" lon="6.95764">
        <ele>206.4</ele>
        <time>2014-06-11T06:52:21Z</time>
      </trkpt>
      <trkpt lat="49.21931" lon="6.95772">
        <ele>207.3</ele>
        <time>2014-06-11T06:52:26Z</time>
      </trkpt>
      <trkpt lat="49.2193" lon="6.95782">
        <ele>206.4</ele>
        <time>2014-06-11T06:52:31Z</time>
      </trkpt>
      <trkpt lat="49.21929" lon="6.95792">
        <ele>207.2</ele>
        <time>2014-06-11T06:52:36Z</time>
      </trkpt>
      <trkpt lat="49.21932" lon="6.95798">
        <ele>207</ele>
        <time>2014-06-11T06:52:41Z</time>
      </trkpt>
      <trkpt lat="49.21936" lon="6.95805">
        <ele>206.8</ele>
        <time>2014-06-11T06:52:46Z</time>
      </trkpt>
      <trkpt lat="49.21939" lon="6.9581">
        <ele>208.1</ele>
        <time>2014-06-11T06:52:51Z</time>
      </trkpt>
      <trkpt lat="49.21943" lon="6.95813">
        <ele>208</ele>
        <time>2014-06-11T06:52:56Z</time>
      </trkpt>
      <trkpt lat="49.21948" lon="6.95817">
        <ele>207.7</ele>
        <time>2014-06-11T06:53:01Z</time>
      </trkpt>
      <trkpt lat="49.21958" lon="6.95823">
        <ele>208.2</ele>
        <time>2014-06-11T06:53:11Z</time>
      </trkpt>
      <trkpt lat="49.21963" lon="6.95825">
        <ele>209.2</ele>
        <time>2014-06-11T06:53:16Z</time>
      </trkpt>
      <trkpt lat="49.21969" lon="6.95825">
        <ele>209</ele>
        <time>2014-06-11T06:53:21Z</time>
      </trkpt>
      <trkpt lat="49.21976" lon="6.95825">
        <ele>210.1</ele>
        <time>2014-06-11T06:53:26Z</time>
      </trkpt>
      <trkpt lat="49.21982" lon="6.95825">
        <ele>210.7</ele>
        <time>2014-06-11T06:53:31Z</time>
      </trkpt>
      <trkpt lat="49.21988" lon="6.95825">
        <ele>210.5</ele>
        <time>2014-06-11T06:53:36Z</time>
      </trkpt>
      <trkpt lat="49.21994" lon="6.95824">
        <ele>211.7</ele>
        <time>2014-06-11T06:53:41Z</time>
      </trkpt>
      <trkpt lat="49.22" lon="6.95827">
        <ele>212.4</ele>
        <time>2014-06-11T06:53:46Z</time>
      </trkpt>
      <trkpt lat="49.22006" lon="6.95829">
        <ele>212.9</ele>
        <time>2014-06-11T06:53:51Z</time>
      </trkpt>
      <trkpt lat="49.22012" lon="6.95834">
        <ele>213.2</ele>
        <time>2014-06-11T06:53:56Z</time>
      </trkpt>
      <trkpt lat="49.22016" lon="6.95839">
        <ele>213.9</ele>
        <time>2014-06-11T06:54:01Z</time>
      </trkpt>
      <trkpt lat="49.22021" lon="6.95843">
        <ele>214.8</ele>
        <time>2014-06-11T06:54:06Z</time>
      </trkpt>
      <trkpt lat="49.2203" lon="6.95855">
        <ele>216</ele>
        <time>2014-06-11T06:54:16Z</time>
      </trkpt>
      <trkpt lat="49.22035" lon="6.95861">
        <ele>216.2</ele>
        <time>2014-06-11T06:54:21Z</time>
      </trkpt>
      <trkpt lat="49.2204" lon="6.95866">
        <ele>216.7</ele>
        <time>2014-06-11T06:54:26Z</time>
      </trkpt>
      <trkpt lat="49.22046" lon="6.95871">
        <ele>217</ele>
        <time>2014-06-11T06:54:31Z</time>
      </trkpt>
      <trkpt lat="49.22051" lon="6.95876">
        <ele>217.1</ele>
        <time>2014-06-11T06:54:36Z</time>
      </trkpt>
      <trkpt lat="49.22056" lon="6.95882">
        <ele>218</ele>
        <time>2014-06-11T06:54:41Z</time>
      </trkpt>
      <trkpt lat="49.22061" lon="6.95886">
        <ele>219.2</ele>
        <time>2014-06-11T06:54:46Z</time>
      </trkpt>
      <trkpt lat="49.22067" lon="6.95891">
        <ele>218.3</ele>
        <time>2014-06-11T06:54:51Z</time>
      </trkpt>
      <trkpt lat="49.22071" lon="6.95897">
        <ele>218.3</ele>
        <time>2014-06-11T06:54:56Z</time>
      </trkpt>
      <trkpt lat="49.22076" lon="6.95903">
        <ele>218.2</ele>
        <time>2014-06-11T06:55:01Z</time>
      </trkpt>
      <trkpt lat="49.22081" lon="6.95908">
        <ele>218.9</ele>
        <time>2014-06-11T06:55:06Z</time>
      </trkpt>
      <trkpt lat="49.22085" lon="6.95911">
        <ele>218.8</ele>
        <time>2014-06-11T06:55:11Z</time>
      </trkpt>
      <trkpt lat="49.22095" lon="6.95921">
        <ele>217.4</ele>
        <time>2014-06-11T06:55:21Z</time>
      </trkpt>
      <trkpt lat="49.22101" lon="6.95925">
        <ele>217.2</ele>
        <time>2014-06-11T06:55:26Z</time>
      </trkpt>
      <trkpt lat="49.22109" lon="6.95928">
        <ele>216.9</ele>
        <time>2014-06-11T06:55:31Z</time>
      </trkpt>
      <trkpt lat="49.22113" lon="6.95933">
        <ele>217</ele>
        <time>2014-06-11T06:55:36Z</time>
      </trkpt>
      <trkpt lat="49.22118" lon="6.95937">
        <ele>216</ele>
        <time>2014-06-11T06:55:41Z</time>
      </trkpt>
      <trkpt lat="49.22123" lon="6.9594">
        <ele>216.4</ele>
        <time>2014-06-11T06:55:46Z</time>
      </trkpt>
      <trkpt lat="49.22129" lon="6.95944">
        <ele>215.9</ele>
        <time>2014-06-11T06:55:51Z</time>
      </trkpt>
      <trkpt lat="49.22136" lon="6.95951">
        <ele>215.8</ele>
        <time>2014-06-11T06:55:56Z</time>
      </trkpt>
      <trkpt lat="49.22141" lon="6.95958">
        <ele>214.7</ele>
        <time>2014-06-11T06:56:01Z</time>
      </trkpt>
      <trkpt lat="49.22145" lon="6.95961">
        <ele>215.4</ele>
        <time>2014-06-11T06:56:06Z</time>
      </trkpt>
      <trkpt lat="49.2215" lon="6.95965">
        <ele>214.8</ele>
        <time>2014-06-11T06:56:11Z</time>
      </trkpt>
      <trkpt lat="49.22155" lon="6.9597">
        <ele>215.3</ele>
        <time>2014-06-11T06:56:16Z</time>
      </trkpt>
      <trkpt lat="49.22167" lon="6.95981">
        <ele>215</ele>
        <time>2014-06-11T06:56:26Z</time>
      </trkpt>
      <trkpt lat="49.22174" lon="6.95986">
        <ele>215.1</ele>
        <time>2014-06-11T06:56:31Z</time>
      </trkpt>
      <trkpt lat="49.2218" lon="6.95992">
        <ele>215</ele>
        <time>2014-06-11T06:56:36Z</time>
      </trkpt>
      <trkpt lat="49.22185" lon="6.96">
        <ele>215.6</ele>
        <time>2014-06-11T06:56:41Z</time>
      </trkpt>
      <trkpt lat="49.2219" lon="6.96006">
        <ele>215.3</ele>
        <time>2014-06-11T06:56:46Z</time>
      </trkpt>
      <trkpt lat="49.22196" lon="6.96012">
        <ele>215</ele>
        <time>2014-06-11T06:56:51Z</time>
      </trkpt>
      <trkpt lat="49.22201" lon="6.96018">
        <ele>214.9</ele>
        <time>2014-06-11T06:56:56Z</time>
      </trkpt>
      <trkpt lat="49.22207" lon="6.96024">
        <ele>215.3</ele>
        <time>2014-06-11T06:57:01Z</time>
      </trkpt>
      <trkpt lat="49.22211" lon="6.96029">
        <ele>215.9</ele>
        <time>2014-06-11T06:57:06Z</time>
      </trkpt>
      <trkpt lat="49.22216" lon="6.96034">
        <ele>215.8</ele>
        <time>2014-06-11T06:57:11Z</time>
      </trkpt>
      <trkpt lat="49.2222" lon="6.96039">
        <ele>214.7</ele>
        <time>2014-06-11T06:57:16Z</time>
      </trkpt>
      <trkpt lat="49.22224" lon="6.96046">
        <ele>214.6</ele>
        <time>2014-06-11T06:57:21Z</time>
      </trkpt>
      <trkpt lat="49.22239" lon="6.9606">
        <ele>213</ele>
        <time>2014-06-11T06:57:37Z</time>
      </trkpt>
      <trkpt lat="49.22241" lon="6.96084">
        <ele>213.8</ele>
        <time>2014-06-11T06:57:54Z</time>
      </trkpt>
      <trkpt lat="49.22244" lon="6.96088">
        <ele>214.6</ele>
        <time>2014-06-11T06:57:59Z</time>
      </trkpt>
      <trkpt lat="49.22249" lon="6.96087">
        <ele>214.2</ele>
        <time>2014-06-11T06:58:04Z</time>
      </trkpt>
      <trkpt lat="49.22251" lon="6.96084">
        <ele>214</ele>
        <time>2014-06-11T06:58:09Z</time>
      </trkpt>
      <trkpt lat="49.22253" lon="6.9608">
        <ele>214.3</ele>
        <time>2014-06-11T06:58:14Z</time>
      </trkpt>
      <trkpt lat="49.22256" lon="6.96077">
        <ele>214</ele>
        <time>2014-06-11T06:58:19Z</time>
      </trkpt>
      <trkpt lat="49.22259" lon="6.96072">
        <ele>213.7</ele>
        <time>2014-06-11T06:58:24Z</time>
      </trkpt>
      <trkpt lat="49.22269" lon="6.96066">
        <ele>214.8</ele>
        <time>2014-06-11T06:58:34Z</time>
      </trkpt>
      <trkpt lat="49.22273" lon="6.96069">
        <ele>215</ele>
        <time>2014-06-11T06:58:39Z</time>
      </trkpt>
      <trkpt lat="49.22279" lon="6.96072">
        <ele>214.6</ele>
        <time>2014-06-11T06:58:44Z</time>
      </trkpt>
      <trkpt lat="49.22284" lon="6.96076">
        <ele>214.6</ele>
        <time>2014-06-11T06:58:49Z</time>
      </trkpt>
      <trkpt lat="49.22289" lon="6.96079">
        <ele>215.2</ele>
        <time>2014-06-11T06:58:54Z</time>
      </trkpt>
      <trkpt lat="49.22295" lon="6.96085">
        <ele>215.6</ele>
        <time>2014-06-11T06:58:59Z</time>
      </trkpt>
      <trkpt lat="49.223" lon="6.9609">
        <ele>215.6</ele>
        <time>2014-06-11T06:59:04Z</time>
      </trkpt>
      <trkpt lat="49.22305" lon="6.96094">
        <ele>215.6</ele>
        <time>2014-06-11T06:59:09Z</time>
      </trkpt>
      <trkpt lat="49.2231" lon="6.961">
        <ele>215.5</ele>
        <time>2014-06-11T06:59:14Z</time>
      </trkpt>
      <trkpt lat="49.22315" lon="6.96105">
        <ele>215</ele>
        <time>2014-06-11T06:59:19Z</time>
      </trkpt>
      <trkpt lat="49.2232" lon="6.96112">
        <ele>215.1</ele>
        <time>2014-06-11T06:59:24Z</time>
      </trkpt>
      <trkpt lat="49.22325" lon="6.9612">
        <ele>215.4</ele>
        <time>2014-06-11T06:59:29Z</time>
      </trkpt>
      <trkpt lat="49.22332" lon="6.96131">
        <ele>215.5</ele>
        <time>2014-06-11T06:59:39Z</time>
      </trkpt>
      <trkpt lat="49.22337" lon="6.96137">
        <ele>215.4</ele>
        <time>2014-06-11T06:59:44Z</time>
      </trkpt>
      <trkpt lat="49.2234" lon="6.96143">
        <ele>215.2</ele>
        <time>2014-06-11T06:59:49Z</time>
      </trkpt>
      <trkpt lat="49.22347" lon="6.96149">
        <ele>215</ele>
        <time>2014-06-11T06:59:54Z</time>
      </trkpt>
      <trkpt lat="49.22351" lon="6.96155">
        <ele>215.4</ele>
        <time>2014-06-11T06:59:59Z</time>
      </trkpt>
      <trkpt lat="49.22357" lon="6.96161">
        <ele>214.2</ele>
        <time>2014-06-11T07:00:04Z</time>
      </trkpt>
      <trkpt lat="49.22361" lon="6.96165">
        <ele>213.3</ele>
        <time>2014-06-11T07:00:09Z</time>
      </trkpt>
      <trkpt lat="49.22365" lon="6.96171">
        <ele>213.9</ele>
        <time>2014-06-11T07:00:14Z</time>
      </trkpt>
      <trkpt lat="49.2237" lon="6.96176">
        <ele>214.1</ele>
        <time>2014-06-11T07:00:19Z</time>
      </trkpt>
      <trkpt lat="49.22375" lon="6.96181">
        <ele>213.4</ele>
        <time>2014-06-11T07:00:24Z</time>
      </trkpt>
      <trkpt lat="49.2238" lon="6.96185">
        <ele>213.3</ele>
        <time>2014-06-11T07:00:29Z</time>
      </trkpt>
      <trkpt lat="49.22386" lon="6.9619">
        <ele>212.7</ele>
        <time>2014-06-11T07:00:34Z</time>
      </trkpt>
      <trkpt lat="49.22398" lon="6.96194">
        <ele>212.5</ele>
        <time>2014-06-11T07:00:44Z</time>
      </trkpt>
      <trkpt lat="49.22405" lon="6.96193">
        <ele>212.4</ele>
        <time>2014-06-11T07:00:49Z</time>
      </trkpt>
      <trkpt lat="49.22412" lon="6.96192">
        <ele>211.9</ele>
        <time>2014-06-11T07:00:54Z</time>
      </trkpt>
      <trkpt lat="49.22417" lon="6.96192">
        <ele>212</ele>
        <time>2014-06-11T07:00:59Z</time>
      </trkpt>
      <trkpt lat="49.22422" lon="6.96192">
        <ele>211.4</ele>
        <time>2014-06-11T07:01:04Z</time>
      </trkpt>
      <trkpt lat="49.22428" lon="6.96192">
        <ele>210.8</ele>
        <time>2014-06-11T07:01:09Z</time>
      </trkpt>
      <trkpt lat="49.22432" lon="6.96195">
        <ele>211.7</ele>
        <time>2014-06-11T07:01:14Z</time>
      </trkpt>
      <trkpt lat="49.22436" lon="6.96199">
        <ele>212.1</ele>
        <time>2014-06-11T07:01:19Z</time>
      </trkpt>
      <trkpt lat="49.22442" lon="6.96202">
        <ele>212</ele>
        <time>2014-06-11T07:01:24Z</time>
      </trkpt>
      <trkpt lat="49.22446" lon="6.96205">
        <ele>211.4</ele>
        <time>2014-06-11T07:01:29Z</time>
      </trkpt>
      <trkpt lat="49.22451" lon="6.96209">
        <ele>211.2</ele>
        <time>2014-06-11T07:01:34Z</time>
      </trkpt>
      <trkpt lat="49.22457" lon="6.96213">
        <ele>211.3</ele>
        <time>2014-06-11T07:01:39Z</time>
      </trkpt>
      <trkpt lat="49.22469" lon="6.96219">
        <ele>212.2</ele>
        <time>2014-06-11T07:01:49Z</time>
      </trkpt>
      <trkpt lat="49.22474" lon="6.96223">
        <ele>212.5</ele>
        <time>2014-06-11T07:01:54Z</time>
      </trkpt>
      <trkpt lat="49.2248" lon="6.96228">
        <ele>211.8</ele>
        <time>2014-06-11T07:01:59Z</time>
      </trkpt>
      <trkpt lat="49.22486" lon="6.96231">
        <ele>211.6</ele>
        <time>2014-06-11T07:02:04Z</time>
      </trkpt>
      <trkpt lat="49.22489" lon="6.96234">
        <ele>212</ele>
        <time>2014-06-11T07:02:09Z</time>
      </trkpt>
      <trkpt lat="49.22493" lon="6.96237">
        <ele>212</ele>
        <time>2014-06-11T07:02:14Z</time>
      </trkpt>
      <trkpt lat="49.22497" lon="6.96241">
        <ele>211.1</ele>
        <time>2014-06-11T07:02:19Z</time>
      </trkpt>
      <trkpt lat="49.22501" lon="6.96245">
        <ele>210.7</ele>
        <time>2014-06-11T07:02:24Z</time>
      </trkpt>
      <trkpt lat="49.22506" lon="6.9625">
        <ele>209.8</ele>
        <time>2014-06-11T07:02:29Z</time>
      </trkpt>
      <trkpt lat="49.22511" lon="6.96254">
        <ele>209.7</ele>
        <time>2014-06-11T07:02:34Z</time>
      </trkpt>
      <trkpt lat="49.22517" lon="6.96258">
        <ele>209.8</ele>
        <time>2014-06-11T07:02:39Z</time>
      </trkpt>
      <trkpt lat="49.22521" lon="6.96264">
        <ele>209.4</ele>
        <time>2014-06-11T07:02:44Z</time>
      </trkpt>
      <trkpt lat="49.22534" lon="6.96275">
        <ele>208.4</ele>
        <time>2014-06-11T07:02:54Z</time>
      </trkpt>
      <trkpt lat="49.2254" lon="6.9628">
        <ele>207</ele>
        <time>2014-06-11T07:02:59Z</time>
      </trkpt>
      <trkpt lat="49.22543" lon="6.96279">
        <ele>206.5</ele>
        <time>2014-06-11T07:03:04Z</time>
      </trkpt>
      <trkpt lat="49.22548" lon="6.96281">
        <ele>204.9</ele>
        <time>2014-06-11T07:03:09Z</time>
      </trkpt>
      <trkpt lat="49.22553" lon="6.96289">
        <ele>204.1</ele>
        <time>2014-06-11T07:03:14Z</time>
      </trkpt>
      <trkpt lat="49.22557" lon="6.96291">
        <ele>204.6</ele>
        <time>2014-06-11T07:03:19Z</time>
      </trkpt>
      <trkpt lat="49.2256" lon="6.96293">
        <ele>204.8</ele>
        <time>2014-06-11T07:03:24Z</time>
      </trkpt>
      <trkpt lat="49.22563" lon="6.96299">
        <ele>204.5</ele>
        <time>2014-06-11T07:03:29Z</time>
      </trkpt>
      <trkpt lat="49.22565" lon="6.96307">
        <ele>205.2</ele>
        <time>2014-06-11T07:03:34Z</time>
      </trkpt>
      <trkpt lat="49.22568" lon="6.96315">
        <ele>204.9</ele>
        <time>2014-06-11T07:03:39Z</time>
      </trkpt>
      <trkpt lat="49.22568" lon="6.96323">
        <ele>205.2</ele>
        <time>2014-06-11T07:03:44Z</time>
      </trkpt>
      <trkpt lat="49.22565" lon="6.96329">
        <ele>205.9</ele>
        <time>2014-06-11T07:03:49Z</time>
      </trkpt>
      <trkpt lat="49.22556" lon="6.96343">
        <ele>205.2</ele>
        <time>2014-06-11T07:03:59Z</time>
      </trkpt>
      <trkpt lat="49.2255" lon="6.96352">
        <ele>205</ele>
        <time>2014-06-11T07:04:04Z</time>
      </trkpt>
      <trkpt lat="49.22545" lon="6.96361">
        <ele>204.9</ele>
        <time>2014-06-11T07:04:09Z</time>
      </trkpt>
      <trkpt lat="49.2254" lon="6.96368">
        <ele>205.1</ele>
        <time>2014-06-11T07:04:14Z</time>
      </trkpt>
      <trkpt lat="49.22535" lon="6.96375">
        <ele>204.9</ele>
        <time>2014-06-11T07:04:19Z</time>
      </trkpt>
      <trkpt lat="49.22531" lon="6.9638">
        <ele>205.6</ele>
        <time>2014-06-11T07:04:24Z</time>
      </trkpt>
      <trkpt lat="49.22526" lon="6.96388">
        <ele>206.1</ele>
        <time>2014-06-11T07:04:29Z</time>
      </trkpt>
      <trkpt lat="49.22521" lon="6.96395">
        <ele>205.9</ele>
        <time>2014-06-11T07:04:34Z</time>
      </trkpt>
      <trkpt lat="49.22516" lon="6.96402">
        <ele>206.2</ele>
        <time>2014-06-11T07:04:39Z</time>
      </trkpt>
      <trkpt lat="49.22512" lon="6.96408">
        <ele>205.8</ele>
        <time>2014-06-11T07:04:44Z</time>
      </trkpt>
      <trkpt lat="49.22507" lon="6.96415">
        <ele>206.3</ele>
        <time>2014-06-11T07:04:49Z</time>
      </trkpt>
      <trkpt lat="49.22502" lon="6.96422">
        <ele>205.9</ele>
        <time>2014-06-11T07:04:54Z</time>
      </trkpt>
      <trkpt lat="49.22494" lon="6.96434">
        <ele>206.4</ele>
        <time>2014-06-11T07:05:04Z</time>
      </trkpt>
      <trkpt lat="49.2249" lon="6.9644">
        <ele>207.5</ele>
        <time>2014-06-11T07:05:09Z</time>
      </trkpt>
      <trkpt lat="49.22486" lon="6.96445">
        <ele>207.7</ele>
        <time>2014-06-11T07:05:14Z</time>
      </trkpt>
      <trkpt lat="49.22482" lon="6.9645">
        <ele>207.5</ele>
        <time>2014-06-11T07:05:19Z</time>
      </trkpt>
      <trkpt lat="49.22479" lon="6.96456">
        <ele>207.6</ele>
        <time>2014-06-11T07:05:24Z</time>
      </trkpt>
      <trkpt lat="49.22476" lon="6.96462">
        <ele>208.1</ele>
        <time>2014-06-11T07:05:29Z</time>
      </trkpt>
      <trkpt lat="49.22473" lon="6.96467">
        <ele>208.4</ele>
        <time>2014-06-11T07:05:34Z</time>
      </trkpt>
      <trkpt lat="49.2247" lon="6.96474">
        <ele>208.6</ele>
        <time>2014-06-11T07:05:39Z</time>
      </trkpt>
      <trkpt lat="49.22467" lon="6.96481">
        <ele>208.8</ele>
        <time>2014-06-11T07:05:44Z</time>
      </trkpt>
      <trkpt lat="49.22465" lon="6.96487">
        <ele>209.2</ele>
        <time>2014-06-11T07:05:49Z</time>
      </trkpt>
      <trkpt lat="49.22462" lon="6.96495">
        <ele>209.1</ele>
        <time>2014-06-11T07:05:54Z</time>
      </trkpt>
      <trkpt lat="49.22459" lon="6.96502">
        <ele>208.8</ele>
        <time>2014-06-11T07:05:59Z</time>
      </trkpt>
      <trkpt lat="49.22454" lon="6.96518">
        <ele>210.3</ele>
        <time>2014-06-11T07:06:09Z</time>
      </trkpt>
      <trkpt lat="49.22451" lon="6.96527">
        <ele>209.4</ele>
        <time>2014-06-11T07:06:14Z</time>
      </trkpt>
      <trkpt lat="49.22449" lon="6.96535">
        <ele>210.3</ele>
        <time>2014-06-11T07:06:19Z</time>
      </trkpt>
      <trkpt lat="49.22447" lon="6.96543">
        <ele>210</ele>
        <time>2014-06-11T07:06:24Z</time>
      </trkpt>
      <trkpt lat="49.22444" lon="6.96551">
        <ele>210.6</ele>
        <time>2014-06-11T07:06:29Z</time>
      </trkpt>
      <trkpt lat="49.22442" lon="6.9656">
        <ele>210.5</ele>
        <time>2014-06-11T07:06:34Z</time>
      </trkpt>
      <trkpt lat="49.2244" lon="6.96567">
        <ele>210.4</ele>
        <time>2014-06-11T07:06:39Z</time>
      </trkpt>
      <trkpt lat="49.22439" lon="6.96576">
        <ele>211.2</ele>
        <time>2014-06-11T07:06:44Z</time>
      </trkpt>
      <trkpt lat="49.22437" lon="6.96586">
        <ele>211.2</ele>
        <time>2014-06-11T07:06:49Z</time>
      </trkpt>
      <trkpt lat="49.22434" lon="6.96596">
        <ele>211.5</ele>
        <time>2014-06-11T07:06:54Z</time>
      </trkpt>
      <trkpt lat="49.22432" lon="6.96605">
        <ele>211.4</ele>
        <time>2014-06-11T07:06:59Z</time>
      </trkpt>
      <trkpt lat="49.22428" lon="6.96614">
        <ele>212.9</ele>
        <time>2014-06-11T07:07:04Z</time>
      </trkpt>
      <trkpt lat="49.22423" lon="6.9663">
        <ele>212.4</ele>
        <time>2014-06-11T07:07:14Z</time>
      </trkpt>
      <trkpt lat="49.2242" lon="6.96638">
        <ele>212.5</ele>
        <time>2014-06-11T07:07:19Z</time>
      </trkpt>
      <trkpt lat="49.22416" lon="6.96646">
        <ele>212.3</ele>
        <time>2014-06-11T07:07:24Z</time>
      </trkpt>
      <trkpt lat="49.22413" lon="6.96655">
        <ele>212.8</ele>
        <time>2014-06-11T07:07:29Z</time>
      </trkpt>
      <trkpt lat="49.22411" lon="6.96663">
        <ele>213.6</ele>
        <time>2014-06-11T07:07:34Z</time>
      </trkpt>
      <trkpt lat="49.22408" lon="6.96673">
        <ele>213.7</ele>
        <time>2014-06-11T07:07:39Z</time>
      </trkpt>
      <trkpt lat="49.22405" lon="6.9668">
        <ele>213.6</ele>
        <time>2014-06-11T07:07:44Z</time>
      </trkpt>
      <trkpt lat="49.22402" lon="6.96689">
        <ele>214</ele>
        <time>2014-06-11T07:07:49Z</time>
      </trkpt>
      <trkpt lat="49.224" lon="6.96698">
        <ele>213.6</ele>
        <time>2014-06-11T07:07:54Z</time>
      </trkpt>
      <trkpt lat="49.22398" lon="6.96708">
        <ele>214.4</ele>
        <time>2014-06-11T07:07:59Z</time>
      </trkpt>
      <trkpt lat="49.22396" lon="6.96719">
        <ele>214.9</ele>
        <time>2014-06-11T07:08:04Z</time>
      </trkpt>
      <trkpt lat="49.22394" lon="6.96729">
        <ele>215.2</ele>
        <time>2014-06-11T07:08:09Z</time>
      </trkpt>
      <trkpt lat="49.22388" lon="6.96748">
        <ele>215.2</ele>
        <time>2014-06-11T07:08:19Z</time>
      </trkpt>
      <trkpt lat="49.22385" lon="6.96754">
        <ele>216.1</ele>
        <time>2014-06-11T07:08:24Z</time>
      </trkpt>
      <trkpt lat="49.22381" lon="6.96762">
        <ele>216.3</ele>
        <time>2014-06-11T07:08:29Z</time>
      </trkpt>
      <trkpt lat="49.22377" lon="6.96768">
        <ele>216.7</ele>
        <time>2014-06-11T07:08:34Z</time>
      </trkpt>
      <trkpt lat="49.22373" lon="6.96774">
        <ele>216.7</ele>
        <time>2014-06-11T07:08:39Z</time>
      </trkpt>
      <trkpt lat="49.22368" lon="6.9678">
        <ele>217.4</ele>
        <time>2014-06-11T07:08:44Z</time>
      </trkpt>
      <trkpt lat="49.22363" lon="6.96787">
        <ele>217.7</ele>
        <time>2014-06-11T07:08:49Z</time>
      </trkpt>
      <trkpt lat="49.22358" lon="6.96794">
        <ele>217.9</ele>
        <time>2014-06-11T07:08:54Z</time>
      </trkpt>
      <trkpt lat="49.22353" lon="6.96802">
        <ele>217.8</ele>
        <time>2014-06-11T07:08:59Z</time>
      </trkpt>
      <trkpt lat="49.22347" lon="6.96807">
        <ele>218</ele>
        <time>2014-06-11T07:09:04Z</time>
      </trkpt>
      <trkpt lat="49.22342" lon="6.96813">
        <ele>218.9</ele>
        <time>2014-06-11T07:09:09Z</time>
      </trkpt>
      <trkpt lat="49.22337" lon="6.96818">
        <ele>218.6</ele>
        <time>2014-06-11T07:09:14Z</time>
      </trkpt>
      <trkpt lat="49.22328" lon="6.96826">
        <ele>219.3</ele>
        <time>2014-06-11T07:09:24Z</time>
      </trkpt>
      <trkpt lat="49.22322" lon="6.96824">
        <ele>219.7</ele>
        <time>2014-06-11T07:09:29Z</time>
      </trkpt>
      <trkpt lat="49.22317" lon="6.96821">
        <ele>221.2</ele>
        <time>2014-06-11T07:09:34Z</time>
      </trkpt>
      <trkpt lat="49.22311" lon="6.96819">
        <ele>222.2</ele>
        <time>2014-06-11T07:09:39Z</time>
      </trkpt>
      <trkpt lat="49.22304" lon="6.96815">
        <ele>222.7</ele>
        <time>2014-06-11T07:09:44Z</time>
      </trkpt>
      <trkpt lat="49.22297" lon="6.96812">
        <ele>223</ele>
        <time>2014-06-11T07:09:49Z</time>
      </trkpt>
      <trkpt lat="49.22291" lon="6.96807">
        <ele>223</ele>
        <time>2014-06-11T07:09:54Z</time>
      </trkpt>
      <trkpt lat="49.22285" lon="6.96802">
        <ele>223.3</ele>
        <time>2014-06-11T07:09:59Z</time>
      </trkpt>
      <trkpt lat="49.2228" lon="6.96796">
        <ele>223.6</ele>
        <time>2014-06-11T07:10:04Z</time>
      </trkpt>
      <trkpt lat="49.22275" lon="6.96791">
        <ele>224.2</ele>
        <time>2014-06-11T07:10:09Z</time>
      </trkpt>
      <trkpt lat="49.22269" lon="6.96786">
        <ele>224.6</ele>
        <time>2014-06-11T07:10:14Z</time>
      </trkpt>
      <trkpt lat="49.22264" lon="6.9678">
        <ele>224.9</ele>
        <time>2014-06-11T07:10:19Z</time>
      </trkpt>
      <trkpt lat="49.22254" lon="6.96771">
        <ele>225.3</ele>
        <time>2014-06-11T07:10:29Z</time>
      </trkpt>
      <trkpt lat="49.22249" lon="6.96767">
        <ele>227.1</ele>
        <time>2014-06-11T07:10:34Z</time>
      </trkpt>
      <trkpt lat="49.22245" lon="6.96761">
        <ele>226.2</ele>
        <time>2014-06-11T07:10:39Z</time>
      </trkpt>
      <trkpt lat="49.2224" lon="6.96757">
        <ele>226.7</ele>
        <time>2014-06-11T07:10:44Z</time>
      </trkpt>
      <trkpt lat="49.22235" lon="6.96751">
        <ele>226.6</ele>
        <time>2014-06-11T07:10:49Z</time>
      </trkpt>
      <trkpt lat="49.22229" lon="6.96744">
        <ele>226.7</ele>
        <time>2014-06-11T07:10:54Z</time>
      </trkpt>
      <trkpt lat="49.22223" lon="6.96738">
        <ele>226.8</ele>
        <time>2014-06-11T07:10:59Z</time>
      </trkpt>
      <trkpt lat="49.22218" lon="6.96732">
        <ele>226.6</ele>
        <time>2014-06-11T07:11:04Z</time>
      </trkpt>
      <trkpt lat="49.22212" lon="6.96728">
        <ele>226.9</ele>
        <time>2014-06-11T07:11:09Z</time>
      </trkpt>
      <trkpt lat="49.22206" lon="6.96725">
        <ele>227.2</ele>
        <time>2014-06-11T07:11:14Z</time>
      </trkpt>
      <trkpt lat="49.22201" lon="6.96723">
        <ele>226.9</ele>
        <time>2014-06-11T07:11:19Z</time>
      </trkpt>
      <trkpt lat="49.22195" lon="6.96725">
        <ele>227.6</ele>
        <time>2014-06-11T07:11:24Z</time>
      </trkpt>
      <trkpt lat="49.22183" lon="6.96728">
        <ele>226.7</ele>
        <time>2014-06-11T07:11:34Z</time>
      </trkpt>
      <trkpt lat="49.22176" lon="6.96729">
        <ele>227.4</ele>
        <time>2014-06-11T07:11:39Z</time>
      </trkpt>
      <trkpt lat="49.22171" lon="6.9673">
        <ele>227.3</ele>
        <time>2014-06-11T07:11:44Z</time>
      </trkpt>
      <trkpt lat="49.22167" lon="6.96735">
        <ele>226.8</ele>
        <time>2014-06-11T07:11:49Z</time>
      </trkpt>
      <trkpt lat="49.22163" lon="6.9674">
        <ele>226.7</ele>
        <time>2014-06-11T07:11:54Z</time>
      </trkpt>
      <trkpt lat="49.22158" lon="6.96745">
        <ele>226.6</ele>
        <time>2014-06-11T07:11:59Z</time>
      </trkpt>
      <trkpt lat="49.22154" lon="6.96751">
        <ele>227.3</ele>
        <time>2014-06-11T07:12:04Z</time>
      </trkpt>
      <trkpt lat="49.22149" lon="6.96758">
        <ele>227.5</ele>
        <time>2014-06-11T07:12:09Z</time>
      </trkpt>
      <trkpt lat="49.22146" lon="6.96764">
        <ele>227.7</ele>
        <time>2014-06-11T07:12:14Z</time>
      </trkpt>
      <trkpt lat="49.22144" lon="6.96772">
        <ele>227.6</ele>
        <time>2014-06-11T07:12:19Z</time>
      </trkpt>
      <trkpt lat="49.22141" lon="6.96779">
        <ele>227.5</ele>
        <time>2014-06-11T07:12:24Z</time>
      </trkpt>
      <trkpt lat="49.22139" lon="6.96786">
        <ele>227.7</ele>
        <time>2014-06-11T07:12:29Z</time>
      </trkpt>
      <trkpt lat="49.22135" lon="6.96802">
        <ele>228.2</ele>
        <time>2014-06-11T07:12:39Z</time>
      </trkpt>
      <trkpt lat="49.22133" lon="6.96811">
        <ele>228.4</ele>
        <time>2014-06-11T07:12:44Z</time>
      </trkpt>
      <trkpt lat="49.2213" lon="6.96818">
        <ele>229.8</ele>
        <time>2014-06-11T07:12:49Z</time>
      </trkpt>
      <trkpt lat="49.22127" lon="6.96826">
        <ele>229.8</ele>
        <time>2014-06-11T07:12:54Z</time>
      </trkpt>
      <trkpt lat="49.22125" lon="6.96833">
        <ele>230.3</ele>
        <time>2014-06-11T07:12:59Z</time>
      </trkpt>
      <trkpt lat="49.22122" lon="6.96841">
        <ele>229.8</ele>
        <time>2014-06-11T07:13:04Z</time>
      </trkpt>
      <trkpt lat="49.22118" lon="6.9685">
        <ele>230.1</ele>
        <time>2014-06-11T07:13:09Z</time>
      </trkpt>
      <trkpt lat="49.22115" lon="6.96857">
        <ele>230.2</ele>
        <time>2014-06-11T07:13:14Z</time>
      </trkpt>
      <trkpt lat="49.22111" lon="6.96865">
        <ele>229.1</ele>
        <time>2014-06-11T07:13:19Z</time>
      </trkpt>
      <trkpt lat="49.22108" lon="6.96871">
        <ele>229.2</ele>
        <time>2014-06-11T07:13:24Z</time>
      </trkpt>
      <trkpt lat="49.22105" lon="6.96875">
        <ele>228.8</ele>
        <time>2014-06-11T07:13:29Z</time>
      </trkpt>
      <trkpt lat="49.22104" lon="6.96879">
        <ele>228.1</ele>
        <time>2014-06-11T07:13:34Z</time>
      </trkpt>
      <trkpt lat="49.22105" lon="6.96897">
        <ele>227</ele>
        <time>2014-06-11T07:13:44Z</time>
      </trkpt>
      <trkpt lat="49.22105" lon="6.96908">
        <ele>226.9</ele>
        <time>2014-06-11T07:13:49Z</time>
      </trkpt>
      <trkpt lat="49.22107" lon="6.96918">
        <ele>226.3</ele>
        <time>2014-06-11T07:13:54Z</time>
      </trkpt>
      <trkpt lat="49.22108" lon="6.96928">
        <ele>226.7</ele>
        <time>2014-06-11T07:13:59Z</time>
      </trkpt>
      <trkpt lat="49.22109" lon="6.96937">
        <ele>226.2</ele>
        <time>2014-06-11T07:14:04Z</time>
      </trkpt>
      <trkpt lat="49.22112" lon="6.96946">
        <ele>225.2</ele>
        <time>2014-06-11T07:14:09Z</time>
      </trkpt>
      <trkpt lat="49.22115" lon="6.96955">
        <ele>224.5</ele>
        <time>2014-06-11T07:14:14Z</time>
      </trkpt>
      <trkpt lat="49.22119" lon="6.96962">
        <ele>225.2</ele>
        <time>2014-06-11T07:14:19Z</time>
      </trkpt>
      <trkpt lat="49.22123" lon="6.96971">
        <ele>225</ele>
        <time>2014-06-11T07:14:24Z</time>
      </trkpt>
      <trkpt lat="49.22127" lon="6.96977">
        <ele>224.9</ele>
        <time>2014-06-11T07:14:29Z</time>
      </trkpt>
      <trkpt lat="49.22132" lon="6.96985">
        <ele>224.2</ele>
        <time>2014-06-11T07:14:34Z</time>
      </trkpt>
      <trkpt lat="49.22136" lon="6.96991">
        <ele>224.6</ele>
        <time>2014-06-11T07:14:39Z</time>
      </trkpt>
      <trkpt lat="49.22144" lon="6.97003">
        <ele>223.8</ele>
        <time>2014-06-11T07:14:49Z</time>
      </trkpt>
      <trkpt lat="49.22148" lon="6.9701">
        <ele>223.8</ele>
        <time>2014-06-11T07:14:54Z</time>
      </trkpt>
      <trkpt lat="49.22154" lon="6.97018">
        <ele>223.6</ele>
        <time>2014-06-11T07:14:59Z</time>
      </trkpt>
      <trkpt lat="49.2216" lon="6.97025">
        <ele>223.8</ele>
        <time>2014-06-11T07:15:04Z</time>
      </trkpt>
      <trkpt lat="49.22165" lon="6.97033">
        <ele>223.6</ele>
        <time>2014-06-11T07:15:09Z</time>
      </trkpt>
      <trkpt lat="49.2217" lon="6.97039">
        <ele>224.4</ele>
        <time>2014-06-11T07:15:14Z</time>
      </trkpt>
      <trkpt lat="49.22176" lon="6.97044">
        <ele>224.6</ele>
        <time>2014-06-11T07:15:19Z</time>
      </trkpt>
      <trkpt lat="49.22181" lon="6.97048">
        <ele>224.4</ele>
        <time>2014-06-11T07:15:24Z</time>
      </trkpt>
      <trkpt lat="49.22184" lon="6.97053">
        <ele>224.1</ele>
        <time>2014-06-11T07:15:29Z</time>
      </trkpt>
      <trkpt lat="49.22187" lon="6.97058">
        <ele>223.5</ele>
        <time>2014-06-11T07:15:34Z</time>
      </trkpt>
      <trkpt lat="49.22189" lon="6.97066">
        <ele>224.7</ele>
        <time>2014-06-11T07:15:39Z</time>
      </trkpt>
      <trkpt lat="49.22193" lon="6.97073">
        <ele>224.7</ele>
        <time>2014-06-11T07:15:44Z</time>
      </trkpt>
      <trkpt lat="49.22199" lon="6.97086">
        <ele>224.7</ele>
        <time>2014-06-11T07:15:54Z</time>
      </trkpt>
      <trkpt lat="49.22202" lon="6.97093">
        <ele>224.5</ele>
        <time>2014-06-11T07:15:59Z</time>
      </trkpt>
      <trkpt lat="49.22207" lon="6.97098">
        <ele>225.5</ele>
        <time>2014-06-11T07:16:04Z</time>
      </trkpt>
      <trkpt lat="49.22211" lon="6.97105">
        <ele>224.9</ele>
        <time>2014-06-11T07:16:09Z</time>
      </trkpt>
      <trkpt lat="49.22215" lon="6.97112">
        <ele>225.4</ele>
        <time>2014-06-11T07:16:14Z</time>
      </trkpt>
      <trkpt lat="49.22219" lon="6.97116">
        <ele>225.6</ele>
        <time>2014-06-11T07:16:19Z</time>
      </trkpt>
      <trkpt lat="49.22222" lon="6.97118">
        <ele>225.9</ele>
        <time>2014-06-11T07:16:24Z</time>
      </trkpt>
      <trkpt lat="49.22225" lon="6.97118">
        <ele>225.7</ele>
        <time>2014-06-11T07:16:29Z</time>
      </trkpt>
      <trkpt lat="49.22227" lon="6.97116">
        <ele>225.9</ele>
        <time>2014-06-11T07:16:34Z</time>
      </trkpt>
      <trkpt lat="49.2223" lon="6.97114">
        <ele>225.4</ele>
        <time>2014-06-11T07:16:39Z</time>
      </trkpt>
      <trkpt lat="49.22233" lon="6.97108">
        <ele>225.1</ele>
        <time>2014-06-11T07:16:44Z</time>
      </trkpt>
      <trkpt lat="49.22234" lon="6.97104">
        <ele>225.2</ele>
        <time>2014-06-11T07:16:49Z</time>
      </trkpt>
      <trkpt lat="49.2224" lon="6.97093">
        <ele>225.6</ele>
        <time>2014-06-11T07:16:59Z</time>
      </trkpt>
      <trkpt lat="49.22244" lon="6.97093">
        <ele>225.3</ele>
        <time>2014-06-11T07:17:04Z</time>
      </trkpt>
      <trkpt lat="49.22249" lon="6.97094">
        <ele>225.3</ele>
        <time>2014-06-11T07:17:09Z</time>
      </trkpt>
      <trkpt lat="49.22254" lon="6.97091">
        <ele>225.3</ele>
        <time>2014-06-11T07:17:14Z</time>
      </trkpt>
      <trkpt lat="49.22258" lon="6.97086">
        <ele>224.2</ele>
        <time>2014-06-11T07:17:19Z</time>
      </trkpt>
      <trkpt lat="49.22262" lon="6.97081">
        <ele>224.6</ele>
        <time>2014-06-11T07:17:24Z</time>
      </trkpt>
      <trkpt lat="49.22265" lon="6.97075">
        <ele>224.6</ele>
        <time>2014-06-11T07:17:29Z</time>
      </trkpt>
      <trkpt lat="49.22267" lon="6.9707">
        <ele>224.2</ele>
        <time>2014-06-11T07:17:34Z</time>
      </trkpt>
      <trkpt lat="49.22267" lon="6.97063">
        <ele>223.8</ele>
        <time>2014-06-11T07:17:39Z</time>
      </trkpt>
      <trkpt lat="49.22267" lon="6.97055">
        <ele>223.6</ele>
        <time>2014-06-11T07:17:44Z</time>
      </trkpt>
      <trkpt lat="49.2227" lon="6.97049">
        <ele>223.4</ele>
        <time>2014-06-11T07:17:49Z</time>
      </trkpt>
      <trkpt lat="49.22273" lon="6.97041">
        <ele>222.9</ele>
        <time>2014-06-11T07:17:54Z</time>
      </trkpt>
      <trkpt lat="49.2228" lon="6.97026">
        <ele>221.6</ele>
        <time>2014-06-11T07:18:04Z</time>
      </trkpt>
      <trkpt lat="49.22283" lon="6.97018">
        <ele>221.3</ele>
        <time>2014-06-11T07:18:09Z</time>
      </trkpt>
      <trkpt lat="49.22286" lon="6.97011">
        <ele>221.3</ele>
        <time>2014-06-11T07:18:14Z</time>
      </trkpt>
      <trkpt lat="49.22289" lon="6.97003">
        <ele>221.2</ele>
        <time>2014-06-11T07:18:19Z</time>
      </trkpt>
      <trkpt lat="49.22292" lon="6.96996">
        <ele>220.7</ele>
        <time>2014-06-11T07:18:24Z</time>
      </trkpt>
      <trkpt lat="49.22297" lon="6.96987">
        <ele>220.6</ele>
        <time>2014-06-11T07:18:29Z</time>
      </trkpt>
      <trkpt lat="49.22302" lon="6.96979">
        <ele>221.1</ele>
        <time>2014-06-11T07:18:34Z</time>
      </trkpt>
      <trkpt lat="49.22306" lon="6.96972">
        <ele>221</ele>
        <time>2014-06-11T07:18:39Z</time>
      </trkpt>
      <trkpt lat="49.22309" lon="6.96968">
        <ele>220.6</ele>
        <time>2014-06-11T07:18:44Z</time>
      </trkpt>
      <trkpt lat="49.22313" lon="6.96963">
        <ele>220.5</ele>
        <time>2014-06-11T07:18:49Z</time>
      </trkpt>
      <trkpt lat="49.22317" lon="6.96959">
        <ele>220</ele>
        <time>2014-06-11T07:18:54Z</time>
      </trkpt>
      <trkpt lat="49.22322" lon="6.96954">
        <ele>219.6</ele>
        <time>2014-06-11T07:18:59Z</time>
      </trkpt>
      <trkpt lat="49.22333" lon="6.96945">
        <ele>221.1</ele>
        <time>2014-06-11T07:19:09Z</time>
      </trkpt>
      <trkpt lat="49.22337" lon="6.9694">
        <ele>220.9</ele>
        <time>2014-06-11T07:19:14Z</time>
      </trkpt>
      <trkpt lat="49.22342" lon="6.96937">
        <ele>220.6</ele>
        <time>2014-06-11T07:19:19Z</time>
      </trkpt>
      <trkpt lat="49.22347" lon="6.96933">
        <ele>220.3</ele>
        <time>2014-06-11T07:19:24Z</time>
      </trkpt>
      <trkpt lat="49.22352" lon="6.9693">
        <ele>219.9</ele>
        <time>2014-06-11T07:19:29Z</time>
      </trkpt>
      <trkpt lat="49.22358" lon="6.96925">
        <ele>219.8</ele>
        <time>2014-06-11T07:19:34Z</time>
      </trkpt>
      <trkpt lat="49.22364" lon="6.9692">
        <ele>219.4</ele>
        <time>2014-06-11T07:19:39Z</time>
      </trkpt>
      <trkpt lat="49.22369" lon="6.96915">
        <ele>219.3</ele>
        <time>2014-06-11T07:19:44Z</time>
      </trkpt>
      <trkpt lat="49.22374" lon="6.9691">
        <ele>219.4</ele>
        <time>2014-06-11T07:19:49Z</time>
      </trkpt>
      <trkpt lat="49.22378" lon="6.96904">
        <ele>219.8</ele>
        <time>2014-06-11T07:19:54Z</time>
      </trkpt>
      <trkpt lat="49.22382" lon="6.96898">
        <ele>220</ele>
        <time>2014-06-11T07:19:59Z</time>
      </trkpt>
      <trkpt lat="49.22385" lon="6.96892">
        <ele>219</ele>
        <time>2014-06-11T07:20:04Z</time>
      </trkpt>
      <trkpt lat="49.22394" lon="6.9688">
        <ele>219</ele>
        <time>2014-06-11T07:20:14Z</time>
      </trkpt>
      <trkpt lat="49.22399" lon="6.96874">
        <ele>219.9</ele>
        <time>2014-06-11T07:20:19Z</time>
      </trkpt>
      <trkpt lat="49.22404" lon="6.96867">
        <ele>220.1</ele>
        <time>2014-06-11T07:20:24Z</time>
      </trkpt>
      <trkpt lat="49.22408" lon="6.9686">
        <ele>219.8</ele>
        <time>2014-06-11T07:20:29Z</time>
      </trkpt>
      <trkpt lat="49.22414" lon="6.96854">
        <ele>219.3</ele>
        <time>2014-06-11T07:20:34Z</time>
      </trkpt>
      <trkpt lat="49.22421" lon="6.96849">
        <ele>220</ele>
        <time>2014-06-11T07:20:39Z</time>
      </trkpt>
      <trkpt lat="49.22427" lon="6.96845">
        <ele>220.1</ele>
        <time>2014-06-11T07:20:44Z</time>
      </trkpt>
      <trkpt lat="49.22432" lon="6.9684">
        <ele>219.1</ele>
        <time>2014-06-11T07:20:49Z</time>
      </trkpt>
      <trkpt lat="49.22435" lon="6.96833">
        <ele>218.4</ele>
        <time>2014-06-11T07:20:54Z</time>
      </trkpt>
      <trkpt lat="49.22438" lon="6.96828">
        <ele>218.7</ele>
        <time>2014-06-11T07:20:59Z</time>
      </trkpt>
      <trkpt lat="49.2244" lon="6.96822">
        <ele>218.1</ele>
        <time>2014-06-11T07:21:04Z</time>
      </trkpt>
      <trkpt lat="49.22444" lon="6.96819">
        <ele>218.6</ele>
        <time>2014-06-11T07:21:09Z</time>
      </trkpt>
      <trkpt lat="49.22446" lon="6.96806">
        <ele>217.9</ele>
        <time>2014-06-11T07:21:19Z</time>
      </trkpt>
      <trkpt lat="49.22448" lon="6.968">
        <ele>218</ele>
        <time>2014-06-11T07:21:24Z</time>
      </trkpt>
      <trkpt lat="49.22449" lon="6.96792">
        <ele>218</ele>
        <time>2014-06-11T07:21:29Z</time>
      </trkpt>
      <trkpt lat="49.2245" lon="6.96782">
        <ele>218.2</ele>
        <time>2014-06-11T07:21:34Z</time>
      </trkpt>
      <trkpt lat="49.2245" lon="6.96772">
        <ele>217.5</ele>
        <time>2014-06-11T07:21:39Z</time>
      </trkpt>
      <trkpt lat="49.22451" lon="6.96763">
        <ele>217.6</ele>
        <time>2014-06-11T07:21:44Z</time>
      </trkpt>
      <trkpt lat="49.22452" lon="6.96753">
        <ele>216.8</ele>
        <time>2014-06-11T07:21:49Z</time>
      </trkpt>
      <trkpt lat="49.22452" lon="6.96743">
        <ele>216.7</ele>
        <time>2014-06-11T07:21:54Z</time>
      </trkpt>
      <trkpt lat="49.22454" lon="6.96735">
        <ele>216.5</ele>
        <time>2014-06-11T07:21:59Z</time>
      </trkpt>
      <trkpt lat="49.22455" lon="6.96726">
        <ele>216.5</ele>
        <time>2014-06-11T07:22:04Z</time>
      </trkpt>
      <trkpt lat="49.22458" lon="6.96717">
        <ele>215.8</ele>
        <time>2014-06-11T07:22:09Z</time>
      </trkpt>
      <trkpt lat="49.22461" lon="6.96709">
        <ele>215.8</ele>
        <time>2014-06-11T07:22:14Z</time>
      </trkpt>
      <trkpt lat="49.22464" lon="6.96691">
        <ele>214.9</ele>
        <time>2014-06-11T07:22:24Z</time>
      </trkpt>
      <trkpt lat="49.22466" lon="6.96682">
        <ele>214.9</ele>
        <time>2014-06-11T07:22:29Z</time>
      </trkpt>
      <trkpt lat="49.22467" lon="6.96674">
        <ele>215.1</ele>
        <time>2014-06-11T07:22:34Z</time>
      </trkpt>
      <trkpt lat="49.22469" lon="6.96666">
        <ele>214.5</ele>
        <time>2014-06-11T07:22:39Z</time>
      </trkpt>
      <trkpt lat="49.22472" lon="6.96657">
        <ele>213.7</ele>
        <time>2014-06-11T07:22:44Z</time>
      </trkpt>
      <trkpt lat="49.22474" lon="6.96648">
        <ele>213.5</ele>
        <time>2014-06-11T07:22:49Z</time>
      </trkpt>
      <trkpt lat="49.22477" lon="6.96641">
        <ele>214.1</ele>
        <time>2014-06-11T07:22:54Z</time>
      </trkpt>
      <trkpt lat="49.22479" lon="6.96634">
        <ele>213.9</ele>
        <time>2014-06-11T07:22:59Z</time>
      </trkpt>
      <trkpt lat="49.22482" lon="6.96627">
        <ele>213.3</ele>
        <time>2014-06-11T07:23:04Z</time>
      </trkpt>
      <trkpt lat="49.22486" lon="6.96621">
        <ele>213.8</ele>
        <time>2014-06-11T07:23:09Z</time>
      </trkpt>
      <trkpt lat="49.22489" lon="6.96613">
        <ele>213.8</ele>
        <time>2014-06-11T07:23:14Z</time>
      </trkpt>
      <trkpt lat="49.22492" lon="6.96606">
        <ele>213.6</ele>
        <time>2014-06-11T07:23:19Z</time>
      </trkpt>
      <trkpt lat="49.225" lon="6.96591">
        <ele>212.7</ele>
        <time>2014-06-11T07:23:29Z</time>
      </trkpt>
      <trkpt lat="49.22503" lon="6.96583">
        <ele>213</ele>
        <time>2014-06-11T07:23:34Z</time>
      </trkpt>
      <trkpt lat="49.22506" lon="6.96575">
        <ele>213.1</ele>
        <time>2014-06-11T07:23:39Z</time>
      </trkpt>
      <trkpt lat="49.22508" lon="6.96567">
        <ele>212.6</ele>
        <time>2014-06-11T07:23:44Z</time>
      </trkpt>
      <trkpt lat="49.22511" lon="6.96558">
        <ele>213</ele>
        <time>2014-06-11T07:23:49Z</time>
      </trkpt>
      <trkpt lat="49.22514" lon="6.9655">
        <ele>212.7</ele>
        <time>2014-06-11T07:23:54Z</time>
      </trkpt>
      <trkpt lat="49.22518" lon="6.96542">
        <ele>212.8</ele>
        <time>2014-06-11T07:23:59Z</time>
      </trkpt>
      <trkpt lat="49.2252" lon="6.96533">
        <ele>212.6</ele>
        <time>2014-06-11T07:24:04Z</time>
      </trkpt>
      <trkpt lat="49.22522" lon="6.96526">
        <ele>212</ele>
        <time>2014-06-11T07:24:09Z</time>
      </trkpt>
      <trkpt lat="49.22525" lon="6.96517">
        <ele>212</ele>
        <time>2014-06-11T07:24:14Z</time>
      </trkpt>
      <trkpt lat="49.22528" lon="6.96509">
        <ele>212.1</ele>
        <time>2014-06-11T07:24:19Z</time>
      </trkpt>
      <trkpt lat="49.22532" lon="6.96501">
        <ele>211.8</ele>
        <time>2014-06-11T07:24:24Z</time>
      </trkpt>
      <trkpt lat="49.2254" lon="6.96486">
        <ele>210.9</ele>
        <time>2014-06-11T07:24:34Z</time>
      </trkpt>
      <trkpt lat="49.22543" lon="6.96479">
        <ele>211.8</ele>
        <time>2014-06-11T07:24:39Z</time>
      </trkpt>
      <trkpt lat="49.22547" lon="6.96473">
        <ele>211.3</ele>
        <time>2014-06-11T07:24:44Z</time>
      </trkpt>
      <trkpt lat="49.2255" lon="6.96467">
        <ele>210.5</ele>
        <time>2014-06-11T07:24:49Z</time>
      </trkpt>
      <trkpt lat="49.22553" lon="6.96461">
        <ele>210.4</ele>
        <time>2014-06-11T07:24:54Z</time>
      </trkpt>
      <trkpt lat="49.22557" lon="6.96455">
        <ele>210.5</ele>
        <time>2014-06-11T07:24:59Z</time>
      </trkpt>
      <trkpt lat="49.22563" lon="6.96448">
        <ele>209.3</ele>
        <time>2014-06-11T07:25:04Z</time>
      </trkpt>
      <trkpt lat="49.22568" lon="6.96443">
        <ele>209</ele>
        <time>2014-06-11T07:25:09Z</time>
      </trkpt>
      <trkpt lat="49.22572" lon="6.96437">
        <ele>209.1</ele>
        <time>2014-06-11T07:25:14Z</time>
      </trkpt>
      <trkpt lat="49.22577" lon="6.96431">
        <ele>209.1</ele>
        <time>2014-06-11T07:25:19Z</time>
      </trkpt>
      <trkpt lat="49.22582" lon="6.96426">
        <ele>208.5</ele>
        <time>2014-06-11T07:25:24Z</time>
      </trkpt>
      <trkpt lat="49.22589" lon="6.96423">
        <ele>208.7</ele>
        <time>2014-06-11T07:25:29Z</time>
      </trkpt>
      <trkpt lat="49.22602" lon="6.96418">
        <ele>209.2</ele>
        <time>2014-06-11T07:25:39Z</time>
      </trkpt>
      <trkpt lat="49.22608" lon="6.96418">
        <ele>208.8</ele>
        <time>2014-06-11T07:25:44Z</time>
      </trkpt>
      <trkpt lat="49.22614" lon="6.96415">
        <ele>208.7</ele>
        <time>2014-06-11T07:25:49Z</time>
      </trkpt>
      <trkpt lat="49.2262" lon="6.96413">
        <ele>208.2</ele>
        <time>2014-06-11T07:25:54Z</time>
      </trkpt>
      <trkpt lat="49.22626" lon="6.96412">
        <ele>208.5</ele>
        <time>2014-06-11T07:25:59Z</time>
      </trkpt>
      <trkpt lat="49.22631" lon="6.9641">
        <ele>209.2</ele>
        <time>2014-06-11T07:26:04Z</time>
      </trkpt>
      <trkpt lat="49.22636" lon="6.96408">
        <ele>209.6</ele>
        <time>2014-06-11T07:26:09Z</time>
      </trkpt>
      <trkpt lat="49.22642" lon="6.96406">
        <ele>209</ele>
        <time>2014-06-11T07:26:14Z</time>
      </trkpt>
      <trkpt lat="49.22648" lon="6.96405">
        <ele>209.6</ele>
        <time>2014-06-11T07:26:19Z</time>
      </trkpt>
      <trkpt lat="49.22653" lon="6.96405">
        <ele>209.6</ele>
        <time>2014-06-11T07:26:24Z</time>
      </trkpt>
      <trkpt lat="49.22658" lon="6.96405">
        <ele>209</ele>
        <time>2014-06-11T07:26:29Z</time>
      </trkpt>
      <trkpt lat="49.22664" lon="6.96404">
        <ele>210.1</ele>
        <time>2014-06-11T07:26:34Z</time>
      </trkpt>
      <trkpt lat="49.22676" lon="6.96402">
        <ele>209.6</ele>
        <time>2014-06-11T07:26:44Z</time>
      </trkpt>
      <trkpt lat="49.22681" lon="6.96402">
        <ele>210.6</ele>
        <time>2014-06-11T07:26:49Z</time>
      </trkpt>
      <trkpt lat="49.22688" lon="6.96401">
        <ele>210.4</ele>
        <time>2014-06-11T07:26:54Z</time>
      </trkpt>
      <trkpt lat="49.22693" lon="6.964">
        <ele>210.3</ele>
        <time>2014-06-11T07:26:59Z</time>
      </trkpt>
      <trkpt lat="49.22701" lon="6.964">
        <ele>211.1</ele>
        <time>2014-06-11T07:27:04Z</time>
      </trkpt>
      <trkpt lat="49.22706" lon="6.96399">
        <ele>211.1</ele>
        <time>2014-06-11T07:27:09Z</time>
      </trkpt>
      <trkpt lat="49.22713" lon="6.96398">
        <ele>210.6</ele>
        <time>2014-06-11T07:27:14Z</time>
      </trkpt>
      <trkpt lat="49.22717" lon="6.96396">
        <ele>212</ele>
        <time>2014-06-11T07:27:19Z</time>
      </trkpt>
      <trkpt lat="49.22722" lon="6.96396">
        <ele>211.8</ele>
        <time>2014-06-11T07:27:24Z</time>
      </trkpt>
      <trkpt lat="49.22727" lon="6.96394">
        <ele>212.2</ele>
        <time>2014-06-11T07:27:29Z</time>
      </trkpt>
      <trkpt lat="49.22733" lon="6.96392">
        <ele>212</ele>
        <time>2014-06-11T07:27:34Z</time>
      </trkpt>
      <trkpt lat="49.22738" lon="6.96388">
        <ele>212.2</ele>
        <time>2014-06-11T07:27:39Z</time>
      </trkpt>
      <trkpt lat="49.22749" lon="6.96383">
        <ele>212.6</ele>
        <time>2014-06-11T07:27:49Z</time>
      </trkpt>
      <trkpt lat="49.22754" lon="6.9638">
        <ele>212.8</ele>
        <time>2014-06-11T07:27:54Z</time>
      </trkpt>
      <trkpt lat="49.22758" lon="6.96377">
        <ele>212</ele>
        <time>2014-06-11T07:27:59Z</time>
      </trkpt>
      <trkpt lat="49.22764" lon="6.96372">
        <ele>212.2</ele>
        <time>2014-06-11T07:28:04Z</time>
      </trkpt>
      <trkpt lat="49.22769" lon="6.96368">
        <ele>212.2</ele>
        <time>2014-06-11T07:28:09Z</time>
      </trkpt>
      <trkpt lat="49.22774" lon="6.96364">
        <ele>212</ele>
        <time>2014-06-11T07:28:14Z</time>
      </trkpt>
      <trkpt lat="49.22779" lon="6.96361">
        <ele>211.7</ele>
        <time>2014-06-11T07:28:19Z</time>
      </trkpt>
      <trkpt lat="49.22783" lon="6.96356">
        <ele>212.5</ele>
        <time>2014-06-11T07:28:24Z</time>
      </trkpt>
      <trkpt lat="49.22788" lon="6.96352">
        <ele>212.3</ele>
        <time>2014-06-11T07:28:29Z</time>
      </trkpt>
      <trkpt lat="49.22794" lon="6.96347">
        <ele>211.9</ele>
        <time>2014-06-11T07:28:34Z</time>
      </trkpt>
      <trkpt lat="49.228" lon="6.96344">
        <ele>212.2</ele>
        <time>2014-06-11T07:28:39Z</time>
      </trkpt>
      <trkpt lat="49.22805" lon="6.9634">
        <ele>211.6</ele>
        <time>2014-06-11T07:28:44Z</time>
      </trkpt>
      <trkpt lat="49.22815" lon="6.96333">
        <ele>210.2</ele>
        <time>2014-06-11T07:28:54Z</time>
      </trkpt>
      <trkpt lat="49.2282" lon="6.96329">
        <ele>210.9</ele>
        <time>2014-06-11T07:28:59Z</time>
      </trkpt>
      <trkpt lat="49.22825" lon="6.96327">
        <ele>210.6</ele>
        <time>2014-06-11T07:29:04Z</time>
      </trkpt>
      <trkpt lat="49.22831" lon="6.96322">
        <ele>210.4</ele>
        <time>2014-06-11T07:29:09Z</time>
      </trkpt>
      <trkpt lat="49.22836" lon="6.96319">
        <ele>210.6</ele>
        <time>2014-06-11T07:29:14Z</time>
      </trkpt>
      <trkpt lat="49.22842" lon="6.96316">
        <ele>210.4</ele>
        <time>2014-06-11T07:29:19Z</time>
      </trkpt>
      <trkpt lat="49.22848" lon="6.96313">
        <ele>210.1</ele>
        <time>2014-06-11T07:29:24Z</time>
      </trkpt>
      <trkpt lat="49.22854" lon="6.96311">
        <ele>209.2</ele>
        <time>2014-06-11T07:29:29Z</time>
      </trkpt>
      <trkpt lat="49.22861" lon="6.96309">
        <ele>209.5</ele>
        <time>2014-06-11T07:29:34Z</time>
      </trkpt>
      <trkpt lat="49.22867" lon="6.96307">
        <ele>209.1</ele>
        <time>2014-06-11T07:29:39Z</time>
      </trkpt>
      <trkpt lat="49.22873" lon="6.96305">
        <ele>208.6</ele>
        <time>2014-06-11T07:29:44Z</time>
      </trkpt>
      <trkpt lat="49.22878" lon="6.96301">
        <ele>208.4</ele>
        <time>2014-06-11T07:29:49Z</time>
      </trkpt>
      <trkpt lat="49.22886" lon="6.96297">
        <ele>208</ele>
        <time>2014-06-11T07:29:59Z</time>
      </trkpt>
      <trkpt lat="49.22891" lon="6.96295">
        <ele>208.2</ele>
        <time>2014-06-11T07:30:04Z</time>
      </trkpt>
      <trkpt lat="49.22897" lon="6.96293">
        <ele>207.5</ele>
        <time>2014-06-11T07:30:09Z</time>
      </trkpt>
      <trkpt lat="49.22902" lon="6.96292">
        <ele>207.3</ele>
        <time>2014-06-11T07:30:14Z</time>
      </trkpt>
      <trkpt lat="49.22908" lon="6.9629">
        <ele>207</ele>
        <time>2014-06-11T07:30:19Z</time>
      </trkpt>
      <trkpt lat="49.22914" lon="6.96289">
        <ele>206.7</ele>
        <time>2014-06-11T07:30:24Z</time>
      </trkpt>
      <trkpt lat="49.2292" lon="6.96284">
        <ele>206.2</ele>
        <time>2014-06-11T07:30:29Z</time>
      </trkpt>
      <trkpt lat="49.22924" lon="6.96279">
        <ele>206.7</ele>
        <time>2014-06-11T07:30:34Z</time>
      </trkpt>
      <trkpt lat="49.22926" lon="6.96274">
        <ele>206.5</ele>
        <time>2014-06-11T07:30:39Z</time>
      </trkpt>
      <trkpt lat="49.22928" lon="6.96268">
        <ele>206.6</ele>
        <time>2014-06-11T07:30:44Z</time>
      </trkpt>
      <trkpt lat="49.2293" lon="6.96262">
        <ele>205.5</ele>
        <time>2014-06-11T07:30:49Z</time>
      </trkpt>
      <trkpt lat="49.22932" lon="6.96256">
        <ele>204.9</ele>
        <time>2014-06-11T07:30:54Z</time>
      </trkpt>
      <trkpt lat="49.22936" lon="6.96242">
        <ele>204.9</ele>
        <time>2014-06-11T07:31:04Z</time>
      </trkpt>
      <trkpt lat="49.22937" lon="6.96235">
        <ele>203.9</ele>
        <time>2014-06-11T07:31:09Z</time>
      </trkpt>
      <trkpt lat="49.22937" lon="6.96227">
        <ele>204.1</ele>
        <time>2014-06-11T07:31:14Z</time>
      </trkpt>
      <trkpt lat="49.22937" lon="6.96219">
        <ele>204.1</ele>
        <time>2014-06-11T07:31:19Z</time>
      </trkpt>
      <trkpt lat="49.22936" lon="6.96211">
        <ele>203.2</ele>
        <time>2014-06-11T07:31:24Z</time>
      </trkpt>
      <trkpt lat="49.22934" lon="6.96203">
        <ele>203.4</ele>
        <time>2014-06-11T07:31:29Z</time>
      </trkpt>
      <trkpt lat="49.22932" lon="6.96194">
        <ele>203.1</ele>
        <time>2014-06-11T07:31:34Z</time>
      </trkpt>
      <trkpt lat="49.22929" lon="6.96187">
        <ele>203.5</ele>
        <time>2014-06-11T07:31:39Z</time>
      </trkpt>
      <trkpt lat="49.22927" lon="6.96183">
        <ele>204</ele>
        <time>2014-06-11T07:31:44Z</time>
      </trkpt>
      <trkpt lat="49.22926" lon="6.9618">
        <ele>203.3</ele>
        <time>2014-06-11T07:31:49Z</time>
      </trkpt>
      <trkpt lat="49.22925" lon="6.96177">
        <ele>203.4</ele>
        <time>2014-06-11T07:31:54Z</time>
      </trkpt>
      <trkpt lat="49.22925" lon="6.96176">
        <ele>203.4</ele>
        <time>2014-06-11T07:31:59Z</time>
      </trkpt>
      <trkpt lat="49.22925" lon="6.96176">
        <ele>203.6</ele>
        <time>2014-06-11T07:32:09Z</time>
      </trkpt>
      <trkpt lat="49.22926" lon="6.96173">
        <ele>203.2</ele>
        <time>2014-06-11T07:32:14Z</time>
      </trkpt>
      <trkpt lat="49.22926" lon="6.96173">
        <ele>203.1</ele>
        <time>2014-06-11T07:32:19Z</time>
      </trkpt>
      <trkpt lat="49.22927" lon="6.96172">
        <ele>203.3</ele>
        <time>2014-06-11T07:32:24Z</time>
      </trkpt>
      <trkpt lat="49.22927" lon="6.96171">
        <ele>203.6</ele>
        <time>2014-06-11T07:32:29Z</time>
      </trkpt>
      <trkpt lat="49.22927" lon="6.9617">
        <ele>203.3</ele>
        <time>2014-06-11T07:32:34Z</time>
      </trkpt>
      <trkpt lat="49.22926" lon="6.96169">
        <ele>203.8</ele>
        <time>2014-06-11T07:32:39Z</time>
      </trkpt>
      <trkpt lat="49.22926" lon="6.96169">
        <ele>203.6</ele>
        <time>2014-06-11T07:32:44Z</time>
      </trkpt>
      <trkpt lat="49.22926" lon="6.96169">
        <ele>203</ele>
        <time>2014-06-11T07:32:49Z</time>
      </trkpt>
      <trkpt lat="49.22926" lon="6.96168">
        <ele>203.5</ele>
        <time>2014-06-11T07:32:54Z</time>
      </trkpt>
      <trkpt lat="49.22926" lon="6.96168">
        <ele>203.7</ele>
        <time>2014-06-11T07:32:59Z</time>
      </trkpt>
      <trkpt lat="49.22926" lon="6.96167">
        <ele>203.7</ele>
        <time>2014-06-11T07:33:04Z</time>
      </trkpt>
      <trkpt lat="49.22926" lon="6.96166">
        <ele>203.2</ele>
        <time>2014-06-11T07:33:14Z</time>
      </trkpt>
      <trkpt lat="49.22927" lon="6.96166">
        <ele>203.3</ele>
        <time>2014-06-11T07:33:19Z</time>
      </trkpt>
      <trkpt lat="49.22927" lon="6.96166">
        <ele>203.5</ele>
        <time>2014-06-11T07:33:24Z</time>
      </trkpt>
      <trkpt lat="49.22927" lon="6.96167">
        <ele>203</ele>
        <time>2014-06-11T07:33:29Z</time>
      </trkpt>
      <trkpt lat="49.22927" lon="6.96167">
        <ele>203.2</ele>
        <time>2014-06-11T07:33:34Z</time>
      </trkpt>
      <trkpt lat="49.22927" lon="6.96167">
        <ele>203.5</ele>
        <time>2014-06-11T07:33:39Z</time>
      </trkpt>
      <trkpt lat="49.22926" lon="6.96165">
        <ele>203.6</ele>
        <time>2014-06-11T07:33:44Z</time>
      </trkpt>
      <trkpt lat="49.22926" lon="6.96165">
        <ele>203.6</ele>
        <time>2014-06-11T07:33:49Z</time>
      </trkpt>
      <trkpt lat="49.22926" lon="6.96165">
        <ele>203.8</ele>
        <time>2014-06-11T07:33:54Z</time>
      </trkpt>
      <trkpt lat="49.22926" lon="6.96166">
        <ele>203.6</ele>
        <time>2014-06-11T07:33:59Z</time>
      </trkpt>
      <trkpt lat="49.22926" lon="6.96167">
        <ele>203.3</ele>
        <time>2014-06-11T07:34:04Z</time>
      </trkpt>
      <trkpt lat="49.22926" lon="6.96165">
        <ele>203.7</ele>
        <time>2014-06-11T07:34:09Z</time>
      </trkpt>
      <trkpt lat="49.22933" lon="6.9616">
        <ele>203.5</ele>
        <time>2014-06-11T07:34:19Z</time>
      </trkpt>
      <trkpt lat="49.22936" lon="6.96158">
        <ele>203.5</ele>
        <time>2014-06-11T07:34:24Z</time>
      </trkpt>
      <trkpt lat="49.2294" lon="6.96156">
        <ele>203.8</ele>
        <time>2014-06-11T07:34:29Z</time>
      </trkpt>
      <trkpt lat="49.22944" lon="6.96152">
        <ele>203.6</ele>
        <time>2014-06-11T07:34:34Z</time>
      </trkpt>
      <trkpt lat="49.22948" lon="6.96149">
        <ele>203.3</ele>
        <time>2014-06-11T07:34:39Z</time>
      </trkpt>
      <trkpt lat="49.22953" lon="6.96147">
        <ele>203.7</ele>
        <time>2014-06-11T07:34:44Z</time>
      </trkpt>
      <trkpt lat="49.22959" lon="6.96146">
        <ele>202.9</ele>
        <time>2014-06-11T07:34:49Z</time>
      </trkpt>
      <trkpt lat="49.22964" lon="6.96146">
        <ele>202.6</ele>
        <time>2014-06-11T07:34:54Z</time>
      </trkpt>
      <trkpt lat="49.22967" lon="6.96142">
        <ele>203.2</ele>
        <time>2014-06-11T07:34:59Z</time>
      </trkpt>
      <trkpt lat="49.22971" lon="6.96135">
        <ele>203</ele>
        <time>2014-06-11T07:35:04Z</time>
      </trkpt>
      <trkpt lat="49.22974" lon="6.96129">
        <ele>203.7</ele>
        <time>2014-06-11T07:35:09Z</time>
      </trkpt>
      <trkpt lat="49.22975" lon="6.96122">
        <ele>203</ele>
        <time>2014-06-11T07:35:14Z</time>
      </trkpt>
      <trkpt lat="49.22967" lon="6.96112">
        <ele>202.6</ele>
        <time>2014-06-11T07:35:24Z</time>
      </trkpt>
      <trkpt lat="49.22962" lon="6.96108">
        <ele>203.6</ele>
        <time>2014-06-11T07:35:29Z</time>
      </trkpt>
      <trkpt lat="49.22956" lon="6.96105">
        <ele>203.7</ele>
        <time>2014-06-11T07:35:34Z</time>
      </trkpt>
      <trkpt lat="49.2295" lon="6.96104">
        <ele>203.8</ele>
        <time>2014-06-11T07:35:39Z</time>
      </trkpt>
      <trkpt lat="49.22944" lon="6.96102">
        <ele>204.1</ele>
        <time>2014-06-11T07:35:44Z</time>
      </trkpt>
      <trkpt lat="49.22939" lon="6.96101">
        <ele>203.9</ele>
        <time>2014-06-11T07:35:49Z</time>
      </trkpt>
      <trkpt lat="49.22933" lon="6.96098">
        <ele>203.2</ele>
        <time>2014-06-11T07:35:54Z</time>
      </trkpt>
      <trkpt lat="49.22927" lon="6.96097">
        <ele>204.1</ele>
        <time>2014-06-11T07:35:59Z</time>
      </trkpt>
      <trkpt lat="49.2292" lon="6.96095">
        <ele>204</ele>
        <time>2014-06-11T07:36:04Z</time>
      </trkpt>
      <trkpt lat="49.22914" lon="6.96095">
        <ele>204.5</ele>
        <time>2014-06-11T07:36:09Z</time>
      </trkpt>
      <trkpt lat="49.22907" lon="6.96096">
        <ele>204.8</ele>
        <time>2014-06-11T07:36:14Z</time>
      </trkpt>
      <trkpt lat="49.22901" lon="6.96095">
        <ele>204.3</ele>
        <time>2014-06-11T07:36:19Z</time>
      </trkpt>
      <trkpt lat="49.22889" lon="6.96095">
        <ele>205.3</ele>
        <time>2014-06-11T07:36:29Z</time>
      </trkpt>
      <trkpt lat="49.22883" lon="6.96097">
        <ele>205.4</ele>
        <time>2014-06-11T07:36:34Z</time>
      </trkpt>
      <trkpt lat="49.22877" lon="6.96098">
        <ele>205.2</ele>
        <time>2014-06-11T07:36:39Z</time>
      </trkpt>
      <trkpt lat="49.22871" lon="6.96098">
        <ele>205.8</ele>
        <time>2014-06-11T07:36:44Z</time>
      </trkpt>
      <trkpt lat="49.22865" lon="6.96097">
        <ele>206.2</ele>
        <time>2014-06-11T07:36:49Z</time>
      </trkpt>
      <trkpt lat="49.22859" lon="6.96098">
        <ele>206.6</ele>
        <time>2014-06-11T07:36:54Z</time>
      </trkpt>
      <trkpt lat="49.22853" lon="6.96098">
        <ele>206.5</ele>
        <time>2014-06-11T07:36:59Z</time>
      </trkpt>
      <trkpt lat="49.22848" lon="6.96098">
        <ele>206.2</ele>
        <time>2014-06-11T07:37:04Z</time>
      </trkpt>
      <trkpt lat="49.22843" lon="6.96096">
        <ele>207.2</ele>
        <time>2014-06-11T07:37:09Z</time>
      </trkpt>
      <trkpt lat="49.22839" lon="6.96093">
        <ele>207.3</ele>
        <time>2014-06-11T07:37:14Z</time>
      </trkpt>
      <trkpt lat="49.22835" lon="6.96089">
        <ele>207.1</ele>
        <time>2014-06-11T07:37:19Z</time>
      </trkpt>
      <trkpt lat="49.22829" lon="6.96087">
        <ele>207.9</ele>
        <time>2014-06-11T07:37:24Z</time>
      </trkpt>
      <trkpt lat="49.22818" lon="6.96085">
        <ele>208.3</ele>
        <time>2014-06-11T07:37:34Z</time>
      </trkpt>
      <trkpt lat="49.22812" lon="6.96085">
        <ele>208.8</ele>
        <time>2014-06-11T07:37:39Z</time>
      </trkpt>
      <trkpt lat="49.22806" lon="6.96087">
        <ele>209.5</ele>
        <time>2014-06-11T07:37:44Z</time>
      </trkpt>
      <trkpt lat="49.228" lon="6.96089">
        <ele>209.9</ele>
        <time>2014-06-11T07:37:49Z</time>
      </trkpt>
      <trkpt lat="49.22795" lon="6.96091">
        <ele>210.2</ele>
        <time>2014-06-11T07:37:54Z</time>
      </trkpt>
      <trkpt lat="49.22791" lon="6.96092">
        <ele>210.2</ele>
        <time>2014-06-11T07:37:59Z</time>
      </trkpt>
      <trkpt lat="49.22786" lon="6.96091">
        <ele>211.5</ele>
        <time>2014-06-11T07:38:04Z</time>
      </trkpt>
      <trkpt lat="49.22781" lon="6.9609">
        <ele>211.4</ele>
        <time>2014-06-11T07:38:09Z</time>
      </trkpt>
      <trkpt lat="49.22776" lon="6.9609">
        <ele>211.3</ele>
        <time>2014-06-11T07:38:14Z</time>
      </trkpt>
      <trkpt lat="49.22771" lon="6.96091">
        <ele>212.3</ele>
        <time>2014-06-11T07:38:19Z</time>
      </trkpt>
      <trkpt lat="49.22766" lon="6.96091">
        <ele>212.9</ele>
        <time>2014-06-11T07:38:24Z</time>
      </trkpt>
      <trkpt lat="49.2276" lon="6.96091">
        <ele>213.7</ele>
        <time>2014-06-11T07:38:29Z</time>
      </trkpt>
      <trkpt lat="49.22749" lon="6.9609">
        <ele>214.7</ele>
        <time>2014-06-11T07:38:39Z</time>
      </trkpt>
      <trkpt lat="49.22744" lon="6.9609">
        <ele>214.8</ele>
        <time>2014-06-11T07:38:44Z</time>
      </trkpt>
      <trkpt lat="49.22738" lon="6.9609">
        <ele>214.8</ele>
        <time>2014-06-11T07:38:49Z</time>
      </trkpt>
      <trkpt lat="49.22733" lon="6.96091">
        <ele>216.1</ele>
        <time>2014-06-11T07:38:54Z</time>
      </trkpt>
      <trkpt lat="49.22727" lon="6.9609">
        <ele>215.9</ele>
        <time>2014-06-11T07:38:59Z</time>
      </trkpt>
      <trkpt lat="49.22722" lon="6.9609">
        <ele>216.8</ele>
        <time>2014-06-11T07:39:04Z</time>
      </trkpt>
      <trkpt lat="49.22716" lon="6.9609">
        <ele>217.2</ele>
        <time>2014-06-11T07:39:09Z</time>
      </trkpt>
      <trkpt lat="49.22712" lon="6.96084">
        <ele>217.4</ele>
        <time>2014-06-11T07:39:14Z</time>
      </trkpt>
      <trkpt lat="49.22709" lon="6.96078">
        <ele>217.6</ele>
        <time>2014-06-11T07:39:19Z</time>
      </trkpt>
      <trkpt lat="49.22707" lon="6.9607">
        <ele>217.9</ele>
        <time>2014-06-11T07:39:24Z</time>
      </trkpt>
      <trkpt lat="49.22706" lon="6.96062">
        <ele>219.1</ele>
        <time>2014-06-11T07:39:29Z</time>
      </trkpt>
      <trkpt lat="49.22705" lon="6.96055">
        <ele>219</ele>
        <time>2014-06-11T07:39:34Z</time>
      </trkpt>
      <trkpt lat="49.22703" lon="6.9604">
        <ele>219.2</ele>
        <time>2014-06-11T07:39:44Z</time>
      </trkpt>
      <trkpt lat="49.22705" lon="6.96034">
        <ele>218.9</ele>
        <time>2014-06-11T07:39:49Z</time>
      </trkpt>
      <trkpt lat="49.22707" lon="6.96028">
        <ele>218.7</ele>
        <time>2014-06-11T07:39:54Z</time>
      </trkpt>
      <trkpt lat="49.2271" lon="6.96023">
        <ele>219</ele>
        <time>2014-06-11T07:39:59Z</time>
      </trkpt>
      <trkpt lat="49.22714" lon="6.96019">
        <ele>219.7</ele>
        <time>2014-06-11T07:40:04Z</time>
      </trkpt>
      <trkpt lat="49.22718" lon="6.96016">
        <ele>220</ele>
        <time>2014-06-11T07:40:09Z</time>
      </trkpt>
      <trkpt lat="49.22722" lon="6.96014">
        <ele>219.3</ele>
        <time>2014-06-11T07:40:14Z</time>
      </trkpt>
      <trkpt lat="49.22727" lon="6.96013">
        <ele>218.9</ele>
        <time>2014-06-11T07:40:19Z</time>
      </trkpt>
      <trkpt lat="49.22734" lon="6.96013">
        <ele>219</ele>
        <time>2014-06-11T07:40:24Z</time>
      </trkpt>
      <trkpt lat="49.2274" lon="6.96014">
        <ele>220.1</ele>
        <time>2014-06-11T07:40:29Z</time>
      </trkpt>
      <trkpt lat="49.22747" lon="6.96015">
        <ele>220.9</ele>
        <time>2014-06-11T07:40:34Z</time>
      </trkpt>
      <trkpt lat="49.22752" lon="6.96016">
        <ele>221.6</ele>
        <time>2014-06-11T07:40:39Z</time>
      </trkpt>
      <trkpt lat="49.22766" lon="6.96018">
        <ele>221.5</ele>
        <time>2014-06-11T07:40:49Z</time>
      </trkpt>
      <trkpt lat="49.22772" lon="6.96018">
        <ele>222.1</ele>
        <time>2014-06-11T07:40:54Z</time>
      </trkpt>
      <trkpt lat="49.22779" lon="6.96018">
        <ele>222.2</ele>
        <time>2014-06-11T07:40:59Z</time>
      </trkpt>
      <trkpt lat="49.22784" lon="6.96017">
        <ele>222.2</ele>
        <time>2014-06-11T07:41:04Z</time>
      </trkpt>
      <trkpt lat="49.2279" lon="6.96017">
        <ele>222.8</ele>
        <time>2014-06-11T07:41:09Z</time>
      </trkpt>
      <trkpt lat="49.22796" lon="6.96016">
        <ele>223</ele>
        <time>2014-06-11T07:41:14Z</time>
      </trkpt>
      <trkpt lat="49.228" lon="6.96015">
        <ele>223.1</ele>
        <time>2014-06-11T07:41:19Z</time>
      </trkpt>
      <trkpt lat="49.22805" lon="6.96014">
        <ele>223.2</ele>
        <time>2014-06-11T07:41:24Z</time>
      </trkpt>
      <trkpt lat="49.22811" lon="6.96013">
        <ele>222.9</ele>
        <time>2014-06-11T07:41:29Z</time>
      </trkpt>
      <trkpt lat="49.22816" lon="6.96012">
        <ele>222.6</ele>
        <time>2014-06-11T07:41:34Z</time>
      </trkpt>
      <trkpt lat="49.2282" lon="6.96011">
        <ele>222.4</ele>
        <time>2014-06-11T07:41:39Z</time>
      </trkpt>
      <trkpt lat="49.22825" lon="6.9601">
        <ele>222.9</ele>
        <time>2014-06-11T07:41:44Z</time>
      </trkpt>
      <trkpt lat="49.22837" lon="6.96005">
        <ele>223.2</ele>
        <time>2014-06-11T07:41:54Z</time>
      </trkpt>
      <trkpt lat="49.22844" lon="6.96002">
        <ele>222.6</ele>
        <time>2014-06-11T07:41:59Z</time>
      </trkpt>
      <trkpt lat="49.22848" lon="6.95997">
        <ele>223.4</ele>
        <time>2014-06-11T07:42:04Z</time>
      </trkpt>
      <trkpt lat="49.22852" lon="6.9599">
        <ele>223.2</ele>
        <time>2014-06-11T07:42:09Z</time>
      </trkpt>
      <trkpt lat="49.22854" lon="6.95983">
        <ele>223.3</ele>
        <time>2014-06-11T07:42:14Z</time>
      </trkpt>
      <trkpt lat="49.22854" lon="6.95977">
        <ele>223.5</ele>
        <time>2014-06-11T07:42:19Z</time>
      </trkpt>
      <trkpt lat="49.22853" lon="6.9597">
        <ele>224</ele>
        <time>2014-06-11T07:42:24Z</time>
      </trkpt>
      <trkpt lat="49.22852" lon="6.95962">
        <ele>224.6</ele>
        <time>2014-06-11T07:42:29Z</time>
      </trkpt>
      <trkpt lat="49.2285" lon="6.95955">
        <ele>223.7</ele>
        <time>2014-06-11T07:42:34Z</time>
      </trkpt>
      <trkpt lat="49.22848" lon="6.95946">
        <ele>223.4</ele>
        <time>2014-06-11T07:42:39Z</time>
      </trkpt>
      <trkpt lat="49.22846" lon="6.95938">
        <ele>223.2</ele>
        <time>2014-06-11T07:42:44Z</time>
      </trkpt>
      <trkpt lat="49.22845" lon="6.9593">
        <ele>223.4</ele>
        <time>2014-06-11T07:42:49Z</time>
      </trkpt>
      <trkpt lat="49.22843" lon="6.95913">
        <ele>223.4</ele>
        <time>2014-06-11T07:42:59Z</time>
      </trkpt>
      <trkpt lat="49.22842" lon="6.95904">
        <ele>223.6</ele>
        <time>2014-06-11T07:43:04Z</time>
      </trkpt>
      <trkpt lat="49.22842" lon="6.95895">
        <ele>223.7</ele>
        <time>2014-06-11T07:43:09Z</time>
      </trkpt>
      <trkpt lat="49.22843" lon="6.95886">
        <ele>223.1</ele>
        <time>2014-06-11T07:43:14Z</time>
      </trkpt>
      <trkpt lat="49.22846" lon="6.95878">
        <ele>223.7</ele>
        <time>2014-06-11T07:43:19Z</time>
      </trkpt>
      <trkpt lat="49.22848" lon="6.95871">
        <ele>223.6</ele>
        <time>2014-06-11T07:43:24Z</time>
      </trkpt>
      <trkpt lat="49.22851" lon="6.95864">
        <ele>223.4</ele>
        <time>2014-06-11T07:43:29Z</time>
      </trkpt>
      <trkpt lat="49.22855" lon="6.95857">
        <ele>223.9</ele>
        <time>2014-06-11T07:43:34Z</time>
      </trkpt>
      <trkpt lat="49.22858" lon="6.9585">
        <ele>223.7</ele>
        <time>2014-06-11T07:43:39Z</time>
      </trkpt>
      <trkpt lat="49.22861" lon="6.95842">
        <ele>224.2</ele>
        <time>2014-06-11T07:43:44Z</time>
      </trkpt>
      <trkpt lat="49.22861" lon="6.95835">
        <ele>224.2</ele>
        <time>2014-06-11T07:43:49Z</time>
      </trkpt>
      <trkpt lat="49.22862" lon="6.95828">
        <ele>224.2</ele>
        <time>2014-06-11T07:43:54Z</time>
      </trkpt>
      <trkpt lat="49.22862" lon="6.95811">
        <ele>224.4</ele>
        <time>2014-06-11T07:44:04Z</time>
      </trkpt>
      <trkpt lat="49.22862" lon="6.95804">
        <ele>225.1</ele>
        <time>2014-06-11T07:44:09Z</time>
      </trkpt>
      <trkpt lat="49.22862" lon="6.95796">
        <ele>225.1</ele>
        <time>2014-06-11T07:44:14Z</time>
      </trkpt>
      <trkpt lat="49.22861" lon="6.95788">
        <ele>224.8</ele>
        <time>2014-06-11T07:44:19Z</time>
      </trkpt>
      <trkpt lat="49.2286" lon="6.95779">
        <ele>224.4</ele>
        <time>2014-06-11T07:44:24Z</time>
      </trkpt>
      <trkpt lat="49.22858" lon="6.95771">
        <ele>224.4</ele>
        <time>2014-06-11T07:44:29Z</time>
      </trkpt>
      <trkpt lat="49.22856" lon="6.95763">
        <ele>224.1</ele>
        <time>2014-06-11T07:44:34Z</time>
      </trkpt>
      <trkpt lat="49.22854" lon="6.95755">
        <ele>224.7</ele>
        <time>2014-06-11T07:44:39Z</time>
      </trkpt>
      <trkpt lat="49.22852" lon="6.95745">
        <ele>224.6</ele>
        <time>2014-06-11T07:44:44Z</time>
      </trkpt>
      <trkpt lat="49.22851" lon="6.95735">
        <ele>224.7</ele>
        <time>2014-06-11T07:44:49Z</time>
      </trkpt>
      <trkpt lat="49.22849" lon="6.95726">
        <ele>226</ele>
        <time>2014-06-11T07:44:54Z</time>
      </trkpt>
      <trkpt lat="49.22846" lon="6.95717">
        <ele>225.9</ele>
        <time>2014-06-11T07:44:59Z</time>
      </trkpt>
      <trkpt lat="49.22842" lon="6.957">
        <ele>226.1</ele>
        <time>2014-06-11T07:45:09Z</time>
      </trkpt>
      <trkpt lat="49.2284" lon="6.95691">
        <ele>226.1</ele>
        <time>2014-06-11T07:45:14Z</time>
      </trkpt>
      <trkpt lat="49.22838" lon="6.95683">
        <ele>226.6</ele>
        <time>2014-06-11T07:45:19Z</time>
      </trkpt>
      <trkpt lat="49.22836" lon="6.95675">
        <ele>226.6</ele>
        <time>2014-06-11T07:45:24Z</time>
      </trkpt>
      <trkpt lat="49.22834" lon="6.95666">
        <ele>227.1</ele>
        <time>2014-06-11T07:45:29Z</time>
      </trkpt>
      <trkpt lat="49.22832" lon="6.95658">
        <ele>227.2</ele>
        <time>2014-06-11T07:45:34Z</time>
      </trkpt>
      <trkpt lat="49.2283" lon="6.95649">
        <ele>227.8</ele>
        <time>2014-06-11T07:45:39Z</time>
      </trkpt>
      <trkpt lat="49.22829" lon="6.95641">
        <ele>227.9</ele>
        <time>2014-06-11T07:45:44Z</time>
      </trkpt>
      <trkpt lat="49.22826" lon="6.95632">
        <ele>227.8</ele>
        <time>2014-06-11T07:45:49Z</time>
      </trkpt>
      <trkpt lat="49.22823" lon="6.95623">
        <ele>228.6</ele>
        <time>2014-06-11T07:45:54Z</time>
      </trkpt>
      <trkpt lat="49.22821" lon="6.95614">
        <ele>229.5</ele>
        <time>2014-06-11T07:45:59Z</time>
      </trkpt>
      <trkpt lat="49.22819" lon="6.95605">
        <ele>229.1</ele>
        <time>2014-06-11T07:46:04Z</time>
      </trkpt>
      <trkpt lat="49.22815" lon="6.95588">
        <ele>229.8</ele>
        <time>2014-06-11T07:46:14Z</time>
      </trkpt>
      <trkpt lat="49.22814" lon="6.9558">
        <ele>230</ele>
        <time>2014-06-11T07:46:19Z</time>
      </trkpt>
      <trkpt lat="49.22811" lon="6.95573">
        <ele>230.2</ele>
        <time>2014-06-11T07:46:24Z</time>
      </trkpt>
      <trkpt lat="49.2281" lon="6.95566">
        <ele>231.2</ele>
        <time>2014-06-11T07:46:29Z</time>
      </trkpt>
      <trkpt lat="49.22808" lon="6.95559">
        <ele>232.4</ele>
        <time>2014-06-11T07:46:34Z</time>
      </trkpt>
      <trkpt lat="49.22806" lon="6.95553">
        <ele>232.5</ele>
        <time>2014-06-11T07:46:39Z</time>
      </trkpt>
      <trkpt lat="49.22804" lon="6.95545">
        <ele>232.8</ele>
        <time>2014-06-11T07:46:44Z</time>
      </trkpt>
      <trkpt lat="49.22803" lon="6.95537">
        <ele>233</ele>
        <time>2014-06-11T07:46:49Z</time>
      </trkpt>
      <trkpt lat="49.22802" lon="6.95529">
        <ele>233.4</ele>
        <time>2014-06-11T07:46:54Z</time>
      </trkpt>
      <trkpt lat="49.228" lon="6.9552">
        <ele>233.9</ele>
        <time>2014-06-11T07:46:59Z</time>
      </trkpt>
      <trkpt lat="49.22798" lon="6.95512">
        <ele>234.5</ele>
        <time>2014-06-11T07:47:04Z</time>
      </trkpt>
      <trkpt lat="49.22796" lon="6.95503">
        <ele>234.9</ele>
        <time>2014-06-11T07:47:09Z</time>
      </trkpt>
      <trkpt lat="49.22791" lon="6.95486">
        <ele>235.8</ele>
        <time>2014-06-11T07:47:19Z</time>
      </trkpt>
      <trkpt lat="49.22789" lon="6.95477">
        <ele>236.1</ele>
        <time>2014-06-11T07:47:24Z</time>
      </trkpt>
      <trkpt lat="49.22787" lon="6.9547">
        <ele>236.1</ele>
        <time>2014-06-11T07:47:29Z</time>
      </trkpt>
      <trkpt lat="49.22783" lon="6.95463">
        <ele>235.9</ele>
        <time>2014-06-11T07:47:34Z</time>
      </trkpt>
      <trkpt lat="49.2278" lon="6.95458">
        <ele>236.2</ele>
        <time>2014-06-11T07:47:39Z</time>
      </trkpt>
      <trkpt lat="49.22778" lon="6.9545">
        <ele>236.6</ele>
        <time>2014-06-11T07:47:44Z</time>
      </trkpt>
      <trkpt lat="49.22775" lon="6.95442">
        <ele>237.3</ele>
        <time>2014-06-11T07:47:49Z</time>
      </trkpt>
      <trkpt lat="49.22772" lon="6.95434">
        <ele>237.3</ele>
        <time>2014-06-11T07:47:54Z</time>
      </trkpt>
      <trkpt lat="49.22769" lon="6.95425">
        <ele>238.2</ele>
        <time>2014-06-11T07:47:59Z</time>
      </trkpt>
      <trkpt lat="49.22766" lon="6.95418">
        <ele>238.1</ele>
        <time>2014-06-11T07:48:04Z</time>
      </trkpt>
      <trkpt lat="49.22762" lon="6.9541">
        <ele>238.7</ele>
        <time>2014-06-11T07:48:09Z</time>
      </trkpt>
      <trkpt lat="49.22758" lon="6.95405">
        <ele>239.4</ele>
        <time>2014-06-11T07:48:14Z</time>
      </trkpt>
      <trkpt lat="49.22748" lon="6.95396">
        <ele>238.9</ele>
        <time>2014-06-11T07:48:24Z</time>
      </trkpt>
      <trkpt lat="49.22744" lon="6.95391">
        <ele>239.4</ele>
        <time>2014-06-11T07:48:29Z</time>
      </trkpt>
      <trkpt lat="49.2274" lon="6.95386">
        <ele>239.3</ele>
        <time>2014-06-11T07:48:34Z</time>
      </trkpt>
      <trkpt lat="49.22735" lon="6.9538">
        <ele>240.7</ele>
        <time>2014-06-11T07:48:39Z</time>
      </trkpt>
      <trkpt lat="49.22731" lon="6.95374">
        <ele>240.6</ele>
        <time>2014-06-11T07:48:44Z</time>
      </trkpt>
      <trkpt lat="49.22726" lon="6.95368">
        <ele>240.8</ele>
        <time>2014-06-11T07:48:49Z</time>
      </trkpt>
      <trkpt lat="49.22721" lon="6.95364">
        <ele>241.5</ele>
        <time>2014-06-11T07:48:54Z</time>
      </trkpt>
      <trkpt lat="49.22716" lon="6.95359">
        <ele>241.4</ele>
        <time>2014-06-11T07:48:59Z</time>
      </trkpt>
      <trkpt lat="49.22711" lon="6.95354">
        <ele>241</ele>
        <time>2014-06-11T07:49:04Z</time>
      </trkpt>
      <trkpt lat="49.22706" lon="6.9535">
        <ele>242.3</ele>
        <time>2014-06-11T07:49:09Z</time>
      </trkpt>
      <trkpt lat="49.22701" lon="6.95346">
        <ele>241.8</ele>
        <time>2014-06-11T07:49:14Z</time>
      </trkpt>
      <trkpt lat="49.22695" lon="6.95343">
        <ele>242.1</ele>
        <time>2014-06-11T07:49:19Z</time>
      </trkpt>
      <trkpt lat="49.22686" lon="6.95336">
        <ele>242.6</ele>
        <time>2014-06-11T07:49:29Z</time>
      </trkpt>
      <trkpt lat="49.22681" lon="6.95332">
        <ele>243.4</ele>
        <time>2014-06-11T07:49:34Z</time>
      </trkpt>
      <trkpt lat="49.22675" lon="6.95329">
        <ele>243.1</ele>
        <time>2014-06-11T07:49:39Z</time>
      </trkpt>
      <trkpt lat="49.22669" lon="6.95326">
        <ele>243.5</ele>
        <time>2014-06-11T07:49:44Z</time>
      </trkpt>
      <trkpt lat="49.22664" lon="6.95324">
        <ele>242.9</ele>
        <time>2014-06-11T07:49:49Z</time>
      </trkpt>
      <trkpt lat="49.22659" lon="6.9532">
        <ele>242.9</ele>
        <time>2014-06-11T07:49:54Z</time>
      </trkpt>
      <trkpt lat="49.22654" lon="6.95317">
        <ele>243.5</ele>
        <time>2014-06-11T07:49:59Z</time>
      </trkpt>
      <trkpt lat="49.22649" lon="6.95312">
        <ele>243.4</ele>
        <time>2014-06-11T07:50:04Z</time>
      </trkpt>
      <trkpt lat="49.22644" lon="6.95307">
        <ele>243.4</ele>
        <time>2014-06-11T07:50:09Z</time>
      </trkpt>
      <trkpt lat="49.22641" lon="6.95301">
        <ele>244.1</ele>
        <time>2014-06-11T07:50:14Z</time>
      </trkpt>
      <trkpt lat="49.22638" lon="6.95295">
        <ele>244</ele>
        <time>2014-06-11T07:50:19Z</time>
      </trkpt>
      <trkpt lat="49.22636" lon="6.95287">
        <ele>243.8</ele>
        <time>2014-06-11T07:50:24Z</time>
      </trkpt>
      <trkpt lat="49.22629" lon="6.95271">
        <ele>243.8</ele>
        <time>2014-06-11T07:50:34Z</time>
      </trkpt>
      <trkpt lat="49.22626" lon="6.95263">
        <ele>244.2</ele>
        <time>2014-06-11T07:50:39Z</time>
      </trkpt>
      <trkpt lat="49.22623" lon="6.95256">
        <ele>244.6</ele>
        <time>2014-06-11T07:50:44Z</time>
      </trkpt>
      <trkpt lat="49.2262" lon="6.95247">
        <ele>245.1</ele>
        <time>2014-06-11T07:50:49Z</time>
      </trkpt>
      <trkpt lat="49.22616" lon="6.9524">
        <ele>246</ele>
        <time>2014-06-11T07:50:54Z</time>
      </trkpt>
      <trkpt lat="49.22612" lon="6.95232">
        <ele>245.8</ele>
        <time>2014-06-11T07:50:59Z</time>
      </trkpt>
      <trkpt lat="49.22608" lon="6.95225">
        <ele>246.2</ele>
        <time>2014-06-11T07:51:04Z</time>
      </trkpt>
      <trkpt lat="49.22604" lon="6.95219">
        <ele>246.6</ele>
        <time>2014-06-11T07:51:09Z</time>
      </trkpt>
      <trkpt lat="49.22599" lon="6.95214">
        <ele>246.3</ele>
        <time>2014-06-11T07:51:14Z</time>
      </trkpt>
      <trkpt lat="49.22594" lon="6.9521">
        <ele>246.7</ele>
        <time>2014-06-11T07:51:19Z</time>
      </trkpt>
      <trkpt lat="49.22589" lon="6.95207">
        <ele>246.4</ele>
        <time>2014-06-11T07:51:24Z</time>
      </trkpt>
      <trkpt lat="49.22584" lon="6.95202">
        <ele>246.7</ele>
        <time>2014-06-11T07:51:29Z</time>
      </trkpt>
      <trkpt lat="49.22574" lon="6.95195">
        <ele>247.3</ele>
        <time>2014-06-11T07:51:39Z</time>
      </trkpt>
      <trkpt lat="49.22569" lon="6.9519">
        <ele>247.2</ele>
        <time>2014-06-11T07:51:44Z</time>
      </trkpt>
      <trkpt lat="49.22565" lon="6.95184">
        <ele>247.5</ele>
        <time>2014-06-11T07:51:49Z</time>
      </trkpt>
      <trkpt lat="49.22561" lon="6.95178">
        <ele>247.7</ele>
        <time>2014-06-11T07:51:54Z</time>
      </trkpt>
      <trkpt lat="49.22557" lon="6.95172">
        <ele>248.5</ele>
        <time>2014-06-11T07:51:59Z</time>
      </trkpt>
      <trkpt lat="49.22554" lon="6.95165">
        <ele>249.6</ele>
        <time>2014-06-11T07:52:04Z</time>
      </trkpt>
      <trkpt lat="49.22551" lon="6.95156">
        <ele>250</ele>
        <time>2014-06-11T07:52:09Z</time>
      </trkpt>
      <trkpt lat="49.22548" lon="6.95149">
        <ele>250</ele>
        <time>2014-06-11T07:52:14Z</time>
      </trkpt>
      <trkpt lat="49.22545" lon="6.95141">
        <ele>250.5</ele>
        <time>2014-06-11T07:52:19Z</time>
      </trkpt>
      <trkpt lat="49.22542" lon="6.95134">
        <ele>250.8</ele>
        <time>2014-06-11T07:52:24Z</time>
      </trkpt>
      <trkpt lat="49.22539" lon="6.95127">
        <ele>251.3</ele>
        <time>2014-06-11T07:52:29Z</time>
      </trkpt>
      <trkpt lat="49.22535" lon="6.95119">
        <ele>251.7</ele>
        <time>2014-06-11T07:52:34Z</time>
      </trkpt>
      <trkpt lat="49.22529" lon="6.95103">
        <ele>251.9</ele>
        <time>2014-06-11T07:52:44Z</time>
      </trkpt>
      <trkpt lat="49.22527" lon="6.95095">
        <ele>251.6</ele>
        <time>2014-06-11T07:52:49Z</time>
      </trkpt>
      <trkpt lat="49.22526" lon="6.95087">
        <ele>252.6</ele>
        <time>2014-06-11T07:52:54Z</time>
      </trkpt>
      <trkpt lat="49.22525" lon="6.9508">
        <ele>253.2</ele>
        <time>2014-06-11T07:52:59Z</time>
      </trkpt>
      <trkpt lat="49.22524" lon="6.95071">
        <ele>253.9</ele>
        <time>2014-06-11T07:53:04Z</time>
      </trkpt>
      <trkpt lat="49.22523" lon="6.95063">
        <ele>254</ele>
        <time>2014-06-11T07:53:09Z</time>
      </trkpt>
      <trkpt lat="49.22522" lon="6.95055">
        <ele>253.6</ele>
        <time>2014-06-11T07:53:14Z</time>
      </trkpt>
      <trkpt lat="49.22521" lon="6.95046">
        <ele>254.3</ele>
        <time>2014-06-11T07:53:19Z</time>
      </trkpt>
      <trkpt lat="49.22519" lon="6.95039">
        <ele>254.6</ele>
        <time>2014-06-11T07:53:24Z</time>
      </trkpt>
      <trkpt lat="49.22517" lon="6.9503">
        <ele>255</ele>
        <time>2014-06-11T07:53:29Z</time>
      </trkpt>
      <trkpt lat="49.22517" lon="6.95022">
        <ele>255</ele>
        <time>2014-06-11T07:53:34Z</time>
      </trkpt>
      <trkpt lat="49.22517" lon="6.95014">
        <ele>255.3</ele>
        <time>2014-06-11T07:53:39Z</time>
      </trkpt>
      <trkpt lat="49.22511" lon="6.94995">
        <ele>255.9</ele>
        <time>2014-06-11T07:53:49Z</time>
      </trkpt>
      <trkpt lat="49.22509" lon="6.94987">
        <ele>255.5</ele>
        <time>2014-06-11T07:53:54Z</time>
      </trkpt>
      <trkpt lat="49.22507" lon="6.94978">
        <ele>256</ele>
        <time>2014-06-11T07:53:59Z</time>
      </trkpt>
      <trkpt lat="49.22503" lon="6.9497">
        <ele>256.2</ele>
        <time>2014-06-11T07:54:04Z</time>
      </trkpt>
      <trkpt lat="49.225" lon="6.94961">
        <ele>256.9</ele>
        <time>2014-06-11T07:54:09Z</time>
      </trkpt>
      <trkpt lat="49.22498" lon="6.94953">
        <ele>256.9</ele>
        <time>2014-06-11T07:54:14Z</time>
      </trkpt>
      <trkpt lat="49.22495" lon="6.94945">
        <ele>257.2</ele>
        <time>2014-06-11T07:54:19Z</time>
      </trkpt>
      <trkpt lat="49.22492" lon="6.94936">
        <ele>257</ele>
        <time>2014-06-11T07:54:24Z</time>
      </trkpt>
      <trkpt lat="49.22489" lon="6.94928">
        <ele>257</ele>
        <time>2014-06-11T07:54:29Z</time>
      </trkpt>
      <trkpt lat="49.22487" lon="6.94921">
        <ele>258.4</ele>
        <time>2014-06-11T07:54:34Z</time>
      </trkpt>
      <trkpt lat="49.22484" lon="6.94912">
        <ele>257.7</ele>
        <time>2014-06-11T07:54:39Z</time>
      </trkpt>
      <trkpt lat="49.22482" lon="6.94904">
        <ele>257.3</ele>
        <time>2014-06-11T07:54:44Z</time>
      </trkpt>
      <trkpt lat="49.22478" lon="6.94889">
        <ele>258.1</ele>
        <time>2014-06-11T07:54:54Z</time>
      </trkpt>
      <trkpt lat="49.22476" lon="6.94881">
        <ele>258</ele>
        <time>2014-06-11T07:54:59Z</time>
      </trkpt>
      <trkpt lat="49.22473" lon="6.94873">
        <ele>259</ele>
        <time>2014-06-11T07:55:04Z</time>
      </trkpt>
      <trkpt lat="49.22471" lon="6.94865">
        <ele>259.1</ele>
        <time>2014-06-11T07:55:09Z</time>
      </trkpt>
      <trkpt lat="49.22468" lon="6.94857">
        <ele>258.9</ele>
        <time>2014-06-11T07:55:14Z</time>
      </trkpt>
      <trkpt lat="49.22465" lon="6.94849">
        <ele>259</ele>
        <time>2014-06-11T07:55:19Z</time>
      </trkpt>
      <trkpt lat="49.22462" lon="6.94841">
        <ele>259.2</ele>
        <time>2014-06-11T07:55:24Z</time>
      </trkpt>
      <trkpt lat="49.2246" lon="6.94834">
        <ele>258.9</ele>
        <time>2014-06-11T07:55:29Z</time>
      </trkpt>
      <trkpt lat="49.22457" lon="6.94827">
        <ele>258.9</ele>
        <time>2014-06-11T07:55:34Z</time>
      </trkpt>
      <trkpt lat="49.22454" lon="6.94819">
        <ele>259.9</ele>
        <time>2014-06-11T07:55:39Z</time>
      </trkpt>
      <trkpt lat="49.22451" lon="6.94811">
        <ele>259.6</ele>
        <time>2014-06-11T07:55:44Z</time>
      </trkpt>
      <trkpt lat="49.22448" lon="6.94803">
        <ele>260.2</ele>
        <time>2014-06-11T07:55:49Z</time>
      </trkpt>
      <trkpt lat="49.22443" lon="6.94786">
        <ele>260.9</ele>
        <time>2014-06-11T07:55:59Z</time>
      </trkpt>
      <trkpt lat="49.2244" lon="6.94777">
        <ele>261.4</ele>
        <time>2014-06-11T07:56:04Z</time>
      </trkpt>
      <trkpt lat="49.22436" lon="6.9477">
        <ele>260.8</ele>
        <time>2014-06-11T07:56:09Z</time>
      </trkpt>
      <trkpt lat="49.22433" lon="6.94764">
        <ele>261.3</ele>
        <time>2014-06-11T07:56:14Z</time>
      </trkpt>
      <trkpt lat="49.22429" lon="6.94757">
        <ele>261.6</ele>
        <time>2014-06-11T07:56:19Z</time>
      </trkpt>
      <trkpt lat="49.22426" lon="6.94751">
        <ele>262.2</ele>
        <time>2014-06-11T07:56:24Z</time>
      </trkpt>
      <trkpt lat="49.22424" lon="6.94744">
        <ele>262.6</ele>
        <time>2014-06-11T07:56:29Z</time>
      </trkpt>
      <trkpt lat="49.22421" lon="6.94738">
        <ele>262.4</ele>
        <time>2014-06-11T07:56:34Z</time>
      </trkpt>
      <trkpt lat="49.22418" lon="6.9473">
        <ele>262.3</ele>
        <time>2014-06-11T07:56:39Z</time>
      </trkpt>
      <trkpt lat="49.22414" lon="6.94722">
        <ele>261.9</ele>
        <time>2014-06-11T07:56:44Z</time>
      </trkpt>
      <trkpt lat="49.22411" lon="6.94715">
        <ele>261.8</ele>
        <time>2014-06-11T07:56:49Z</time>
      </trkpt>
      <trkpt lat="49.22407" lon="6.94708">
        <ele>263.5</ele>
        <time>2014-06-11T07:56:54Z</time>
      </trkpt>
      <trkpt lat="49.224" lon="6.94693">
        <ele>263.5</ele>
        <time>2014-06-11T07:57:04Z</time>
      </trkpt>
      <trkpt lat="49.22396" lon="6.94685">
        <ele>264.2</ele>
        <time>2014-06-11T07:57:09Z</time>
      </trkpt>
      <trkpt lat="49.22392" lon="6.94677">
        <ele>263.8</ele>
        <time>2014-06-11T07:57:14Z</time>
      </trkpt>
      <trkpt lat="49.22389" lon="6.9467">
        <ele>263.8</ele>
        <time>2014-06-11T07:57:19Z</time>
      </trkpt>
      <trkpt lat="49.22385" lon="6.94661">
        <ele>264.2</ele>
        <time>2014-06-11T07:57:24Z</time>
      </trkpt>
      <trkpt lat="49.22381" lon="6.94653">
        <ele>264.8</ele>
        <time>2014-06-11T07:57:29Z</time>
      </trkpt>
      <trkpt lat="49.22377" lon="6.94645">
        <ele>265.6</ele>
        <time>2014-06-11T07:57:34Z</time>
      </trkpt>
      <trkpt lat="49.22374" lon="6.94639">
        <ele>266.1</ele>
        <time>2014-06-11T07:57:39Z</time>
      </trkpt>
      <trkpt lat="49.22371" lon="6.94632">
        <ele>266</ele>
        <time>2014-06-11T07:57:44Z</time>
      </trkpt>
      <trkpt lat="49.22368" lon="6.94624">
        <ele>266.3</ele>
        <time>2014-06-11T07:57:49Z</time>
      </trkpt>
      <trkpt lat="49.22365" lon="6.94616">
        <ele>266.3</ele>
        <time>2014-06-11T07:57:54Z</time>
      </trkpt>
      <trkpt lat="49.22361" lon="6.94609">
        <ele>266.8</ele>
        <time>2014-06-11T07:57:59Z</time>
      </trkpt>
      <trkpt lat="49.22354" lon="6.94596">
        <ele>267.4</ele>
        <time>2014-06-11T07:58:09Z</time>
      </trkpt>
      <trkpt lat="49.22351" lon="6.94589">
        <ele>268.3</ele>
        <time>2014-06-11T07:58:14Z</time>
      </trkpt>
      <trkpt lat="49.22349" lon="6.94584">
        <ele>268.7</ele>
        <time>2014-06-11T07:58:19Z</time>
      </trkpt>
      <trkpt lat="49.22348" lon="6.94579">
        <ele>268.7</ele>
        <time>2014-06-11T07:58:24Z</time>
      </trkpt>
      <trkpt lat="49.22348" lon="6.94575">
        <ele>268.4</ele>
        <time>2014-06-11T07:58:29Z</time>
      </trkpt>
      <trkpt lat="49.22349" lon="6.94569">
        <ele>269.4</ele>
        <time>2014-06-11T07:58:34Z</time>
      </trkpt>
      <trkpt lat="49.22349" lon="6.94564">
        <ele>270</ele>
        <time>2014-06-11T07:58:39Z</time>
      </trkpt>
      <trkpt lat="49.2235" lon="6.94562">
        <ele>270.2</ele>
        <time>2014-06-11T07:58:44Z</time>
      </trkpt>
      <trkpt lat="49.22349" lon="6.9456">
        <ele>270</ele>
        <time>2014-06-11T07:58:49Z</time>
      </trkpt>
      <trkpt lat="49.22351" lon="6.94559">
        <ele>270.4</ele>
        <time>2014-06-11T07:58:54Z</time>
      </trkpt>
      <trkpt lat="49.22353" lon="6.94558">
        <ele>270.4</ele>
        <time>2014-06-11T07:58:59Z</time>
      </trkpt>
      <trkpt lat="49.22354" lon="6.94557">
        <ele>270.4</ele>
        <time>2014-06-11T07:59:04Z</time>
      </trkpt>
      <trkpt lat="49.22353" lon="6.94556">
        <ele>269.8</ele>
        <time>2014-06-11T07:59:14Z</time>
      </trkpt>
      <trkpt lat="49.22349" lon="6.94556">
        <ele>269.3</ele>
        <time>2014-06-11T07:59:19Z</time>
      </trkpt>
      <trkpt lat="49.22347" lon="6.94557">
        <ele>269</ele>
        <time>2014-06-11T07:59:24Z</time>
      </trkpt>
      <trkpt lat="49.22343" lon="6.94559">
        <ele>269</ele>
        <time>2014-06-11T07:59:29Z</time>
      </trkpt>
      <trkpt lat="49.2234" lon="6.94556">
        <ele>269</ele>
        <time>2014-06-11T07:59:34Z</time>
      </trkpt>
      <trkpt lat="49.22339" lon="6.94552">
        <ele>269.2</ele>
        <time>2014-06-11T07:59:39Z</time>
      </trkpt>
      <trkpt lat="49.22337" lon="6.94545">
        <ele>270</ele>
        <time>2014-06-11T07:59:44Z</time>
      </trkpt>
      <trkpt lat="49.22334" lon="6.94539">
        <ele>270.6</ele>
        <time>2014-06-11T07:59:49Z</time>
      </trkpt>
      <trkpt lat="49.22332" lon="6.94532">
        <ele>270.7</ele>
        <time>2014-06-11T07:59:54Z</time>
      </trkpt>
      <trkpt lat="49.2233" lon="6.94524">
        <ele>271.8</ele>
        <time>2014-06-11T07:59:59Z</time>
      </trkpt>
      <trkpt lat="49.22328" lon="6.94517">
        <ele>271.8</ele>
        <time>2014-06-11T08:00:04Z</time>
      </trkpt>
      <trkpt lat="49.22326" lon="6.9451">
        <ele>272.6</ele>
        <time>2014-06-11T08:00:09Z</time>
      </trkpt>
      <trkpt lat="49.2232" lon="6.94495">
        <ele>273.4</ele>
        <time>2014-06-11T08:00:19Z</time>
      </trkpt>
      <trkpt lat="49.22317" lon="6.94487">
        <ele>273.8</ele>
        <time>2014-06-11T08:00:24Z</time>
      </trkpt>
      <trkpt lat="49.22314" lon="6.94479">
        <ele>274.6</ele>
        <time>2014-06-11T08:00:29Z</time>
      </trkpt>
      <trkpt lat="49.2231" lon="6.94471">
        <ele>275</ele>
        <time>2014-06-11T08:00:34Z</time>
      </trkpt>
      <trkpt lat="49.22308" lon="6.94464">
        <ele>275.8</ele>
        <time>2014-06-11T08:00:39Z</time>
      </trkpt>
      <trkpt lat="49.22305" lon="6.94456">
        <ele>275.9</ele>
        <time>2014-06-11T08:00:44Z</time>
      </trkpt>
      <trkpt lat="49.22302" lon="6.94448">
        <ele>276.4</ele>
        <time>2014-06-11T08:00:49Z</time>
      </trkpt>
      <trkpt lat="49.22299" lon="6.9444">
        <ele>277.3</ele>
        <time>2014-06-11T08:00:54Z</time>
      </trkpt>
      <trkpt lat="49.22297" lon="6.94433">
        <ele>277.9</ele>
        <time>2014-06-11T08:00:59Z</time>
      </trkpt>
      <trkpt lat="49.22296" lon="6.94426">
        <ele>278.3</ele>
        <time>2014-06-11T08:01:04Z</time>
      </trkpt>
      <trkpt lat="49.22294" lon="6.94416">
        <ele>278.2</ele>
        <time>2014-06-11T08:01:09Z</time>
      </trkpt>
      <trkpt lat="49.22292" lon="6.94408">
        <ele>278.6</ele>
        <time>2014-06-11T08:01:14Z</time>
      </trkpt>
      <trkpt lat="49.22287" lon="6.94395">
        <ele>278.9</ele>
        <time>2014-06-11T08:01:24Z</time>
      </trkpt>
      <trkpt lat="49.22284" lon="6.94388">
        <ele>278.8</ele>
        <time>2014-06-11T08:01:29Z</time>
      </trkpt>
      <trkpt lat="49.22282" lon="6.94381">
        <ele>279.4</ele>
        <time>2014-06-11T08:01:34Z</time>
      </trkpt>
      <trkpt lat="49.22281" lon="6.94374">
        <ele>279.7</ele>
        <time>2014-06-11T08:01:39Z</time>
      </trkpt>
      <trkpt lat="49.2228" lon="6.94365">
        <ele>279.4</ele>
        <time>2014-06-11T08:01:44Z</time>
      </trkpt>
      <trkpt lat="49.2228" lon="6.94355">
        <ele>279.3</ele>
        <time>2014-06-11T08:01:49Z</time>
      </trkpt>
      <trkpt lat="49.22279" lon="6.94347">
        <ele>279.5</ele>
        <time>2014-06-11T08:01:54Z</time>
      </trkpt>
      <trkpt lat="49.22277" lon="6.94339">
        <ele>279.4</ele>
        <time>2014-06-11T08:01:59Z</time>
      </trkpt>
      <trkpt lat="49.22276" lon="6.94329">
        <ele>279.7</ele>
        <time>2014-06-11T08:02:04Z</time>
      </trkpt>
      <trkpt lat="49.22275" lon="6.94321">
        <ele>279.1</ele>
        <time>2014-06-11T08:02:09Z</time>
      </trkpt>
      <trkpt lat="49.22274" lon="6.94314">
        <ele>278.9</ele>
        <time>2014-06-11T08:02:14Z</time>
      </trkpt>
      <trkpt lat="49.22272" lon="6.94305">
        <ele>278</ele>
        <time>2014-06-11T08:02:19Z</time>
      </trkpt>
      <trkpt lat="49.2227" lon="6.94286">
        <ele>277.9</ele>
        <time>2014-06-11T08:02:29Z</time>
      </trkpt>
      <trkpt lat="49.2227" lon="6.94277">
        <ele>278</ele>
        <time>2014-06-11T08:02:34Z</time>
      </trkpt>
      <trkpt lat="49.2227" lon="6.94268">
        <ele>277.3</ele>
        <time>2014-06-11T08:02:39Z</time>
      </trkpt>
      <trkpt lat="49.22269" lon="6.94258">
        <ele>277</ele>
        <time>2014-06-11T08:02:44Z</time>
      </trkpt>
      <trkpt lat="49.22268" lon="6.94249">
        <ele>276.8</ele>
        <time>2014-06-11T08:02:49Z</time>
      </trkpt>
      <trkpt lat="49.22267" lon="6.9424">
        <ele>277</ele>
        <time>2014-06-11T08:02:54Z</time>
      </trkpt>
      <trkpt lat="49.22266" lon="6.94232">
        <ele>276.5</ele>
        <time>2014-06-11T08:02:59Z</time>
      </trkpt>
      <trkpt lat="49.22265" lon="6.94224">
        <ele>275.8</ele>
        <time>2014-06-11T08:03:04Z</time>
      </trkpt>
      <trkpt lat="49.22265" lon="6.94216">
        <ele>275.5</ele>
        <time>2014-06-11T08:03:09Z</time>
      </trkpt>
      <trkpt lat="49.22265" lon="6.94206">
        <ele>275.9</ele>
        <time>2014-06-11T08:03:14Z</time>
      </trkpt>
      <trkpt lat="49.22265" lon="6.94198">
        <ele>276.3</ele>
        <time>2014-06-11T08:03:19Z</time>
      </trkpt>
      <trkpt lat="49.22265" lon="6.94189">
        <ele>276</ele>
        <time>2014-06-11T08:03:24Z</time>
      </trkpt>
      <trkpt lat="49.22263" lon="6.94171">
        <ele>276.2</ele>
        <time>2014-06-11T08:03:34Z</time>
      </trkpt>
      <trkpt lat="49.22262" lon="6.94162">
        <ele>275.1</ele>
        <time>2014-06-11T08:03:39Z</time>
      </trkpt>
      <trkpt lat="49.22261" lon="6.94154">
        <ele>275.3</ele>
        <time>2014-06-11T08:03:44Z</time>
      </trkpt>
      <trkpt lat="49.22261" lon="6.94145">
        <ele>275.9</ele>
        <time>2014-06-11T08:03:49Z</time>
      </trkpt>
      <trkpt lat="49.2226" lon="6.94136">
        <ele>275.2</ele>
        <time>2014-06-11T08:03:54Z</time>
      </trkpt>
      <trkpt lat="49.22259" lon="6.94128">
        <ele>273.9</ele>
        <time>2014-06-11T08:03:59Z</time>
      </trkpt>
      <trkpt lat="49.22258" lon="6.94119">
        <ele>273.9</ele>
        <time>2014-06-11T08:04:04Z</time>
      </trkpt>
      <trkpt lat="49.22258" lon="6.94112">
        <ele>274</ele>
        <time>2014-06-11T08:04:09Z</time>
      </trkpt>
      <trkpt lat="49.22257" lon="6.94104">
        <ele>273.2</ele>
        <time>2014-06-11T08:04:14Z</time>
      </trkpt>
      <trkpt lat="49.22256" lon="6.94096">
        <ele>273.3</ele>
        <time>2014-06-11T08:04:19Z</time>
      </trkpt>
      <trkpt lat="49.22255" lon="6.94088">
        <ele>272.6</ele>
        <time>2014-06-11T08:04:24Z</time>
      </trkpt>
      <trkpt lat="49.22253" lon="6.9408">
        <ele>272</ele>
        <time>2014-06-11T08:04:29Z</time>
      </trkpt>
      <trkpt lat="49.22252" lon="6.94062">
        <ele>270.9</ele>
        <time>2014-06-11T08:04:39Z</time>
      </trkpt>
      <trkpt lat="49.22251" lon="6.94052">
        <ele>271.1</ele>
        <time>2014-06-11T08:04:44Z</time>
      </trkpt>
      <trkpt lat="49.2225" lon="6.94043">
        <ele>271.1</ele>
        <time>2014-06-11T08:04:49Z</time>
      </trkpt>
      <trkpt lat="49.2225" lon="6.94033">
        <ele>270.4</ele>
        <time>2014-06-11T08:04:54Z</time>
      </trkpt>
      <trkpt lat="49.22249" lon="6.94023">
        <ele>270.4</ele>
        <time>2014-06-11T08:04:59Z</time>
      </trkpt>
      <trkpt lat="49.22249" lon="6.94014">
        <ele>269</ele>
        <time>2014-06-11T08:05:04Z</time>
      </trkpt>
      <trkpt lat="49.22248" lon="6.94005">
        <ele>268.8</ele>
        <time>2014-06-11T08:05:09Z</time>
      </trkpt>
      <trkpt lat="49.22247" lon="6.93997">
        <ele>269.7</ele>
        <time>2014-06-11T08:05:14Z</time>
      </trkpt>
      <trkpt lat="49.22247" lon="6.93988">
        <ele>268.9</ele>
        <time>2014-06-11T08:05:19Z</time>
      </trkpt>
      <trkpt lat="49.22246" lon="6.93979">
        <ele>268.3</ele>
        <time>2014-06-11T08:05:24Z</time>
      </trkpt>
      <trkpt lat="49.22246" lon="6.93971">
        <ele>268</ele>
        <time>2014-06-11T08:05:29Z</time>
      </trkpt>
      <trkpt lat="49.22245" lon="6.93962">
        <ele>267.6</ele>
        <time>2014-06-11T08:05:34Z</time>
      </trkpt>
      <trkpt lat="49.22245" lon="6.93945">
        <ele>266.3</ele>
        <time>2014-06-11T08:05:44Z</time>
      </trkpt>
      <trkpt lat="49.22244" lon="6.93935">
        <ele>265.8</ele>
        <time>2014-06-11T08:05:49Z</time>
      </trkpt>
      <trkpt lat="49.22243" lon="6.93925">
        <ele>265.8</ele>
        <time>2014-06-11T08:05:54Z</time>
      </trkpt>
      <trkpt lat="49.22242" lon="6.93915">
        <ele>265.8</ele>
        <time>2014-06-11T08:05:59Z</time>
      </trkpt>
      <trkpt lat="49.22241" lon="6.93906">
        <ele>264.9</ele>
        <time>2014-06-11T08:06:04Z</time>
      </trkpt>
      <trkpt lat="49.2224" lon="6.93896">
        <ele>264.9</ele>
        <time>2014-06-11T08:06:09Z</time>
      </trkpt>
      <trkpt lat="49.22239" lon="6.93887">
        <ele>264.7</ele>
        <time>2014-06-11T08:06:14Z</time>
      </trkpt>
      <trkpt lat="49.22239" lon="6.93878">
        <ele>263.7</ele>
        <time>2014-06-11T08:06:19Z</time>
      </trkpt>
      <trkpt lat="49.22239" lon="6.93869">
        <ele>263.7</ele>
        <time>2014-06-11T08:06:24Z</time>
      </trkpt>
      <trkpt lat="49.2224" lon="6.93861">
        <ele>263.7</ele>
        <time>2014-06-11T08:06:29Z</time>
      </trkpt>
      <trkpt lat="49.2224" lon="6.93853">
        <ele>263.1</ele>
        <time>2014-06-11T08:06:34Z</time>
      </trkpt>
      <trkpt lat="49.2224" lon="6.93844">
        <ele>263.2</ele>
        <time>2014-06-11T08:06:39Z</time>
      </trkpt>
      <trkpt lat="49.22243" lon="6.93823">
        <ele>262.5</ele>
        <time>2014-06-11T08:06:49Z</time>
      </trkpt>
      <trkpt lat="49.22244" lon="6.93814">
        <ele>262.6</ele>
        <time>2014-06-11T08:06:54Z</time>
      </trkpt>
      <trkpt lat="49.22244" lon="6.93803">
        <ele>261.6</ele>
        <time>2014-06-11T08:06:59Z</time>
      </trkpt>
      <trkpt lat="49.22246" lon="6.93794">
        <ele>262</ele>
        <time>2014-06-11T08:07:04Z</time>
      </trkpt>
      <trkpt lat="49.22247" lon="6.93784">
        <ele>261.9</ele>
        <time>2014-06-11T08:07:09Z</time>
      </trkpt>
      <trkpt lat="49.2225" lon="6.93775">
        <ele>262</ele>
        <time>2014-06-11T08:07:14Z</time>
      </trkpt>
      <trkpt lat="49.22253" lon="6.93766">
        <ele>261.8</ele>
        <time>2014-06-11T08:07:19Z</time>
      </trkpt>
      <trkpt lat="49.22253" lon="6.9376">
        <ele>261.7</ele>
        <time>2014-06-11T08:07:24Z</time>
      </trkpt>
      <trkpt lat="49.22254" lon="6.93753">
        <ele>261</ele>
        <time>2014-06-11T08:07:29Z</time>
      </trkpt>
      <trkpt lat="49.22256" lon="6.93746">
        <ele>261.5</ele>
        <time>2014-06-11T08:07:34Z</time>
      </trkpt>
      <trkpt lat="49.22259" lon="6.93738">
        <ele>261.2</ele>
        <time>2014-06-11T08:07:39Z</time>
      </trkpt>
      <trkpt lat="49.22262" lon="6.93731">
        <ele>261.2</ele>
        <time>2014-06-11T08:07:44Z</time>
      </trkpt>
      <trkpt lat="49.22268" lon="6.93716">
        <ele>260.7</ele>
        <time>2014-06-11T08:07:54Z</time>
      </trkpt>
      <trkpt lat="49.22269" lon="6.93709">
        <ele>261</ele>
        <time>2014-06-11T08:07:59Z</time>
      </trkpt>
      <trkpt lat="49.22272" lon="6.93702">
        <ele>260.7</ele>
        <time>2014-06-11T08:08:04Z</time>
      </trkpt>
      <trkpt lat="49.22276" lon="6.93695">
        <ele>260.5</ele>
        <time>2014-06-11T08:08:09Z</time>
      </trkpt>
      <trkpt lat="49.22279" lon="6.93687">
        <ele>260.5</ele>
        <time>2014-06-11T08:08:14Z</time>
      </trkpt>
      <trkpt lat="49.22283" lon="6.93678">
        <ele>259.7</ele>
        <time>2014-06-11T08:08:19Z</time>
      </trkpt>
      <trkpt lat="49.22287" lon="6.9367">
        <ele>260</ele>
        <time>2014-06-11T08:08:24Z</time>
      </trkpt>
      <trkpt lat="49.22292" lon="6.93662">
        <ele>259.3</ele>
        <time>2014-06-11T08:08:29Z</time>
      </trkpt>
      <trkpt lat="49.22297" lon="6.93655">
        <ele>259.7</ele>
        <time>2014-06-11T08:08:34Z</time>
      </trkpt>
      <trkpt lat="49.22301" lon="6.93647">
        <ele>259.6</ele>
        <time>2014-06-11T08:08:39Z</time>
      </trkpt>
      <trkpt lat="49.22303" lon="6.9364">
        <ele>260.5</ele>
        <time>2014-06-11T08:08:44Z</time>
      </trkpt>
      <trkpt lat="49.22305" lon="6.93632">
        <ele>260.6</ele>
        <time>2014-06-11T08:08:49Z</time>
      </trkpt>
      <trkpt lat="49.22309" lon="6.93617">
        <ele>260.1</ele>
        <time>2014-06-11T08:08:59Z</time>
      </trkpt>
      <trkpt lat="49.22312" lon="6.93609">
        <ele>260.1</ele>
        <time>2014-06-11T08:09:04Z</time>
      </trkpt>
      <trkpt lat="49.22315" lon="6.93602">
        <ele>260.3</ele>
        <time>2014-06-11T08:09:09Z</time>
      </trkpt>
      <trkpt lat="49.22319" lon="6.93594">
        <ele>260.7</ele>
        <time>2014-06-11T08:09:14Z</time>
      </trkpt>
      <trkpt lat="49.22321" lon="6.93586">
        <ele>260.8</ele>
        <time>2014-06-11T08:09:19Z</time>
      </trkpt>
      <trkpt lat="49.22325" lon="6.93579">
        <ele>260.5</ele>
        <time>2014-06-11T08:09:24Z</time>
      </trkpt>
      <trkpt lat="49.22327" lon="6.93571">
        <ele>260.2</ele>
        <time>2014-06-11T08:09:29Z</time>
      </trkpt>
      <trkpt lat="49.22331" lon="6.93562">
        <ele>260.4</ele>
        <time>2014-06-11T08:09:34Z</time>
      </trkpt>
      <trkpt lat="49.22334" lon="6.93554">
        <ele>260.7</ele>
        <time>2014-06-11T08:09:39Z</time>
      </trkpt>
      <trkpt lat="49.22337" lon="6.93546">
        <ele>260.8</ele>
        <time>2014-06-11T08:09:44Z</time>
      </trkpt>
      <trkpt lat="49.2234" lon="6.93537">
        <ele>260.9</ele>
        <time>2014-06-11T08:09:49Z</time>
      </trkpt>
      <trkpt lat="49.22343" lon="6.93528">
        <ele>261.7</ele>
        <time>2014-06-11T08:09:54Z</time>
      </trkpt>
      <trkpt lat="49.22348" lon="6.93512">
        <ele>262.1</ele>
        <time>2014-06-11T08:10:04Z</time>
      </trkpt>
      <trkpt lat="49.22351" lon="6.93505">
        <ele>261.6</ele>
        <time>2014-06-11T08:10:09Z</time>
      </trkpt>
      <trkpt lat="49.22354" lon="6.93498">
        <ele>262.1</ele>
        <time>2014-06-11T08:10:14Z</time>
      </trkpt>
      <trkpt lat="49.22358" lon="6.93491">
        <ele>262.1</ele>
        <time>2014-06-11T08:10:19Z</time>
      </trkpt>
      <trkpt lat="49.22361" lon="6.93484">
        <ele>262.4</ele>
        <time>2014-06-11T08:10:24Z</time>
      </trkpt>
      <trkpt lat="49.22365" lon="6.93477">
        <ele>262.3</ele>
        <time>2014-06-11T08:10:29Z</time>
      </trkpt>
      <trkpt lat="49.22369" lon="6.93469">
        <ele>262.3</ele>
        <time>2014-06-11T08:10:34Z</time>
      </trkpt>
      <trkpt lat="49.2237" lon="6.93462">
        <ele>262.2</ele>
        <time>2014-06-11T08:10:39Z</time>
      </trkpt>
      <trkpt lat="49.22374" lon="6.93454">
        <ele>262.6</ele>
        <time>2014-06-11T08:10:44Z</time>
      </trkpt>
      <trkpt lat="49.22376" lon="6.93446">
        <ele>263.3</ele>
        <time>2014-06-11T08:10:49Z</time>
      </trkpt>
      <trkpt lat="49.22379" lon="6.93439">
        <ele>263.9</ele>
        <time>2014-06-11T08:10:54Z</time>
      </trkpt>
      <trkpt lat="49.22382" lon="6.93431">
        <ele>263.8</ele>
        <time>2014-06-11T08:10:59Z</time>
      </trkpt>
      <trkpt lat="49.22388" lon="6.93416">
        <ele>265.2</ele>
        <time>2014-06-11T08:11:09Z</time>
      </trkpt>
      <trkpt lat="49.2239" lon="6.93408">
        <ele>265.2</ele>
        <time>2014-06-11T08:11:14Z</time>
      </trkpt>
      <trkpt lat="49.22393" lon="6.934">
        <ele>265.9</ele>
        <time>2014-06-11T08:11:19Z</time>
      </trkpt>
      <trkpt lat="49.22399" lon="6.93392">
        <ele>266.9</ele>
        <time>2014-06-11T08:11:24Z</time>
      </trkpt>
      <trkpt lat="49.22402" lon="6.93384">
        <ele>266.9</ele>
        <time>2014-06-11T08:11:29Z</time>
      </trkpt>
      <trkpt lat="49.22406" lon="6.93377">
        <ele>267.3</ele>
        <time>2014-06-11T08:11:34Z</time>
      </trkpt>
      <trkpt lat="49.2241" lon="6.9337">
        <ele>267.9</ele>
        <time>2014-06-11T08:11:39Z</time>
      </trkpt>
      <trkpt lat="49.22415" lon="6.93364">
        <ele>268.2</ele>
        <time>2014-06-11T08:11:44Z</time>
      </trkpt>
      <trkpt lat="49.2242" lon="6.93358">
        <ele>269</ele>
        <time>2014-06-11T08:11:49Z</time>
      </trkpt>
      <trkpt lat="49.22423" lon="6.93352">
        <ele>269.5</ele>
        <time>2014-06-11T08:11:54Z</time>
      </trkpt>
      <trkpt lat="49.22428" lon="6.93347">
        <ele>270.3</ele>
        <time>2014-06-11T08:11:59Z</time>
      </trkpt>
      <trkpt lat="49.22433" lon="6.93344">
        <ele>270.4</ele>
        <time>2014-06-11T08:12:04Z</time>
      </trkpt>
      <trkpt lat="49.22444" lon="6.93337">
        <ele>271.4</ele>
        <time>2014-06-11T08:12:14Z</time>
      </trkpt>
      <trkpt lat="49.22449" lon="6.93335">
        <ele>271.1</ele>
        <time>2014-06-11T08:12:19Z</time>
      </trkpt>
      <trkpt lat="49.22455" lon="6.93333">
        <ele>272.2</ele>
        <time>2014-06-11T08:12:24Z</time>
      </trkpt>
      <trkpt lat="49.22461" lon="6.93331">
        <ele>272.3</ele>
        <time>2014-06-11T08:12:29Z</time>
      </trkpt>
      <trkpt lat="49.22466" lon="6.9333">
        <ele>272.9</ele>
        <time>2014-06-11T08:12:34Z</time>
      </trkpt>
      <trkpt lat="49.22471" lon="6.93329">
        <ele>272.6</ele>
        <time>2014-06-11T08:12:39Z</time>
      </trkpt>
      <trkpt lat="49.22479" lon="6.93328">
        <ele>273.1</ele>
        <time>2014-06-11T08:12:44Z</time>
      </trkpt>
      <trkpt lat="49.22484" lon="6.93327">
        <ele>272.4</ele>
        <time>2014-06-11T08:12:49Z</time>
      </trkpt>
      <trkpt lat="49.22491" lon="6.93327">
        <ele>272.5</ele>
        <time>2014-06-11T08:12:54Z</time>
      </trkpt>
      <trkpt lat="49.22496" lon="6.93327">
        <ele>273.2</ele>
        <time>2014-06-11T08:12:59Z</time>
      </trkpt>
      <trkpt lat="49.22502" lon="6.93326">
        <ele>273.1</ele>
        <time>2014-06-11T08:13:04Z</time>
      </trkpt>
      <trkpt lat="49.22508" lon="6.93327">
        <ele>273.5</ele>
        <time>2014-06-11T08:13:09Z</time>
      </trkpt>
      <trkpt lat="49.2252" lon="6.93327">
        <ele>273.1</ele>
        <time>2014-06-11T08:13:19Z</time>
      </trkpt>
      <trkpt lat="49.22526" lon="6.93327">
        <ele>273</ele>
        <time>2014-06-11T08:13:24Z</time>
      </trkpt>
      <trkpt lat="49.22532" lon="6.93326">
        <ele>273</ele>
        <time>2014-06-11T08:13:29Z</time>
      </trkpt>
      <trkpt lat="49.22539" lon="6.93325">
        <ele>272.9</ele>
        <time>2014-06-11T08:13:34Z</time>
      </trkpt>
      <trkpt lat="49.22546" lon="6.93323">
        <ele>273.9</ele>
        <time>2014-06-11T08:13:39Z</time>
      </trkpt>
      <trkpt lat="49.22553" lon="6.93321">
        <ele>274.1</ele>
        <time>2014-06-11T08:13:44Z</time>
      </trkpt>
      <trkpt lat="49.2256" lon="6.93317">
        <ele>273.6</ele>
        <time>2014-06-11T08:13:49Z</time>
      </trkpt>
      <trkpt lat="49.22565" lon="6.93312">
        <ele>273.7</ele>
        <time>2014-06-11T08:13:54Z</time>
      </trkpt>
      <trkpt lat="49.22569" lon="6.93306">
        <ele>273.6</ele>
        <time>2014-06-11T08:13:59Z</time>
      </trkpt>
      <trkpt lat="49.22572" lon="6.93299">
        <ele>273.7</ele>
        <time>2014-06-11T08:14:04Z</time>
      </trkpt>
      <trkpt lat="49.22576" lon="6.93292">
        <ele>273.3</ele>
        <time>2014-06-11T08:14:09Z</time>
      </trkpt>
      <trkpt lat="49.22578" lon="6.93285">
        <ele>274.2</ele>
        <time>2014-06-11T08:14:14Z</time>
      </trkpt>
      <trkpt lat="49.22584" lon="6.93269">
        <ele>273.9</ele>
        <time>2014-06-11T08:14:24Z</time>
      </trkpt>
      <trkpt lat="49.22587" lon="6.93261">
        <ele>274.1</ele>
        <time>2014-06-11T08:14:29Z</time>
      </trkpt>
      <trkpt lat="49.22589" lon="6.93254">
        <ele>274.1</ele>
        <time>2014-06-11T08:14:34Z</time>
      </trkpt>
      <trkpt lat="49.22592" lon="6.93246">
        <ele>274.1</ele>
        <time>2014-06-11T08:14:39Z</time>
      </trkpt>
      <trkpt lat="49.22594" lon="6.93238">
        <ele>273.4</ele>
        <time>2014-06-11T08:14:44Z</time>
      </trkpt>
      <trkpt lat="49.22596" lon="6.93231">
        <ele>273.6</ele>
        <time>2014-06-11T08:14:49Z</time>
      </trkpt>
      <trkpt lat="49.22598" lon="6.93223">
        <ele>273.1</ele>
        <time>2014-06-11T08:14:54Z</time>
      </trkpt>
      <trkpt lat="49.22601" lon="6.93216">
        <ele>273</ele>
        <time>2014-06-11T08:14:59Z</time>
      </trkpt>
      <trkpt lat="49.22604" lon="6.93209">
        <ele>272.4</ele>
        <time>2014-06-11T08:15:04Z</time>
      </trkpt>
      <trkpt lat="49.22606" lon="6.93201">
        <ele>272.6</ele>
        <time>2014-06-11T08:15:09Z</time>
      </trkpt>
      <trkpt lat="49.22608" lon="6.93194">
        <ele>272.6</ele>
        <time>2014-06-11T08:15:14Z</time>
      </trkpt>
      <trkpt lat="49.22611" lon="6.93186">
        <ele>271.9</ele>
        <time>2014-06-11T08:15:19Z</time>
      </trkpt>
      <trkpt lat="49.22618" lon="6.93173">
        <ele>271.6</ele>
        <time>2014-06-11T08:15:29Z</time>
      </trkpt>
      <trkpt lat="49.22622" lon="6.93165">
        <ele>271</ele>
        <time>2014-06-11T08:15:34Z</time>
      </trkpt>
      <trkpt lat="49.22625" lon="6.93158">
        <ele>270.8</ele>
        <time>2014-06-11T08:15:39Z</time>
      </trkpt>
      <trkpt lat="49.22628" lon="6.93151">
        <ele>270.2</ele>
        <time>2014-06-11T08:15:44Z</time>
      </trkpt>
      <trkpt lat="49.22631" lon="6.93145">
        <ele>270</ele>
        <time>2014-06-11T08:15:49Z</time>
      </trkpt>
      <trkpt lat="49.22635" lon="6.93138">
        <ele>270.2</ele>
        <time>2014-06-11T08:15:54Z</time>
      </trkpt>
      <trkpt lat="49.22639" lon="6.93131">
        <ele>270.6</ele>
        <time>2014-06-11T08:15:59Z</time>
      </trkpt>
      <trkpt lat="49.22643" lon="6.93126">
        <ele>270</ele>
        <time>2014-06-11T08:16:04Z</time>
      </trkpt>
      <trkpt lat="49.22646" lon="6.93121">
        <ele>268.7</ele>
        <time>2014-06-11T08:16:09Z</time>
      </trkpt>
      <trkpt lat="49.22649" lon="6.93115">
        <ele>269.6</ele>
        <time>2014-06-11T08:16:14Z</time>
      </trkpt>
      <trkpt lat="49.22653" lon="6.93109">
        <ele>269.8</ele>
        <time>2014-06-11T08:16:19Z</time>
      </trkpt>
      <trkpt lat="49.22658" lon="6.93102">
        <ele>269.7</ele>
        <time>2014-06-11T08:16:24Z</time>
      </trkpt>
      <trkpt lat="49.2266" lon="6.93096">
        <ele>269</ele>
        <time>2014-06-11T08:16:34Z</time>
      </trkpt>
      <trkpt lat="49.2266" lon="6.93093">
        <ele>269.3</ele>
        <time>2014-06-11T08:16:39Z</time>
      </trkpt>
      <trkpt lat="49.22662" lon="6.9309">
        <ele>269.2</ele>
        <time>2014-06-11T08:16:44Z</time>
      </trkpt>
      <trkpt lat="49.22666" lon="6.93085">
        <ele>268.8</ele>
        <time>2014-06-11T08:16:49Z</time>
      </trkpt>
      <trkpt lat="49.22669" lon="6.93081">
        <ele>268.5</ele>
        <time>2014-06-11T08:16:54Z</time>
      </trkpt>
      <trkpt lat="49.22673" lon="6.93076">
        <ele>269.1</ele>
        <time>2014-06-11T08:16:59Z</time>
      </trkpt>
      <trkpt lat="49.22677" lon="6.93072">
        <ele>269.2</ele>
        <time>2014-06-11T08:17:04Z</time>
      </trkpt>
      <trkpt lat="49.22681" lon="6.93067">
        <ele>269.1</ele>
        <time>2014-06-11T08:17:09Z</time>
      </trkpt>
      <trkpt lat="49.22685" lon="6.93061">
        <ele>268.7</ele>
        <time>2014-06-11T08:17:14Z</time>
      </trkpt>
      <trkpt lat="49.22689" lon="6.93057">
        <ele>268.6</ele>
        <time>2014-06-11T08:17:19Z</time>
      </trkpt>
      <trkpt lat="49.22693" lon="6.93052">
        <ele>267.6</ele>
        <time>2014-06-11T08:17:24Z</time>
      </trkpt>
      <trkpt lat="49.22696" lon="6.93047">
        <ele>267.3</ele>
        <time>2014-06-11T08:17:29Z</time>
      </trkpt>
      <trkpt lat="49.22705" lon="6.93034">
        <ele>266.7</ele>
        <time>2014-06-11T08:17:39Z</time>
      </trkpt>
      <trkpt lat="49.2271" lon="6.93027">
        <ele>266.4</ele>
        <time>2014-06-11T08:17:44Z</time>
      </trkpt>
      <trkpt lat="49.22716" lon="6.9302">
        <ele>266.5</ele>
        <time>2014-06-11T08:17:49Z</time>
      </trkpt>
      <trkpt lat="49.2272" lon="6.93012">
        <ele>265.4</ele>
        <time>2014-06-11T08:17:54Z</time>
      </trkpt>
      <trkpt lat="49.22725" lon="6.93006">
        <ele>265.2</ele>
        <time>2014-06-11T08:17:59Z</time>
      </trkpt>
      <trkpt lat="49.22731" lon="6.93001">
        <ele>264.9</ele>
        <time>2014-06-11T08:18:04Z</time>
      </trkpt>
      <trkpt lat="49.22735" lon="6.92995">
        <ele>264.4</ele>
        <time>2014-06-11T08:18:09Z</time>
      </trkpt>
      <trkpt lat="49.2274" lon="6.92989">
        <ele>264.1</ele>
        <time>2014-06-11T08:18:14Z</time>
      </trkpt>
      <trkpt lat="49.22745" lon="6.92983">
        <ele>264</ele>
        <time>2014-06-11T08:18:19Z</time>
      </trkpt>
      <trkpt lat="49.2275" lon="6.92977">
        <ele>263.4</ele>
        <time>2014-06-11T08:18:24Z</time>
      </trkpt>
      <trkpt lat="49.22755" lon="6.92972">
        <ele>263.1</ele>
        <time>2014-06-11T08:18:29Z</time>
      </trkpt>
      <trkpt lat="49.2276" lon="6.92966">
        <ele>262.8</ele>
        <time>2014-06-11T08:18:34Z</time>
      </trkpt>
      <trkpt lat="49.22771" lon="6.92956">
        <ele>262.5</ele>
        <time>2014-06-11T08:18:44Z</time>
      </trkpt>
      <trkpt lat="49.22775" lon="6.92952">
        <ele>262.1</ele>
        <time>2014-06-11T08:18:49Z</time>
      </trkpt>
      <trkpt lat="49.2278" lon="6.92947">
        <ele>261.7</ele>
        <time>2014-06-11T08:18:54Z</time>
      </trkpt>
      <trkpt lat="49.22785" lon="6.92942">
        <ele>261.8</ele>
        <time>2014-06-11T08:18:59Z</time>
      </trkpt>
      <trkpt lat="49.22791" lon="6.92937">
        <ele>261.2</ele>
        <time>2014-06-11T08:19:04Z</time>
      </trkpt>
      <trkpt lat="49.22795" lon="6.92932">
        <ele>260.5</ele>
        <time>2014-06-11T08:19:09Z</time>
      </trkpt>
      <trkpt lat="49.228" lon="6.92927">
        <ele>260</ele>
        <time>2014-06-11T08:19:14Z</time>
      </trkpt>
      <trkpt lat="49.22804" lon="6.92922">
        <ele>260.5</ele>
        <time>2014-06-11T08:19:19Z</time>
      </trkpt>
      <trkpt lat="49.22808" lon="6.9292">
        <ele>260.3</ele>
        <time>2014-06-11T08:19:24Z</time>
      </trkpt>
      <trkpt lat="49.22812" lon="6.92921">
        <ele>259.2</ele>
        <time>2014-06-11T08:19:29Z</time>
      </trkpt>
      <trkpt lat="49.22817" lon="6.92923">
        <ele>258.2</ele>
        <time>2014-06-11T08:19:34Z</time>
      </trkpt>
      <trkpt lat="49.22821" lon="6.92927">
        <ele>257.4</ele>
        <time>2014-06-11T08:19:39Z</time>
      </trkpt>
      <trkpt lat="49.2283" lon="6.92936">
        <ele>255.4</ele>
        <time>2014-06-11T08:19:49Z</time>
      </trkpt>
      <trkpt lat="49.22837" lon="6.92941">
        <ele>254.3</ele>
        <time>2014-06-11T08:19:54Z</time>
      </trkpt>
      <trkpt lat="49.22844" lon="6.92946">
        <ele>253.5</ele>
        <time>2014-06-11T08:19:59Z</time>
      </trkpt>
      <trkpt lat="49.2285" lon="6.92951">
        <ele>252.7</ele>
        <time>2014-06-11T08:20:04Z</time>
      </trkpt>
      <trkpt lat="49.22855" lon="6.92955">
        <ele>251</ele>
        <time>2014-06-11T08:20:09Z</time>
      </trkpt>
      <trkpt lat="49.22859" lon="6.92961">
        <ele>250.6</ele>
        <time>2014-06-11T08:20:14Z</time>
      </trkpt>
      <trkpt lat="49.22864" lon="6.92966">
        <ele>249.9</ele>
        <time>2014-06-11T08:20:19Z</time>
      </trkpt>
      <trkpt lat="49.22868" lon="6.9297">
        <ele>248.6</ele>
        <time>2014-06-11T08:20:24Z</time>
      </trkpt>
      <trkpt lat="49.22873" lon="6.92976">
        <ele>248</ele>
        <time>2014-06-11T08:20:29Z</time>
      </trkpt>
      <trkpt lat="49.22878" lon="6.92981">
        <ele>247.4</ele>
        <time>2014-06-11T08:20:34Z</time>
      </trkpt>
      <trkpt lat="49.22883" lon="6.92987">
        <ele>247</ele>
        <time>2014-06-11T08:20:39Z</time>
      </trkpt>
      <trkpt lat="49.22888" lon="6.92992">
        <ele>246.8</ele>
        <time>2014-06-11T08:20:44Z</time>
      </trkpt>
      <trkpt lat="49.22898" lon="6.93004">
        <ele>245.4</ele>
        <time>2014-06-11T08:20:54Z</time>
      </trkpt>
      <trkpt lat="49.22903" lon="6.93011">
        <ele>245.4</ele>
        <time>2014-06-11T08:20:59Z</time>
      </trkpt>
      <trkpt lat="49.22908" lon="6.93017">
        <ele>245.2</ele>
        <time>2014-06-11T08:21:04Z</time>
      </trkpt>
      <trkpt lat="49.22911" lon="6.93023">
        <ele>244.2</ele>
        <time>2014-06-11T08:21:09Z</time>
      </trkpt>
      <trkpt lat="49.22914" lon="6.93029">
        <ele>243.7</ele>
        <time>2014-06-11T08:21:14Z</time>
      </trkpt>
      <trkpt lat="49.22917" lon="6.93035">
        <ele>242.6</ele>
        <time>2014-06-11T08:21:19Z</time>
      </trkpt>
      <trkpt lat="49.22921" lon="6.9304">
        <ele>241.8</ele>
        <time>2014-06-11T08:21:24Z</time>
      </trkpt>
      <trkpt lat="49.22925" lon="6.93044">
        <ele>241.8</ele>
        <time>2014-06-11T08:21:29Z</time>
      </trkpt>
      <trkpt lat="49.22929" lon="6.9305">
        <ele>241.6</ele>
        <time>2014-06-11T08:21:34Z</time>
      </trkpt>
      <trkpt lat="49.22932" lon="6.93057">
        <ele>240.2</ele>
        <time>2014-06-11T08:21:39Z</time>
      </trkpt>
      <trkpt lat="49.22936" lon="6.93063">
        <ele>240.4</ele>
        <time>2014-06-11T08:21:44Z</time>
      </trkpt>
      <trkpt lat="49.22941" lon="6.93069">
        <ele>240.3</ele>
        <time>2014-06-11T08:21:49Z</time>
      </trkpt>
      <trkpt lat="49.22948" lon="6.93082">
        <ele>238.9</ele>
        <time>2014-06-11T08:21:59Z</time>
      </trkpt>
      <trkpt lat="49.22952" lon="6.93088">
        <ele>239.1</ele>
        <time>2014-06-11T08:22:04Z</time>
      </trkpt>
      <trkpt lat="49.22959" lon="6.93095">
        <ele>238.2</ele>
        <time>2014-06-11T08:22:09Z</time>
      </trkpt>
      <trkpt lat="49.22964" lon="6.93101">
        <ele>238.4</ele>
        <time>2014-06-11T08:22:14Z</time>
      </trkpt>
      <trkpt lat="49.2297" lon="6.93107">
        <ele>238</ele>
        <time>2014-06-11T08:22:19Z</time>
      </trkpt>
      <trkpt lat="49.22975" lon="6.93115">
        <ele>236.9</ele>
        <time>2014-06-11T08:22:24Z</time>
      </trkpt>
      <trkpt lat="49.22979" lon="6.9312">
        <ele>236.2</ele>
        <time>2014-06-11T08:22:29Z</time>
      </trkpt>
      <trkpt lat="49.22984" lon="6.93126">
        <ele>236</ele>
        <time>2014-06-11T08:22:34Z</time>
      </trkpt>
      <trkpt lat="49.2299" lon="6.9313">
        <ele>235.6</ele>
        <time>2014-06-11T08:22:39Z</time>
      </trkpt>
      <trkpt lat="49.22995" lon="6.93135">
        <ele>235.7</ele>
        <time>2014-06-11T08:22:44Z</time>
      </trkpt>
      <trkpt lat="49.23" lon="6.93139">
        <ele>235.6</ele>
        <time>2014-06-11T08:22:49Z</time>
      </trkpt>
      <trkpt lat="49.23005" lon="6.93143">
        <ele>236</ele>
        <time>2014-06-11T08:22:54Z</time>
      </trkpt>
      <trkpt lat="49.23014" lon="6.93152">
        <ele>236</ele>
        <time>2014-06-11T08:23:04Z</time>
      </trkpt>
      <trkpt lat="49.23019" lon="6.93154">
        <ele>236.5</ele>
        <time>2014-06-11T08:23:09Z</time>
      </trkpt>
      <trkpt lat="49.23024" lon="6.93158">
        <ele>236.8</ele>
        <time>2014-06-11T08:23:14Z</time>
      </trkpt>
      <trkpt lat="49.2303" lon="6.93162">
        <ele>237.5</ele>
        <time>2014-06-11T08:23:19Z</time>
      </trkpt>
      <trkpt lat="49.23035" lon="6.93165">
        <ele>237.4</ele>
        <time>2014-06-11T08:23:24Z</time>
      </trkpt>
      <trkpt lat="49.23038" lon="6.9317">
        <ele>238</ele>
        <time>2014-06-11T08:23:29Z</time>
      </trkpt>
      <trkpt lat="49.23043" lon="6.93174">
        <ele>237.6</ele>
        <time>2014-06-11T08:23:34Z</time>
      </trkpt>
      <trkpt lat="49.23049" lon="6.93177">
        <ele>238.5</ele>
        <time>2014-06-11T08:23:39Z</time>
      </trkpt>
      <trkpt lat="49.23054" lon="6.93181">
        <ele>239</ele>
        <time>2014-06-11T08:23:44Z</time>
      </trkpt>
      <trkpt lat="49.2306" lon="6.93185">
        <ele>239.3</ele>
        <time>2014-06-11T08:23:49Z</time>
      </trkpt>
      <trkpt lat="49.23065" lon="6.93189">
        <ele>239.2</ele>
        <time>2014-06-11T08:23:54Z</time>
      </trkpt>
      <trkpt lat="49.2307" lon="6.93193">
        <ele>238.8</ele>
        <time>2014-06-11T08:23:59Z</time>
      </trkpt>
      <trkpt lat="49.23081" lon="6.93201">
        <ele>240</ele>
        <time>2014-06-11T08:24:09Z</time>
      </trkpt>
      <trkpt lat="49.23087" lon="6.93204">
        <ele>239.7</ele>
        <time>2014-06-11T08:24:14Z</time>
      </trkpt>
      <trkpt lat="49.23093" lon="6.93206">
        <ele>240</ele>
        <time>2014-06-11T08:24:19Z</time>
      </trkpt>
      <trkpt lat="49.23099" lon="6.93209">
        <ele>239.6</ele>
        <time>2014-06-11T08:24:24Z</time>
      </trkpt>
      <trkpt lat="49.23106" lon="6.93212">
        <ele>240.2</ele>
        <time>2014-06-11T08:24:29Z</time>
      </trkpt>
      <trkpt lat="49.23111" lon="6.93215">
        <ele>240.2</ele>
        <time>2014-06-11T08:24:34Z</time>
      </trkpt>
      <trkpt lat="49.23118" lon="6.93217">
        <ele>239.9</ele>
        <time>2014-06-11T08:24:39Z</time>
      </trkpt>
      <trkpt lat="49.23123" lon="6.93218">
        <ele>238.7</ele>
        <time>2014-06-11T08:24:44Z</time>
      </trkpt>
      <trkpt lat="49.2313" lon="6.9322">
        <ele>239.3</ele>
        <time>2014-06-11T08:24:49Z</time>
      </trkpt>
      <trkpt lat="49.23136" lon="6.93223">
        <ele>238.6</ele>
        <time>2014-06-11T08:24:54Z</time>
      </trkpt>
      <trkpt lat="49.23142" lon="6.93226">
        <ele>238.6</ele>
        <time>2014-06-11T08:24:59Z</time>
      </trkpt>
      <trkpt lat="49.23148" lon="6.9323">
        <ele>238.6</ele>
        <time>2014-06-11T08:25:04Z</time>
      </trkpt>
      <trkpt lat="49.2316" lon="6.9324">
        <ele>239.2</ele>
        <time>2014-06-11T08:25:14Z</time>
      </trkpt>
      <trkpt lat="49.23166" lon="6.93245">
        <ele>239</ele>
        <time>2014-06-11T08:25:19Z</time>
      </trkpt>
      <trkpt lat="49.2317" lon="6.93251">
        <ele>239.7</ele>
        <time>2014-06-11T08:25:24Z</time>
      </trkpt>
      <trkpt lat="49.23174" lon="6.93255">
        <ele>240.6</ele>
        <time>2014-06-11T08:25:29Z</time>
      </trkpt>
      <trkpt lat="49.23178" lon="6.9326">
        <ele>241.6</ele>
        <time>2014-06-11T08:25:34Z</time>
      </trkpt>
      <trkpt lat="49.23183" lon="6.93264">
        <ele>241.4</ele>
        <time>2014-06-11T08:25:39Z</time>
      </trkpt>
      <trkpt lat="49.23188" lon="6.93269">
        <ele>241.4</ele>
        <time>2014-06-11T08:25:44Z</time>
      </trkpt>
      <trkpt lat="49.23194" lon="6.93274">
        <ele>241.4</ele>
        <time>2014-06-11T08:25:49Z</time>
      </trkpt>
      <trkpt lat="49.232" lon="6.93278">
        <ele>241.8</ele>
        <time>2014-06-11T08:25:54Z</time>
      </trkpt>
      <trkpt lat="49.23205" lon="6.93279">
        <ele>241.8</ele>
        <time>2014-06-11T08:25:59Z</time>
      </trkpt>
      <trkpt lat="49.23209" lon="6.93281">
        <ele>241.7</ele>
        <time>2014-06-11T08:26:04Z</time>
      </trkpt>
      <trkpt lat="49.23212" lon="6.93285">
        <ele>241.5</ele>
        <time>2014-06-11T08:26:09Z</time>
      </trkpt>
      <trkpt lat="49.23218" lon="6.93299">
        <ele>239.9</ele>
        <time>2014-06-11T08:26:19Z</time>
      </trkpt>
      <trkpt lat="49.23221" lon="6.93307">
        <ele>238.8</ele>
        <time>2014-06-11T08:26:24Z</time>
      </trkpt>
      <trkpt lat="49.23223" lon="6.93314">
        <ele>238.3</ele>
        <time>2014-06-11T08:26:29Z</time>
      </trkpt>
      <trkpt lat="49.23226" lon="6.9332">
        <ele>237.9</ele>
        <time>2014-06-11T08:26:34Z</time>
      </trkpt>
      <trkpt lat="49.23228" lon="6.93327">
        <ele>237.2</ele>
        <time>2014-06-11T08:26:39Z</time>
      </trkpt>
      <trkpt lat="49.2323" lon="6.93332">
        <ele>236</ele>
        <time>2014-06-11T08:26:44Z</time>
      </trkpt>
      <trkpt lat="49.23231" lon="6.93341">
        <ele>235.3</ele>
        <time>2014-06-11T08:26:49Z</time>
      </trkpt>
      <trkpt lat="49.23232" lon="6.93349">
        <ele>234.3</ele>
        <time>2014-06-11T08:26:54Z</time>
      </trkpt>
      <trkpt lat="49.23234" lon="6.93357">
        <ele>233.1</ele>
        <time>2014-06-11T08:26:59Z</time>
      </trkpt>
      <trkpt lat="49.23235" lon="6.93366">
        <ele>232.9</ele>
        <time>2014-06-11T08:27:04Z</time>
      </trkpt>
      <trkpt lat="49.23238" lon="6.93374">
        <ele>232.5</ele>
        <time>2014-06-11T08:27:09Z</time>
      </trkpt>
      <trkpt lat="49.23238" lon="6.93382">
        <ele>231.9</ele>
        <time>2014-06-11T08:27:14Z</time>
      </trkpt>
      <trkpt lat="49.23242" lon="6.93399">
        <ele>230.1</ele>
        <time>2014-06-11T08:27:24Z</time>
      </trkpt>
      <trkpt lat="49.23245" lon="6.93407">
        <ele>229.1</ele>
        <time>2014-06-11T08:27:29Z</time>
      </trkpt>
      <trkpt lat="49.23246" lon="6.93416">
        <ele>227</ele>
        <time>2014-06-11T08:27:34Z</time>
      </trkpt>
      <trkpt lat="49.23247" lon="6.93424">
        <ele>226.4</ele>
        <time>2014-06-11T08:27:39Z</time>
      </trkpt>
      <trkpt lat="49.23248" lon="6.93435">
        <ele>226.2</ele>
        <time>2014-06-11T08:27:44Z</time>
      </trkpt>
      <trkpt lat="49.23249" lon="6.93445">
        <ele>225.4</ele>
        <time>2014-06-11T08:27:49Z</time>
      </trkpt>
      <trkpt lat="49.23251" lon="6.93455">
        <ele>224</ele>
        <time>2014-06-11T08:27:54Z</time>
      </trkpt>
      <trkpt lat="49.23252" lon="6.93463">
        <ele>222.7</ele>
        <time>2014-06-11T08:27:59Z</time>
      </trkpt>
      <trkpt lat="49.23253" lon="6.93473">
        <ele>222.2</ele>
        <time>2014-06-11T08:28:04Z</time>
      </trkpt>
      <trkpt lat="49.23253" lon="6.93483">
        <ele>221.3</ele>
        <time>2014-06-11T08:28:09Z</time>
      </trkpt>
      <trkpt lat="49.23252" lon="6.93494">
        <ele>220.1</ele>
        <time>2014-06-11T08:28:14Z</time>
      </trkpt>
      <trkpt lat="49.23249" lon="6.93505">
        <ele>219.4</ele>
        <time>2014-06-11T08:28:19Z</time>
      </trkpt>
      <trkpt lat="49.23249" lon="6.93526">
        <ele>217.8</ele>
        <time>2014-06-11T08:28:29Z</time>
      </trkpt>
      <trkpt lat="49.23249" lon="6.93535">
        <ele>217.1</ele>
        <time>2014-06-11T08:28:34Z</time>
      </trkpt>
      <trkpt lat="49.23249" lon="6.93544">
        <ele>216.2</ele>
        <time>2014-06-11T08:28:39Z</time>
      </trkpt>
      <trkpt lat="49.23249" lon="6.93553">
        <ele>214.7</ele>
        <time>2014-06-11T08:28:44Z</time>
      </trkpt>
      <trkpt lat="49.23249" lon="6.93563">
        <ele>213.9</ele>
        <time>2014-06-11T08:28:49Z</time>
      </trkpt>
      <trkpt lat="49.2325" lon="6.93573">
        <ele>212.7</ele>
        <time>2014-06-11T08:28:54Z</time>
      </trkpt>
      <trkpt lat="49.23251" lon="6.93582">
        <ele>211.7</ele>
        <time>2014-06-11T08:28:59Z</time>
      </trkpt>
      <trkpt lat="49.23252" lon="6.93593">
        <ele>210.7</ele>
        <time>2014-06-11T08:29:04Z</time>
      </trkpt>
      <trkpt lat="49.23252" lon="6.93602">
        <ele>209.9</ele>
        <time>2014-06-11T08:29:09Z</time>
      </trkpt>
      <trkpt lat="49.23253" lon="6.93612">
        <ele>209.6</ele>
        <time>2014-06-11T08:29:14Z</time>
      </trkpt>
      <trkpt lat="49.23254" lon="6.93621">
        <ele>209.3</ele>
        <time>2014-06-11T08:29:19Z</time>
      </trkpt>
      <trkpt lat="49.23256" lon="6.9363">
        <ele>208.2</ele>
        <time>2014-06-11T08:29:24Z</time>
      </trkpt>
      <trkpt lat="49.2326" lon="6.93647">
        <ele>207.9</ele>
        <time>2014-06-11T08:29:34Z</time>
      </trkpt>
      <trkpt lat="49.23262" lon="6.93656">
        <ele>207.1</ele>
        <time>2014-06-11T08:29:39Z</time>
      </trkpt>
      <trkpt lat="49.23263" lon="6.93665">
        <ele>207.5</ele>
        <time>2014-06-11T08:29:44Z</time>
      </trkpt>
      <trkpt lat="49.23266" lon="6.93673">
        <ele>207.2</ele>
        <time>2014-06-11T08:29:49Z</time>
      </trkpt>
      <trkpt lat="49.23268" lon="6.93681">
        <ele>206.9</ele>
        <time>2014-06-11T08:29:54Z</time>
      </trkpt>
      <trkpt lat="49.23271" lon="6.93689">
        <ele>205.8</ele>
        <time>2014-06-11T08:29:59Z</time>
      </trkpt>
      <trkpt lat="49.23272" lon="6.93697">
        <ele>205.8</ele>
        <time>2014-06-11T08:30:04Z</time>
      </trkpt>
      <trkpt lat="49.23274" lon="6.93706">
        <ele>206.2</ele>
        <time>2014-06-11T08:30:09Z</time>
      </trkpt>
      <trkpt lat="49.23276" lon="6.93714">
        <ele>205.4</ele>
        <time>2014-06-11T08:30:14Z</time>
      </trkpt>
      <trkpt lat="49.23278" lon="6.93722">
        <ele>205.4</ele>
        <time>2014-06-11T08:30:19Z</time>
      </trkpt>
      <trkpt lat="49.2328" lon="6.93731">
        <ele>205.2</ele>
        <time>2014-06-11T08:30:24Z</time>
      </trkpt>
      <trkpt lat="49.23281" lon="6.93741">
        <ele>205.3</ele>
        <time>2014-06-11T08:30:29Z</time>
      </trkpt>
      <trkpt lat="49.23286" lon="6.93758">
        <ele>204.8</ele>
        <time>2014-06-11T08:30:39Z</time>
      </trkpt>
      <trkpt lat="49.23288" lon="6.93768">
        <ele>204.6</ele>
        <time>2014-06-11T08:30:44Z</time>
      </trkpt>
      <trkpt lat="49.23289" lon="6.93778">
        <ele>204</ele>
        <time>2014-06-11T08:30:49Z</time>
      </trkpt>
      <trkpt lat="49.23291" lon="6.93787">
        <ele>204.1</ele>
        <time>2014-06-11T08:30:54Z</time>
      </trkpt>
      <trkpt lat="49.23294" lon="6.93795">
        <ele>204.1</ele>
        <time>2014-06-11T08:30:59Z</time>
      </trkpt>
      <trkpt lat="49.23298" lon="6.93803">
        <ele>204.2</ele>
        <time>2014-06-11T08:31:04Z</time>
      </trkpt>
      <trkpt lat="49.23299" lon="6.93813">
        <ele>203.8</ele>
        <time>2014-06-11T08:31:09Z</time>
      </trkpt>
      <trkpt lat="49.23303" lon="6.93819">
        <ele>203.5</ele>
        <time>2014-06-11T08:31:14Z</time>
      </trkpt>
      <trkpt lat="49.23306" lon="6.93828">
        <ele>203.4</ele>
        <time>2014-06-11T08:31:19Z</time>
      </trkpt>
      <trkpt lat="49.23311" lon="6.93837">
        <ele>203.3</ele>
        <time>2014-06-11T08:31:24Z</time>
      </trkpt>
      <trkpt lat="49.23315" lon="6.93845">
        <ele>203.1</ele>
        <time>2014-06-11T08:31:29Z</time>
      </trkpt>
      <trkpt lat="49.23319" lon="6.93852">
        <ele>203.4</ele>
        <time>2014-06-11T08:31:34Z</time>
      </trkpt>
      <trkpt lat="49.23328" lon="6.93862">
        <ele>202.6</ele>
        <time>2014-06-11T08:31:44Z</time>
      </trkpt>
      <trkpt lat="49.23333" lon="6.93867">
        <ele>201.9</ele>
        <time>2014-06-11T08:31:49Z</time>
      </trkpt>
      <trkpt lat="49.23338" lon="6.93873">
        <ele>201.5</ele>
        <time>2014-06-11T08:31:54Z</time>
      </trkpt>
      <trkpt lat="49.23343" lon="6.93877">
        <ele>201.6</ele>
        <time>2014-06-11T08:31:59Z</time>
      </trkpt>
      <trkpt lat="49.23348" lon="6.93883">
        <ele>200.7</ele>
        <time>2014-06-11T08:32:04Z</time>
      </trkpt>
      <trkpt lat="49.23353" lon="6.93888">
        <ele>200.1</ele>
        <time>2014-06-11T08:32:09Z</time>
      </trkpt>
      <trkpt lat="49.23358" lon="6.93894">
        <ele>199.7</ele>
        <time>2014-06-11T08:32:14Z</time>
      </trkpt>
      <trkpt lat="49.23362" lon="6.939">
        <ele>199.4</ele>
        <time>2014-06-11T08:32:19Z</time>
      </trkpt>
      <trkpt lat="49.23367" lon="6.93904">
        <ele>199.4</ele>
        <time>2014-06-11T08:32:24Z</time>
      </trkpt>
      <trkpt lat="49.23373" lon="6.93909">
        <ele>199.3</ele>
        <time>2014-06-11T08:32:29Z</time>
      </trkpt>
      <trkpt lat="49.23379" lon="6.93915">
        <ele>199</ele>
        <time>2014-06-11T08:32:34Z</time>
      </trkpt>
      <trkpt lat="49.23384" lon="6.93921">
        <ele>198.4</ele>
        <time>2014-06-11T08:32:39Z</time>
      </trkpt>
      <trkpt lat="49.23392" lon="6.93931">
        <ele>198.1</ele>
        <time>2014-06-11T08:32:49Z</time>
      </trkpt>
      <trkpt lat="49.23396" lon="6.93937">
        <ele>197.5</ele>
        <time>2014-06-11T08:32:54Z</time>
      </trkpt>
      <trkpt lat="49.23401" lon="6.93943">
        <ele>198.1</ele>
        <time>2014-06-11T08:32:59Z</time>
      </trkpt>
      <trkpt lat="49.23404" lon="6.93949">
        <ele>198.1</ele>
        <time>2014-06-11T08:33:04Z</time>
      </trkpt>
      <trkpt lat="49.23409" lon="6.93954">
        <ele>198.1</ele>
        <time>2014-06-11T08:33:09Z</time>
      </trkpt>
      <trkpt lat="49.23413" lon="6.93959">
        <ele>197.4</ele>
        <time>2014-06-11T08:33:14Z</time>
      </trkpt>
      <trkpt lat="49.23419" lon="6.93964">
        <ele>196.6</ele>
        <time>2014-06-11T08:33:19Z</time>
      </trkpt>
      <trkpt lat="49.23425" lon="6.93969">
        <ele>197</ele>
        <time>2014-06-11T08:33:24Z</time>
      </trkpt>
      <trkpt lat="49.23429" lon="6.93975">
        <ele>196.2</ele>
        <time>2014-06-11T08:33:29Z</time>
      </trkpt>
      <trkpt lat="49.23433" lon="6.93981">
        <ele>196.4</ele>
        <time>2014-06-11T08:33:34Z</time>
      </trkpt>
      <trkpt lat="49.23437" lon="6.93985">
        <ele>196.3</ele>
        <time>2014-06-11T08:33:39Z</time>
      </trkpt>
      <trkpt lat="49.23443" lon="6.93988">
        <ele>195.6</ele>
        <time>2014-06-11T08:33:44Z</time>
      </trkpt>
      <trkpt lat="49.23455" lon="6.93994">
        <ele>195.8</ele>
        <time>2014-06-11T08:33:54Z</time>
      </trkpt>
      <trkpt lat="49.23461" lon="6.93998">
        <ele>195.4</ele>
        <time>2014-06-11T08:33:59Z</time>
      </trkpt>
      <trkpt lat="49.23466" lon="6.94002">
        <ele>195.2</ele>
        <time>2014-06-11T08:34:04Z</time>
      </trkpt>
      <trkpt lat="49.23473" lon="6.94007">
        <ele>194.7</ele>
        <time>2014-06-11T08:34:09Z</time>
      </trkpt>
      <trkpt lat="49.2348" lon="6.94011">
        <ele>194.4</ele>
        <time>2014-06-11T08:34:14Z</time>
      </trkpt>
      <trkpt lat="49.23487" lon="6.94017">
        <ele>194.3</ele>
        <time>2014-06-11T08:34:19Z</time>
      </trkpt>
      <trkpt lat="49.23493" lon="6.94022">
        <ele>193.5</ele>
        <time>2014-06-11T08:34:24Z</time>
      </trkpt>
      <trkpt lat="49.23498" lon="6.94028">
        <ele>193.1</ele>
        <time>2014-06-11T08:34:29Z</time>
      </trkpt>
      <trkpt lat="49.23504" lon="6.94031">
        <ele>193.1</ele>
        <time>2014-06-11T08:34:34Z</time>
      </trkpt>
      <trkpt lat="49.23509" lon="6.94037">
        <ele>192.2</ele>
        <time>2014-06-11T08:34:39Z</time>
      </trkpt>
      <trkpt lat="49.23514" lon="6.94044">
        <ele>192.2</ele>
        <time>2014-06-11T08:34:44Z</time>
      </trkpt>
      <trkpt lat="49.23519" lon="6.9405">
        <ele>192.7</ele>
        <time>2014-06-11T08:34:49Z</time>
      </trkpt>
      <trkpt lat="49.2353" lon="6.94062">
        <ele>191.8</ele>
        <time>2014-06-11T08:34:59Z</time>
      </trkpt>
      <trkpt lat="49.23536" lon="6.94067">
        <ele>190.8</ele>
        <time>2014-06-11T08:35:04Z</time>
      </trkpt>
      <trkpt lat="49.23541" lon="6.94073">
        <ele>191</ele>
        <time>2014-06-11T08:35:09Z</time>
      </trkpt>
      <trkpt lat="49.23545" lon="6.9408">
        <ele>190.6</ele>
        <time>2014-06-11T08:35:14Z</time>
      </trkpt>
      <trkpt lat="49.2355" lon="6.94086">
        <ele>189.8</ele>
        <time>2014-06-11T08:35:19Z</time>
      </trkpt>
      <trkpt lat="49.23554" lon="6.94091">
        <ele>190.3</ele>
        <time>2014-06-11T08:35:24Z</time>
      </trkpt>
      <trkpt lat="49.23559" lon="6.94096">
        <ele>190.1</ele>
        <time>2014-06-11T08:35:29Z</time>
      </trkpt>
      <trkpt lat="49.23564" lon="6.94102">
        <ele>188.6</ele>
        <time>2014-06-11T08:35:34Z</time>
      </trkpt>
      <trkpt lat="49.23572" lon="6.94107">
        <ele>188.8</ele>
        <time>2014-06-11T08:35:39Z</time>
      </trkpt>
      <trkpt lat="49.23578" lon="6.94112">
        <ele>188.8</ele>
        <time>2014-06-11T08:35:44Z</time>
      </trkpt>
      <trkpt lat="49.23585" lon="6.94119">
        <ele>189.4</ele>
        <time>2014-06-11T08:35:49Z</time>
      </trkpt>
      <trkpt lat="49.23593" lon="6.94125">
        <ele>188.7</ele>
        <time>2014-06-11T08:35:54Z</time>
      </trkpt>
      <trkpt lat="49.23603" lon="6.94138">
        <ele>187.6</ele>
        <time>2014-06-11T08:36:04Z</time>
      </trkpt>
      <trkpt lat="49.23607" lon="6.94145">
        <ele>187.4</ele>
        <time>2014-06-11T08:36:09Z</time>
      </trkpt>
      <trkpt lat="49.23611" lon="6.94151">
        <ele>186.5</ele>
        <time>2014-06-11T08:36:14Z</time>
      </trkpt>
      <trkpt lat="49.23616" lon="6.94157">
        <ele>186.4</ele>
        <time>2014-06-11T08:36:19Z</time>
      </trkpt>
      <trkpt lat="49.23625" lon="6.94162">
        <ele>185.9</ele>
        <time>2014-06-11T08:36:24Z</time>
      </trkpt>
      <trkpt lat="49.23633" lon="6.94168">
        <ele>185.9</ele>
        <time>2014-06-11T08:36:29Z</time>
      </trkpt>
      <trkpt lat="49.23639" lon="6.94171">
        <ele>186</ele>
        <time>2014-06-11T08:36:34Z</time>
      </trkpt>
      <trkpt lat="49.23642" lon="6.94173">
        <ele>186</ele>
        <time>2014-06-11T08:36:39Z</time>
      </trkpt>
      <trkpt lat="49.23648" lon="6.94176">
        <ele>186.1</ele>
        <time>2014-06-11T08:36:44Z</time>
      </trkpt>
      <trkpt lat="49.23654" lon="6.94181">
        <ele>185.4</ele>
        <time>2014-06-11T08:36:49Z</time>
      </trkpt>
      <trkpt lat="49.23656" lon="6.94189">
        <ele>184.6</ele>
        <time>2014-06-11T08:36:54Z</time>
      </trkpt>
      <trkpt lat="49.23657" lon="6.94198">
        <ele>185.2</ele>
        <time>2014-06-11T08:36:59Z</time>
      </trkpt>
      <trkpt lat="49.2366" lon="6.94216">
        <ele>185</ele>
        <time>2014-06-11T08:37:09Z</time>
      </trkpt>
      <trkpt lat="49.23661" lon="6.94225">
        <ele>184.8</ele>
        <time>2014-06-11T08:37:14Z</time>
      </trkpt>
      <trkpt lat="49.23662" lon="6.94232">
        <ele>184.7</ele>
        <time>2014-06-11T08:37:19Z</time>
      </trkpt>
      <trkpt lat="49.23661" lon="6.94235">
        <ele>185.2</ele>
        <time>2014-06-11T08:37:24Z</time>
      </trkpt>
      <trkpt lat="49.23659" lon="6.94237">
        <ele>185.1</ele>
        <time>2014-06-11T08:37:29Z</time>
      </trkpt>
      <trkpt lat="49.23652" lon="6.9424">
        <ele>185.5</ele>
        <time>2014-06-11T08:37:34Z</time>
      </trkpt>
      <trkpt lat="49.23646" lon="6.94244">
        <ele>185.8</ele>
        <time>2014-06-11T08:37:39Z</time>
      </trkpt>
      <trkpt lat="49.2364" lon="6.94251">
        <ele>187.5</ele>
        <time>2014-06-11T08:37:44Z</time>
      </trkpt>
      <trkpt lat="49.23637" lon="6.94257">
        <ele>188.5</ele>
        <time>2014-06-11T08:37:49Z</time>
      </trkpt>
      <trkpt lat="49.23632" lon="6.94263">
        <ele>189</ele>
        <time>2014-06-11T08:37:54Z</time>
      </trkpt>
      <trkpt lat="49.23628" lon="6.94269">
        <ele>189.8</ele>
        <time>2014-06-11T08:37:59Z</time>
      </trkpt>
      <trkpt lat="49.23622" lon="6.94275">
        <ele>189.6</ele>
        <time>2014-06-11T08:38:04Z</time>
      </trkpt>
      <trkpt lat="49.2361" lon="6.94285">
        <ele>192.2</ele>
        <time>2014-06-11T08:38:14Z</time>
      </trkpt>
      <trkpt lat="49.23604" lon="6.9429">
        <ele>193.5</ele>
        <time>2014-06-11T08:38:19Z</time>
      </trkpt>
      <trkpt lat="49.23598" lon="6.94296">
        <ele>194.1</ele>
        <time>2014-06-11T08:38:24Z</time>
      </trkpt>
      <trkpt lat="49.23595" lon="6.94305">
        <ele>194.5</ele>
        <time>2014-06-11T08:38:29Z</time>
      </trkpt>
      <trkpt lat="49.23593" lon="6.94315">
        <ele>195.2</ele>
        <time>2014-06-11T08:38:34Z</time>
      </trkpt>
      <trkpt lat="49.23592" lon="6.94325">
        <ele>195.4</ele>
        <time>2014-06-11T08:38:39Z</time>
      </trkpt>
      <trkpt lat="49.23592" lon="6.94333">
        <ele>196.6</ele>
        <time>2014-06-11T08:38:44Z</time>
      </trkpt>
      <trkpt lat="49.23592" lon="6.94342">
        <ele>196.6</ele>
        <time>2014-06-11T08:38:49Z</time>
      </trkpt>
      <trkpt lat="49.23592" lon="6.9435">
        <ele>198</ele>
        <time>2014-06-11T08:38:54Z</time>
      </trkpt>
      <trkpt lat="49.2359" lon="6.94357">
        <ele>199.2</ele>
        <time>2014-06-11T08:38:59Z</time>
      </trkpt>
      <trkpt lat="49.23588" lon="6.94364">
        <ele>199.8</ele>
        <time>2014-06-11T08:39:04Z</time>
      </trkpt>
      <trkpt lat="49.23585" lon="6.94369">
        <ele>200.5</ele>
        <time>2014-06-11T08:39:09Z</time>
      </trkpt>
      <trkpt lat="49.23577" lon="6.94379">
        <ele>202.4</ele>
        <time>2014-06-11T08:39:19Z</time>
      </trkpt>
      <trkpt lat="49.23572" lon="6.94386">
        <ele>202.7</ele>
        <time>2014-06-11T08:39:24Z</time>
      </trkpt>
      <trkpt lat="49.23566" lon="6.94392">
        <ele>204.1</ele>
        <time>2014-06-11T08:39:29Z</time>
      </trkpt>
      <trkpt lat="49.2356" lon="6.94397">
        <ele>204.3</ele>
        <time>2014-06-11T08:39:34Z</time>
      </trkpt>
      <trkpt lat="49.23554" lon="6.94403">
        <ele>205</ele>
        <time>2014-06-11T08:39:39Z</time>
      </trkpt>
      <trkpt lat="49.23549" lon="6.94409">
        <ele>206.3</ele>
        <time>2014-06-11T08:39:44Z</time>
      </trkpt>
      <trkpt lat="49.23546" lon="6.94416">
        <ele>207.1</ele>
        <time>2014-06-11T08:39:49Z</time>
      </trkpt>
      <trkpt lat="49.23541" lon="6.94424">
        <ele>207.7</ele>
        <time>2014-06-11T08:39:54Z</time>
      </trkpt>
      <trkpt lat="49.23537" lon="6.94432">
        <ele>208.6</ele>
        <time>2014-06-11T08:39:59Z</time>
      </trkpt>
      <trkpt lat="49.23535" lon="6.94439">
        <ele>209.3</ele>
        <time>2014-06-11T08:40:04Z</time>
      </trkpt>
      <trkpt lat="49.23531" lon="6.94445">
        <ele>210.3</ele>
        <time>2014-06-11T08:40:09Z</time>
      </trkpt>
      <trkpt lat="49.23528" lon="6.94453">
        <ele>210.7</ele>
        <time>2014-06-11T08:40:14Z</time>
      </trkpt>
      <trkpt lat="49.23521" lon="6.94468">
        <ele>211.4</ele>
        <time>2014-06-11T08:40:24Z</time>
      </trkpt>
      <trkpt lat="49.23518" lon="6.94474">
        <ele>212.3</ele>
        <time>2014-06-11T08:40:29Z</time>
      </trkpt>
      <trkpt lat="49.23512" lon="6.94482">
        <ele>213.1</ele>
        <time>2014-06-11T08:40:34Z</time>
      </trkpt>
      <trkpt lat="49.23508" lon="6.94488">
        <ele>214.6</ele>
        <time>2014-06-11T08:40:39Z</time>
      </trkpt>
      <trkpt lat="49.23503" lon="6.94494">
        <ele>215.1</ele>
        <time>2014-06-11T08:40:44Z</time>
      </trkpt>
      <trkpt lat="49.23498" lon="6.94499">
        <ele>215.9</ele>
        <time>2014-06-11T08:40:49Z</time>
      </trkpt>
      <trkpt lat="49.23492" lon="6.94505">
        <ele>216.6</ele>
        <time>2014-06-11T08:40:54Z</time>
      </trkpt>
      <trkpt lat="49.23485" lon="6.94512">
        <ele>217.6</ele>
        <time>2014-06-11T08:40:59Z</time>
      </trkpt>
      <trkpt lat="49.2348" lon="6.94517">
        <ele>217.9</ele>
        <time>2014-06-11T08:41:04Z</time>
      </trkpt>
      <trkpt lat="49.23475" lon="6.94523">
        <ele>218.5</ele>
        <time>2014-06-11T08:41:09Z</time>
      </trkpt>
      <trkpt lat="49.2347" lon="6.94529">
        <ele>218.8</ele>
        <time>2014-06-11T08:41:14Z</time>
      </trkpt>
      <trkpt lat="49.23464" lon="6.94536">
        <ele>218.9</ele>
        <time>2014-06-11T08:41:19Z</time>
      </trkpt>
      <trkpt lat="49.2345" lon="6.94544">
        <ele>221</ele>
        <time>2014-06-11T08:41:29Z</time>
      </trkpt>
      <trkpt lat="49.23442" lon="6.94546">
        <ele>222.3</ele>
        <time>2014-06-11T08:41:34Z</time>
      </trkpt>
      <trkpt lat="49.23435" lon="6.94546">
        <ele>223</ele>
        <time>2014-06-11T08:41:39Z</time>
      </trkpt>
      <trkpt lat="49.23428" lon="6.94545">
        <ele>223.3</ele>
        <time>2014-06-11T08:41:44Z</time>
      </trkpt>
      <trkpt lat="49.23421" lon="6.94544">
        <ele>223.4</ele>
        <time>2014-06-11T08:41:49Z</time>
      </trkpt>
      <trkpt lat="49.23415" lon="6.94543">
        <ele>223.7</ele>
        <time>2014-06-11T08:41:54Z</time>
      </trkpt>
      <trkpt lat="49.2341" lon="6.94544">
        <ele>224.5</ele>
        <time>2014-06-11T08:41:59Z</time>
      </trkpt>
      <trkpt lat="49.23406" lon="6.94548">
        <ele>224.8</ele>
        <time>2014-06-11T08:42:04Z</time>
      </trkpt>
      <trkpt lat="49.23403" lon="6.94555">
        <ele>225.6</ele>
        <time>2014-06-11T08:42:09Z</time>
      </trkpt>
      <trkpt lat="49.23401" lon="6.94564">
        <ele>225.8</ele>
        <time>2014-06-11T08:42:14Z</time>
      </trkpt>
      <trkpt lat="49.23401" lon="6.94573">
        <ele>225.6</ele>
        <time>2014-06-11T08:42:19Z</time>
      </trkpt>
      <trkpt lat="49.23403" lon="6.94583">
        <ele>225.1</ele>
        <time>2014-06-11T08:42:24Z</time>
      </trkpt>
      <trkpt lat="49.23407" lon="6.94601">
        <ele>225.8</ele>
        <time>2014-06-11T08:42:34Z</time>
      </trkpt>
      <trkpt lat="49.2341" lon="6.94609">
        <ele>226</ele>
        <time>2014-06-11T08:42:39Z</time>
      </trkpt>
      <trkpt lat="49.23412" lon="6.94619">
        <ele>226.8</ele>
        <time>2014-06-11T08:42:44Z</time>
      </trkpt>
      <trkpt lat="49.23414" lon="6.94628">
        <ele>226</ele>
        <time>2014-06-11T08:42:49Z</time>
      </trkpt>
      <trkpt lat="49.23414" lon="6.94637">
        <ele>225.6</ele>
        <time>2014-06-11T08:42:54Z</time>
      </trkpt>
      <trkpt lat="49.23414" lon="6.94646">
        <ele>226</ele>
        <time>2014-06-11T08:42:59Z</time>
      </trkpt>
      <trkpt lat="49.23413" lon="6.94655">
        <ele>226.3</ele>
        <time>2014-06-11T08:43:04Z</time>
      </trkpt>
      <trkpt lat="49.23412" lon="6.94664">
        <ele>226.5</ele>
        <time>2014-06-11T08:43:09Z</time>
      </trkpt>
      <trkpt lat="49.23411" lon="6.94673">
        <ele>225.7</ele>
        <time>2014-06-11T08:43:14Z</time>
      </trkpt>
      <trkpt lat="49.23409" lon="6.94683">
        <ele>226</ele>
        <time>2014-06-11T08:43:19Z</time>
      </trkpt>
      <trkpt lat="49.23406" lon="6.94691">
        <ele>226.7</ele>
        <time>2014-06-11T08:43:24Z</time>
      </trkpt>
      <trkpt lat="49.23404" lon="6.94699">
        <ele>226</ele>
        <time>2014-06-11T08:43:29Z</time>
      </trkpt>
      <trkpt lat="49.234" lon="6.94719">
        <ele>226.4</ele>
        <time>2014-06-11T08:43:39Z</time>
      </trkpt>
      <trkpt lat="49.23399" lon="6.94728">
        <ele>226.6</ele>
        <time>2014-06-11T08:43:44Z</time>
      </trkpt>
      <trkpt lat="49.234" lon="6.94737">
        <ele>226.3</ele>
        <time>2014-06-11T08:43:49Z</time>
      </trkpt>
      <trkpt lat="49.23398" lon="6.94749">
        <ele>226.6</ele>
        <time>2014-06-11T08:43:54Z</time>
      </trkpt>
      <trkpt lat="49.23398" lon="6.94759">
        <ele>226.9</ele>
        <time>2014-06-11T08:43:59Z</time>
      </trkpt>
      <trkpt lat="49.23397" lon="6.94769">
        <ele>226.8</ele>
        <time>2014-06-11T08:44:04Z</time>
      </trkpt>
      <trkpt lat="49.23396" lon="6.94779">
        <ele>227</ele>
        <time>2014-06-11T08:44:09Z</time>
      </trkpt>
      <trkpt lat="49.23396" lon="6.94788">
        <ele>226.7</ele>
        <time>2014-06-11T08:44:14Z</time>
      </trkpt>
      <trkpt lat="49.23397" lon="6.94795">
        <ele>226.8</ele>
        <time>2014-06-11T08:44:19Z</time>
      </trkpt>
      <trkpt lat="49.234" lon="6.94801">
        <ele>225.8</ele>
        <time>2014-06-11T08:44:24Z</time>
      </trkpt>
      <trkpt lat="49.23404" lon="6.94807">
        <ele>225.4</ele>
        <time>2014-06-11T08:44:29Z</time>
      </trkpt>
      <trkpt lat="49.23408" lon="6.94813">
        <ele>225.3</ele>
        <time>2014-06-11T08:44:34Z</time>
      </trkpt>
      <trkpt lat="49.23416" lon="6.94825">
        <ele>224.3</ele>
        <time>2014-06-11T08:44:44Z</time>
      </trkpt>
      <trkpt lat="49.23419" lon="6.94832">
        <ele>223.5</ele>
        <time>2014-06-11T08:44:49Z</time>
      </trkpt>
      <trkpt lat="49.23424" lon="6.94838">
        <ele>223.5</ele>
        <time>2014-06-11T08:44:54Z</time>
      </trkpt>
      <trkpt lat="49.23429" lon="6.94843">
        <ele>223.1</ele>
        <time>2014-06-11T08:44:59Z</time>
      </trkpt>
      <trkpt lat="49.23433" lon="6.94849">
        <ele>222.3</ele>
        <time>2014-06-11T08:45:04Z</time>
      </trkpt>
      <trkpt lat="49.23436" lon="6.94855">
        <ele>221.5</ele>
        <time>2014-06-11T08:45:09Z</time>
      </trkpt>
      <trkpt lat="49.23436" lon="6.94861">
        <ele>221.9</ele>
        <time>2014-06-11T08:45:14Z</time>
      </trkpt>
      <trkpt lat="49.23435" lon="6.94867">
        <ele>221.6</ele>
        <time>2014-06-11T08:45:19Z</time>
      </trkpt>
      <trkpt lat="49.23432" lon="6.94873">
        <ele>221.9</ele>
        <time>2014-06-11T08:45:24Z</time>
      </trkpt>
      <trkpt lat="49.23429" lon="6.94881">
        <ele>221.5</ele>
        <time>2014-06-11T08:45:29Z</time>
      </trkpt>
      <trkpt lat="49.23426" lon="6.94888">
        <ele>222.3</ele>
        <time>2014-06-11T08:45:34Z</time>
      </trkpt>
      <trkpt lat="49.23422" lon="6.94896">
        <ele>222.4</ele>
        <time>2014-06-11T08:45:39Z</time>
      </trkpt>
      <trkpt lat="49.23414" lon="6.94912">
        <ele>224.2</ele>
        <time>2014-06-11T08:45:49Z</time>
      </trkpt>
      <trkpt lat="49.23411" lon="6.9492">
        <ele>223</ele>
        <time>2014-06-11T08:45:54Z</time>
      </trkpt>
      <trkpt lat="49.23407" lon="6.94927">
        <ele>223.6</ele>
        <time>2014-06-11T08:45:59Z</time>
      </trkpt>
      <trkpt lat="49.23402" lon="6.94937">
        <ele>224.1</ele>
        <time>2014-06-11T08:46:04Z</time>
      </trkpt>
      <trkpt lat="49.23396" lon="6.94946">
        <ele>224.7</ele>
        <time>2014-06-11T08:46:09Z</time>
      </trkpt>
      <trkpt lat="49.23391" lon="6.94954">
        <ele>225.3</ele>
        <time>2014-06-11T08:46:14Z</time>
      </trkpt>
      <trkpt lat="49.23388" lon="6.94962">
        <ele>226.1</ele>
        <time>2014-06-11T08:46:19Z</time>
      </trkpt>
      <trkpt lat="49.23384" lon="6.9497">
        <ele>227.1</ele>
        <time>2014-06-11T08:46:24Z</time>
      </trkpt>
      <trkpt lat="49.2338" lon="6.94979">
        <ele>227.8</ele>
        <time>2014-06-11T08:46:29Z</time>
      </trkpt>
      <trkpt lat="49.23375" lon="6.94987">
        <ele>228.5</ele>
        <time>2014-06-11T08:46:34Z</time>
      </trkpt>
      <trkpt lat="49.23372" lon="6.94995">
        <ele>228.2</ele>
        <time>2014-06-11T08:46:39Z</time>
      </trkpt>
      <trkpt lat="49.23369" lon="6.95005">
        <ele>228.5</ele>
        <time>2014-06-11T08:46:44Z</time>
      </trkpt>
      <trkpt lat="49.23362" lon="6.95022">
        <ele>229.2</ele>
        <time>2014-06-11T08:46:54Z</time>
      </trkpt>
      <trkpt lat="49.23359" lon="6.9503">
        <ele>228.8</ele>
        <time>2014-06-11T08:46:59Z</time>
      </trkpt>
      <trkpt lat="49.23356" lon="6.95037">
        <ele>228.6</ele>
        <time>2014-06-11T08:47:04Z</time>
      </trkpt>
      <trkpt lat="49.23353" lon="6.95044">
        <ele>227.6</ele>
        <time>2014-06-11T08:47:09Z</time>
      </trkpt>
      <trkpt lat="49.2335" lon="6.95051">
        <ele>227.5</ele>
        <time>2014-06-11T08:47:14Z</time>
      </trkpt>
      <trkpt lat="49.23347" lon="6.95059">
        <ele>226.3</ele>
        <time>2014-06-11T08:47:19Z</time>
      </trkpt>
      <trkpt lat="49.23344" lon="6.95066">
        <ele>225.6</ele>
        <time>2014-06-11T08:47:24Z</time>
      </trkpt>
      <trkpt lat="49.2334" lon="6.95074">
        <ele>225.2</ele>
        <time>2014-06-11T08:47:29Z</time>
      </trkpt>
      <trkpt lat="49.23337" lon="6.95082">
        <ele>225.4</ele>
        <time>2014-06-11T08:47:34Z</time>
      </trkpt>
      <trkpt lat="49.23335" lon="6.95089">
        <ele>225</ele>
        <time>2014-06-11T08:47:39Z</time>
      </trkpt>
      <trkpt lat="49.23333" lon="6.95097">
        <ele>224.3</ele>
        <time>2014-06-11T08:47:44Z</time>
      </trkpt>
      <trkpt lat="49.2333" lon="6.95106">
        <ele>223.8</ele>
        <time>2014-06-11T08:47:49Z</time>
      </trkpt>
      <trkpt lat="49.23325" lon="6.95123">
        <ele>223</ele>
        <time>2014-06-11T08:47:59Z</time>
      </trkpt>
      <trkpt lat="49.23321" lon="6.9513">
        <ele>222.8</ele>
        <time>2014-06-11T08:48:04Z</time>
      </trkpt>
      <trkpt lat="49.23317" lon="6.95136">
        <ele>222.7</ele>
        <time>2014-06-11T08:48:09Z</time>
      </trkpt>
      <trkpt lat="49.23313" lon="6.95142">
        <ele>222.5</ele>
        <time>2014-06-11T08:48:14Z</time>
      </trkpt>
      <trkpt lat="49.23309" lon="6.95148">
        <ele>220.9</ele>
        <time>2014-06-11T08:48:19Z</time>
      </trkpt>
      <trkpt lat="49.23305" lon="6.95154">
        <ele>220.6</ele>
        <time>2014-06-11T08:48:24Z</time>
      </trkpt>
      <trkpt lat="49.233" lon="6.95161">
        <ele>219.9</ele>
        <time>2014-06-11T08:48:29Z</time>
      </trkpt>
      <trkpt lat="49.23296" lon="6.95169">
        <ele>219.6</ele>
        <time>2014-06-11T08:48:34Z</time>
      </trkpt>
      <trkpt lat="49.23293" lon="6.95176">
        <ele>219.4</ele>
        <time>2014-06-11T08:48:39Z</time>
      </trkpt>
      <trkpt lat="49.23291" lon="6.95184">
        <ele>219.2</ele>
        <time>2014-06-11T08:48:44Z</time>
      </trkpt>
      <trkpt lat="49.23289" lon="6.95191">
        <ele>217.8</ele>
        <time>2014-06-11T08:48:49Z</time>
      </trkpt>
      <trkpt lat="49.23287" lon="6.95197">
        <ele>216.9</ele>
        <time>2014-06-11T08:48:54Z</time>
      </trkpt>
      <trkpt lat="49.23282" lon="6.95207">
        <ele>214.8</ele>
        <time>2014-06-11T08:49:04Z</time>
      </trkpt>
      <trkpt lat="49.2328" lon="6.95212">
        <ele>214.6</ele>
        <time>2014-06-11T08:49:09Z</time>
      </trkpt>
      <trkpt lat="49.23278" lon="6.95215">
        <ele>213.6</ele>
        <time>2014-06-11T08:49:14Z</time>
      </trkpt>
      <trkpt lat="49.23276" lon="6.95218">
        <ele>213</ele>
        <time>2014-06-11T08:49:19Z</time>
      </trkpt>
      <trkpt lat="49.23273" lon="6.95219">
        <ele>211.9</ele>
        <time>2014-06-11T08:49:24Z</time>
      </trkpt>
      <trkpt lat="49.2327" lon="6.95219">
        <ele>211</ele>
        <time>2014-06-11T08:49:29Z</time>
      </trkpt>
      <trkpt lat="49.23266" lon="6.95218">
        <ele>209.8</ele>
        <time>2014-06-11T08:49:34Z</time>
      </trkpt>
      <trkpt lat="49.23262" lon="6.95218">
        <ele>208.9</ele>
        <time>2014-06-11T08:49:39Z</time>
      </trkpt>
      <trkpt lat="49.23259" lon="6.95218">
        <ele>208.5</ele>
        <time>2014-06-11T08:49:44Z</time>
      </trkpt>
      <trkpt lat="49.23255" lon="6.95218">
        <ele>207.5</ele>
        <time>2014-06-11T08:49:49Z</time>
      </trkpt>
      <trkpt lat="49.23251" lon="6.95217">
        <ele>205.9</ele>
        <time>2014-06-11T08:49:54Z</time>
      </trkpt>
      <trkpt lat="49.23249" lon="6.95217">
        <ele>205.7</ele>
        <time>2014-06-11T08:49:59Z</time>
      </trkpt>
      <trkpt lat="49.23247" lon="6.95221">
        <ele>203.7</ele>
        <time>2014-06-11T08:50:09Z</time>
      </trkpt>
      <trkpt lat="49.23247" lon="6.95224">
        <ele>203.1</ele>
        <time>2014-06-11T08:50:14Z</time>
      </trkpt>
      <trkpt lat="49.23247" lon="6.95228">
        <ele>202.2</ele>
        <time>2014-06-11T08:50:19Z</time>
      </trkpt>
      <trkpt lat="49.23248" lon="6.95233">
        <ele>200.3</ele>
        <time>2014-06-11T08:50:24Z</time>
      </trkpt>
      <trkpt lat="49.23249" lon="6.95238">
        <ele>199.5</ele>
        <time>2014-06-11T08:50:29Z</time>
      </trkpt>
      <trkpt lat="49.2325" lon="6.95244">
        <ele>198.5</ele>
        <time>2014-06-11T08:50:34Z</time>
      </trkpt>
      <trkpt lat="49.23248" lon="6.95247">
        <ele>198.5</ele>
        <time>2014-06-11T08:50:39Z</time>
      </trkpt>
      <trkpt lat="49.23245" lon="6.9525">
        <ele>198.1</ele>
        <time>2014-06-11T08:50:44Z</time>
      </trkpt>
      <trkpt lat="49.23241" lon="6.95255">
        <ele>197.7</ele>
        <time>2014-06-11T08:50:49Z</time>
      </trkpt>
      <trkpt lat="49.23236" lon="6.9526">
        <ele>197.8</ele>
        <time>2014-06-11T08:50:54Z</time>
      </trkpt>
      <trkpt lat="49.23234" lon="6.95263">
        <ele>197.7</ele>
        <time>2014-06-11T08:50:59Z</time>
      </trkpt>
      <trkpt lat="49.23231" lon="6.95268">
        <ele>197.7</ele>
        <time>2014-06-11T08:51:04Z</time>
      </trkpt>
      <trkpt lat="49.23221" lon="6.95279">
        <ele>198.5</ele>
        <time>2014-06-11T08:51:14Z</time>
      </trkpt>
      <trkpt lat="49.23215" lon="6.95282">
        <ele>197.8</ele>
        <time>2014-06-11T08:51:19Z</time>
      </trkpt>
      <trkpt lat="49.2321" lon="6.95285">
        <ele>198.5</ele>
        <time>2014-06-11T08:51:24Z</time>
      </trkpt>
      <trkpt lat="49.23205" lon="6.95286">
        <ele>199</ele>
        <time>2014-06-11T08:51:29Z</time>
      </trkpt>
      <trkpt lat="49.232" lon="6.95285">
        <ele>198.7</ele>
        <time>2014-06-11T08:51:34Z</time>
      </trkpt>
      <trkpt lat="49.23196" lon="6.95285">
        <ele>199.2</ele>
        <time>2014-06-11T08:51:39Z</time>
      </trkpt>
      <trkpt lat="49.23191" lon="6.95286">
        <ele>199.5</ele>
        <time>2014-06-11T08:51:44Z</time>
      </trkpt>
      <trkpt lat="49.23185" lon="6.95287">
        <ele>199.8</ele>
        <time>2014-06-11T08:51:49Z</time>
      </trkpt>
      <trkpt lat="49.2318" lon="6.95287">
        <ele>199.9</ele>
        <time>2014-06-11T08:51:54Z</time>
      </trkpt>
      <trkpt lat="49.23174" lon="6.95289">
        <ele>200.6</ele>
        <time>2014-06-11T08:51:59Z</time>
      </trkpt>
      <trkpt lat="49.23168" lon="6.9529">
        <ele>200.7</ele>
        <time>2014-06-11T08:52:04Z</time>
      </trkpt>
      <trkpt lat="49.23163" lon="6.95291">
        <ele>200.4</ele>
        <time>2014-06-11T08:52:09Z</time>
      </trkpt>
      <trkpt lat="49.23151" lon="6.95293">
        <ele>201.1</ele>
        <time>2014-06-11T08:52:19Z</time>
      </trkpt>
      <trkpt lat="49.23146" lon="6.95294">
        <ele>201.3</ele>
        <time>2014-06-11T08:52:24Z</time>
      </trkpt>
      <trkpt lat="49.23139" lon="6.95294">
        <ele>201.4</ele>
        <time>2014-06-11T08:52:29Z</time>
      </trkpt>
      <trkpt lat="49.23134" lon="6.95295">
        <ele>201.5</ele>
        <time>2014-06-11T08:52:34Z</time>
      </trkpt>
      <trkpt lat="49.23128" lon="6.95297">
        <ele>201.6</ele>
        <time>2014-06-11T08:52:39Z</time>
      </trkpt>
      <trkpt lat="49.23123" lon="6.95299">
        <ele>201</ele>
        <time>2014-06-11T08:52:44Z</time>
      </trkpt>
      <trkpt lat="49.23117" lon="6.953">
        <ele>200.1</ele>
        <time>2014-06-11T08:52:49Z</time>
      </trkpt>
      <trkpt lat="49.2311" lon="6.95303">
        <ele>200.7</ele>
        <time>2014-06-11T08:52:54Z</time>
      </trkpt>
      <trkpt lat="49.23104" lon="6.95304">
        <ele>199.7</ele>
        <time>2014-06-11T08:52:59Z</time>
      </trkpt>
      <trkpt lat="49.23098" lon="6.95306">
        <ele>198.8</ele>
        <time>2014-06-11T08:53:04Z</time>
      </trkpt>
      <trkpt lat="49.23092" lon="6.95309">
        <ele>197.9</ele>
        <time>2014-06-11T08:53:09Z</time>
      </trkpt>
      <trkpt lat="49.23088" lon="6.95312">
        <ele>197.8</ele>
        <time>2014-06-11T08:53:14Z</time>
      </trkpt>
      <trkpt lat="49.23078" lon="6.95325">
        <ele>196.7</ele>
        <time>2014-06-11T08:53:24Z</time>
      </trkpt>
      <trkpt lat="49.23074" lon="6.95333">
        <ele>196.7</ele>
        <time>2014-06-11T08:53:29Z</time>
      </trkpt>
      <trkpt lat="49.23073" lon="6.95342">
        <ele>196.2</ele>
        <time>2014-06-11T08:53:34Z</time>
      </trkpt>
      <trkpt lat="49.23072" lon="6.95352">
        <ele>196.1</ele>
        <time>2014-06-11T08:53:39Z</time>
      </trkpt>
      <trkpt lat="49.23073" lon="6.95362">
        <ele>196.1</ele>
        <time>2014-06-11T08:53:44Z</time>
      </trkpt>
      <trkpt lat="49.23073" lon="6.95372">
        <ele>196.3</ele>
        <time>2014-06-11T08:53:49Z</time>
      </trkpt>
      <trkpt lat="49.23073" lon="6.9538">
        <ele>195.2</ele>
        <time>2014-06-11T08:53:54Z</time>
      </trkpt>
      <trkpt lat="49.23075" lon="6.95386">
        <ele>195.3</ele>
        <time>2014-06-11T08:53:59Z</time>
      </trkpt>
      <trkpt lat="49.23076" lon="6.95392">
        <ele>195</ele>
        <time>2014-06-11T08:54:04Z</time>
      </trkpt>
      <trkpt lat="49.2308" lon="6.95398">
        <ele>195</ele>
        <time>2014-06-11T08:54:09Z</time>
      </trkpt>
      <trkpt lat="49.23082" lon="6.95404">
        <ele>194.9</ele>
        <time>2014-06-11T08:54:14Z</time>
      </trkpt>
      <trkpt lat="49.23086" lon="6.95411">
        <ele>194.4</ele>
        <time>2014-06-11T08:54:19Z</time>
      </trkpt>
      <trkpt lat="49.23094" lon="6.95423">
        <ele>193.8</ele>
        <time>2014-06-11T08:54:29Z</time>
      </trkpt>
      <trkpt lat="49.231" lon="6.95429">
        <ele>193.1</ele>
        <time>2014-06-11T08:54:34Z</time>
      </trkpt>
      <trkpt lat="49.23105" lon="6.95435">
        <ele>192.8</ele>
        <time>2014-06-11T08:54:39Z</time>
      </trkpt>
      <trkpt lat="49.2311" lon="6.95441">
        <ele>191.9</ele>
        <time>2014-06-11T08:54:44Z</time>
      </trkpt>
      <trkpt lat="49.23114" lon="6.95448">
        <ele>192.1</ele>
        <time>2014-06-11T08:54:49Z</time>
      </trkpt>
      <trkpt lat="49.23118" lon="6.95454">
        <ele>191.6</ele>
        <time>2014-06-11T08:54:54Z</time>
      </trkpt>
      <trkpt lat="49.23122" lon="6.9546">
        <ele>191.5</ele>
        <time>2014-06-11T08:54:59Z</time>
      </trkpt>
      <trkpt lat="49.23124" lon="6.95467">
        <ele>191.4</ele>
        <time>2014-06-11T08:55:04Z</time>
      </trkpt>
      <trkpt lat="49.23128" lon="6.95474">
        <ele>191.2</ele>
        <time>2014-06-11T08:55:09Z</time>
      </trkpt>
      <trkpt lat="49.23133" lon="6.9548">
        <ele>190.8</ele>
        <time>2014-06-11T08:55:14Z</time>
      </trkpt>
      <trkpt lat="49.23136" lon="6.95485">
        <ele>190.4</ele>
        <time>2014-06-11T08:55:19Z</time>
      </trkpt>
      <trkpt lat="49.23138" lon="6.95491">
        <ele>190.1</ele>
        <time>2014-06-11T08:55:24Z</time>
      </trkpt>
      <trkpt lat="49.23146" lon="6.95504">
        <ele>189.6</ele>
        <time>2014-06-11T08:55:34Z</time>
      </trkpt>
      <trkpt lat="49.23152" lon="6.95512">
        <ele>189.3</ele>
        <time>2014-06-11T08:55:39Z</time>
      </trkpt>
      <trkpt lat="49.23158" lon="6.9552">
        <ele>188.9</ele>
        <time>2014-06-11T08:55:44Z</time>
      </trkpt>
      <trkpt lat="49.23164" lon="6.95529">
        <ele>189</ele>
        <time>2014-06-11T08:55:49Z</time>
      </trkpt>
      <trkpt lat="49.2317" lon="6.95537">
        <ele>188.3</ele>
        <time>2014-06-11T08:55:54Z</time>
      </trkpt>
      <trkpt lat="49.23175" lon="6.95545">
        <ele>188</ele>
        <time>2014-06-11T08:55:59Z</time>
      </trkpt>
      <trkpt lat="49.23181" lon="6.95552">
        <ele>187.8</ele>
        <time>2014-06-11T08:56:04Z</time>
      </trkpt>
      <trkpt lat="49.23186" lon="6.9556">
        <ele>187.7</ele>
        <time>2014-06-11T08:56:09Z</time>
      </trkpt>
      <trkpt lat="49.2319" lon="6.95567">
        <ele>187.1</ele>
        <time>2014-06-11T08:56:14Z</time>
      </trkpt>
      <trkpt lat="49.23192" lon="6.95573">
        <ele>187.8</ele>
        <time>2014-06-11T08:56:19Z</time>
      </trkpt>
      <trkpt lat="49.23194" lon="6.9558">
        <ele>187.3</ele>
        <time>2014-06-11T08:56:24Z</time>
      </trkpt>
      <trkpt lat="49.23197" lon="6.95588">
        <ele>186.3</ele>
        <time>2014-06-11T08:56:29Z</time>
      </trkpt>
      <trkpt lat="49.23206" lon="6.95603">
        <ele>186.1</ele>
        <time>2014-06-11T08:56:39Z</time>
      </trkpt>
      <trkpt lat="49.23211" lon="6.9561">
        <ele>185</ele>
        <time>2014-06-11T08:56:44Z</time>
      </trkpt>
      <trkpt lat="49.23215" lon="6.95618">
        <ele>185.1</ele>
        <time>2014-06-11T08:56:49Z</time>
      </trkpt>
      <trkpt lat="49.23217" lon="6.95626">
        <ele>185</ele>
        <time>2014-06-11T08:56:54Z</time>
      </trkpt>
      <trkpt lat="49.23221" lon="6.95633">
        <ele>185</ele>
        <time>2014-06-11T08:56:59Z</time>
      </trkpt>
      <trkpt lat="49.23226" lon="6.9564">
        <ele>183.8</ele>
        <time>2014-06-11T08:57:04Z</time>
      </trkpt>
      <trkpt lat="49.23228" lon="6.95647">
        <ele>183.6</ele>
        <time>2014-06-11T08:57:09Z</time>
      </trkpt>
      <trkpt lat="49.23232" lon="6.95654">
        <ele>183.7</ele>
        <time>2014-06-11T08:57:14Z</time>
      </trkpt>
      <trkpt lat="49.23236" lon="6.95663">
        <ele>183.4</ele>
        <time>2014-06-11T08:57:19Z</time>
      </trkpt>
      <trkpt lat="49.23239" lon="6.95672">
        <ele>182.9</ele>
        <time>2014-06-11T08:57:24Z</time>
      </trkpt>
      <trkpt lat="49.23243" lon="6.95681">
        <ele>182.6</ele>
        <time>2014-06-11T08:57:29Z</time>
      </trkpt>
      <trkpt lat="49.23245" lon="6.95691">
        <ele>182.5</ele>
        <time>2014-06-11T08:57:34Z</time>
      </trkpt>
      <trkpt lat="49.23251" lon="6.9571">
        <ele>182.2</ele>
        <time>2014-06-11T08:57:44Z</time>
      </trkpt>
      <trkpt lat="49.23253" lon="6.9572">
        <ele>182.6</ele>
        <time>2014-06-11T08:57:49Z</time>
      </trkpt>
      <trkpt lat="49.23254" lon="6.95728">
        <ele>182.1</ele>
        <time>2014-06-11T08:57:54Z</time>
      </trkpt>
      <trkpt lat="49.23255" lon="6.95735">
        <ele>182.1</ele>
        <time>2014-06-11T08:57:59Z</time>
      </trkpt>
      <trkpt lat="49.23254" lon="6.95744">
        <ele>182.1</ele>
        <time>2014-06-11T08:58:04Z</time>
      </trkpt>
      <trkpt lat="49.23255" lon="6.95758">
        <ele>182</ele>
        <time>2014-06-11T08:58:10Z</time>
      </trkpt>
      <trkpt lat="49.23256" lon="6.95767">
        <ele>182.1</ele>
        <time>2014-06-11T08:58:15Z</time>
      </trkpt>
      <trkpt lat="49.23257" lon="6.95776">
        <ele>182</ele>
        <time>2014-06-11T08:58:20Z</time>
      </trkpt>
      <trkpt lat="49.23257" lon="6.95786">
        <ele>182.2</ele>
        <time>2014-06-11T08:58:25Z</time>
      </trkpt>
      <trkpt lat="49.23258" lon="6.95803">
        <ele>182</ele>
        <time>2014-06-11T08:58:33Z</time>
      </trkpt>
      <trkpt lat="49.23254" lon="6.95837">
        <ele>181</ele>
        <time>2014-06-11T08:58:49Z</time>
      </trkpt>
      <trkpt lat="49.23254" lon="6.95852">
        <ele>181</ele>
        <time>2014-06-11T08:58:57Z</time>
      </trkpt>
      <trkpt lat="49.23255" lon="6.95864">
        <ele>181.3</ele>
        <time>2014-06-11T08:59:04Z</time>
      </trkpt>
      <trkpt lat="49.23257" lon="6.95874">
        <ele>181.8</ele>
        <time>2014-06-11T08:59:09Z</time>
      </trkpt>
      <trkpt lat="49.23259" lon="6.95884">
        <ele>181.9</ele>
        <time>2014-06-11T08:59:14Z</time>
      </trkpt>
      <trkpt lat="49.23258" lon="6.95888">
        <ele>182.8</ele>
        <time>2014-06-11T08:59:19Z</time>
      </trkpt>
      <trkpt lat="49.23257" lon="6.95891">
        <ele>182.1</ele>
        <time>2014-06-11T08:59:24Z</time>
      </trkpt>
      <trkpt lat="49.23257" lon="6.95892">
        <ele>181.9</ele>
        <time>2014-06-11T08:59:29Z</time>
      </trkpt>
      <trkpt lat="49.23256" lon="6.95893">
        <ele>182</ele>
        <time>2014-06-11T08:59:34Z</time>
      </trkpt>
      <trkpt lat="49.23255" lon="6.95902">
        <ele>180</ele>
        <time>2014-06-11T08:59:40Z</time>
      </trkpt>
      <trkpt lat="49.23255" lon="6.95917">
        <ele>181</ele>
        <time>2014-06-11T08:59:53Z</time>
      </trkpt>
      <trkpt lat="49.23256" lon="6.95932">
        <ele>180</ele>
        <time>2014-06-11T09:00:01Z</time>
      </trkpt>
      <trkpt lat="49.23257" lon="6.95947">
        <ele>181</ele>
        <time>2014-06-11T09:00:09Z</time>
      </trkpt>
      <trkpt lat="49.23259" lon="6.95962">
        <ele>181</ele>
        <time>2014-06-11T09:00:17Z</time>
      </trkpt>
      <trkpt lat="49.2326" lon="6.95976">
        <ele>181</ele>
        <time>2014-06-11T09:00:25Z</time>
      </trkpt>
      <trkpt lat="49.23261" lon="6.9599">
        <ele>182</ele>
        <time>2014-06-11T09:00:33Z</time>
      </trkpt>
      <trkpt lat="49.23264" lon="6.96001">
        <ele>182</ele>
        <time>2014-06-11T09:00:41Z</time>
      </trkpt>
      <trkpt lat="49.23267" lon="6.96008">
        <ele>181.9</ele>
        <time>2014-06-11T09:00:46Z</time>
      </trkpt>
      <trkpt lat="49.23272" lon="6.96023">
        <ele>182.1</ele>
        <time>2014-06-11T09:00:56Z</time>
      </trkpt>
      <trkpt lat="49.23273" lon="6.96033">
        <ele>182.4</ele>
        <time>2014-06-11T09:01:01Z</time>
      </trkpt>
      <trkpt lat="49.23274" lon="6.96044">
        <ele>182.4</ele>
        <time>2014-06-11T09:01:06Z</time>
      </trkpt>
      <trkpt lat="49.23275" lon="6.96054">
        <ele>183.2</ele>
        <time>2014-06-11T09:01:11Z</time>
      </trkpt>
      <trkpt lat="49.23277" lon="6.96062">
        <ele>182.5</ele>
        <time>2014-06-11T09:01:16Z</time>
      </trkpt>
      <trkpt lat="49.23278" lon="6.96071">
        <ele>182.6</ele>
        <time>2014-06-11T09:01:21Z</time>
      </trkpt>
      <trkpt lat="49.23277" lon="6.96081">
        <ele>183.1</ele>
        <time>2014-06-11T09:01:26Z</time>
      </trkpt>
      <trkpt lat="49.23276" lon="6.96091">
        <ele>183.5</ele>
        <time>2014-06-11T09:01:31Z</time>
      </trkpt>
      <trkpt lat="49.23274" lon="6.961">
        <ele>183.1</ele>
        <time>2014-06-11T09:01:36Z</time>
      </trkpt>
      <trkpt lat="49.23273" lon="6.96109">
        <ele>182.3</ele>
        <time>2014-06-11T09:01:41Z</time>
      </trkpt>
      <trkpt lat="49.23272" lon="6.9612">
        <ele>182.3</ele>
        <time>2014-06-11T09:01:46Z</time>
      </trkpt>
      <trkpt lat="49.23272" lon="6.9613">
        <ele>182.4</ele>
        <time>2014-06-11T09:01:51Z</time>
      </trkpt>
      <trkpt lat="49.23269" lon="6.96148">
        <ele>182.3</ele>
        <time>2014-06-11T09:02:01Z</time>
      </trkpt>
      <trkpt lat="49.23267" lon="6.96157">
        <ele>182.4</ele>
        <time>2014-06-11T09:02:06Z</time>
      </trkpt>
      <trkpt lat="49.23264" lon="6.96161">
        <ele>182.6</ele>
        <time>2014-06-11T09:02:11Z</time>
      </trkpt>
      <trkpt lat="49.23263" lon="6.96163">
        <ele>183.2</ele>
        <time>2014-06-11T09:02:16Z</time>
      </trkpt>
      <trkpt lat="49.23263" lon="6.96168">
        <ele>182.6</ele>
        <time>2014-06-11T09:02:21Z</time>
      </trkpt>
      <trkpt lat="49.23263" lon="6.96176">
        <ele>182.6</ele>
        <time>2014-06-11T09:02:26Z</time>
      </trkpt>
      <trkpt lat="49.23261" lon="6.96186">
        <ele>182.8</ele>
        <time>2014-06-11T09:02:31Z</time>
      </trkpt>
      <trkpt lat="49.23258" lon="6.96198">
        <ele>182.5</ele>
        <time>2014-06-11T09:02:36Z</time>
      </trkpt>
      <trkpt lat="49.23253" lon="6.96209">
        <ele>183.2</ele>
        <time>2014-06-11T09:02:41Z</time>
      </trkpt>
      <trkpt lat="49.23248" lon="6.96218">
        <ele>182.7</ele>
        <time>2014-06-11T09:02:46Z</time>
      </trkpt>
      <trkpt lat="49.23243" lon="6.96227">
        <ele>183.2</ele>
        <time>2014-06-11T09:02:51Z</time>
      </trkpt>
      <trkpt lat="49.23238" lon="6.96234">
        <ele>182.8</ele>
        <time>2014-06-11T09:02:56Z</time>
      </trkpt>
      <trkpt lat="49.23228" lon="6.96244">
        <ele>182.2</ele>
        <time>2014-06-11T09:03:06Z</time>
      </trkpt>
      <trkpt lat="49.23222" lon="6.96247">
        <ele>182.4</ele>
        <time>2014-06-11T09:03:11Z</time>
      </trkpt>
      <trkpt lat="49.23216" lon="6.96249">
        <ele>182.6</ele>
        <time>2014-06-11T09:03:16Z</time>
      </trkpt>
      <trkpt lat="49.2321" lon="6.96252">
        <ele>182.6</ele>
        <time>2014-06-11T09:03:21Z</time>
      </trkpt>
      <trkpt lat="49.23204" lon="6.96253">
        <ele>182</ele>
        <time>2014-06-11T09:03:26Z</time>
      </trkpt>
      <trkpt lat="49.23199" lon="6.96252">
        <ele>182.3</ele>
        <time>2014-06-11T09:03:31Z</time>
      </trkpt>
      <trkpt lat="49.23193" lon="6.96251">
        <ele>182.5</ele>
        <time>2014-06-11T09:03:36Z</time>
      </trkpt>
      <trkpt lat="49.23186" lon="6.96251">
        <ele>182.1</ele>
        <time>2014-06-11T09:03:41Z</time>
      </trkpt>
      <trkpt lat="49.23179" lon="6.96251">
        <ele>183</ele>
        <time>2014-06-11T09:03:46Z</time>
      </trkpt>
      <trkpt lat="49.23172" lon="6.96251">
        <ele>182.9</ele>
        <time>2014-06-11T09:03:51Z</time>
      </trkpt>
      <trkpt lat="49.23165" lon="6.96251">
        <ele>181.8</ele>
        <time>2014-06-11T09:03:56Z</time>
      </trkpt>
      <trkpt lat="49.23158" lon="6.96251">
        <ele>181.8</ele>
        <time>2014-06-11T09:04:01Z</time>
      </trkpt>
      <trkpt lat="49.23145" lon="6.9625">
        <ele>182.6</ele>
        <time>2014-06-11T09:04:11Z</time>
      </trkpt>
      <trkpt lat="49.23138" lon="6.9625">
        <ele>182.8</ele>
        <time>2014-06-11T09:04:16Z</time>
      </trkpt>
      <trkpt lat="49.23132" lon="6.96249">
        <ele>182.9</ele>
        <time>2014-06-11T09:04:21Z</time>
      </trkpt>
      <trkpt lat="49.23127" lon="6.96247">
        <ele>182.5</ele>
        <time>2014-06-11T09:04:26Z</time>
      </trkpt>
      <trkpt lat="49.23122" lon="6.96242">
        <ele>182.9</ele>
        <time>2014-06-11T09:04:31Z</time>
      </trkpt>
      <trkpt lat="49.23118" lon="6.96239">
        <ele>183.1</ele>
        <time>2014-06-11T09:04:36Z</time>
      </trkpt>
      <trkpt lat="49.23113" lon="6.96236">
        <ele>183.5</ele>
        <time>2014-06-11T09:04:41Z</time>
      </trkpt>
      <trkpt lat="49.23109" lon="6.96232">
        <ele>183.2</ele>
        <time>2014-06-11T09:04:46Z</time>
      </trkpt>
      <trkpt lat="49.23105" lon="6.96228">
        <ele>183.4</ele>
        <time>2014-06-11T09:04:51Z</time>
      </trkpt>
      <trkpt lat="49.23099" lon="6.96222">
        <ele>184.2</ele>
        <time>2014-06-11T09:04:56Z</time>
      </trkpt>
      <trkpt lat="49.23094" lon="6.96218">
        <ele>183.6</ele>
        <time>2014-06-11T09:05:01Z</time>
      </trkpt>
      <trkpt lat="49.23088" lon="6.96213">
        <ele>183.9</ele>
        <time>2014-06-11T09:05:06Z</time>
      </trkpt>
      <trkpt lat="49.23077" lon="6.96206">
        <ele>184.6</ele>
        <time>2014-06-11T09:05:16Z</time>
      </trkpt>
      <trkpt lat="49.23071" lon="6.96202">
        <ele>184.4</ele>
        <time>2014-06-11T09:05:21Z</time>
      </trkpt>
      <trkpt lat="49.23065" lon="6.96199">
        <ele>184.2</ele>
        <time>2014-06-11T09:05:26Z</time>
      </trkpt>
      <trkpt lat="49.23059" lon="6.96195">
        <ele>185.1</ele>
        <time>2014-06-11T09:05:31Z</time>
      </trkpt>
      <trkpt lat="49.23054" lon="6.9619">
        <ele>184.6</ele>
        <time>2014-06-11T09:05:36Z</time>
      </trkpt>
      <trkpt lat="49.23049" lon="6.96186">
        <ele>184.5</ele>
        <time>2014-06-11T09:05:41Z</time>
      </trkpt>
      <trkpt lat="49.23043" lon="6.96182">
        <ele>185.5</ele>
        <time>2014-06-11T09:05:46Z</time>
      </trkpt>
      <trkpt lat="49.23037" lon="6.96177">
        <ele>184.6</ele>
        <time>2014-06-11T09:05:51Z</time>
      </trkpt>
      <trkpt lat="49.23032" lon="6.96173">
        <ele>184.7</ele>
        <time>2014-06-11T09:05:56Z</time>
      </trkpt>
      <trkpt lat="49.23027" lon="6.96169">
        <ele>185.2</ele>
        <time>2014-06-11T09:06:01Z</time>
      </trkpt>
      <trkpt lat="49.23022" lon="6.96165">
        <ele>185.4</ele>
        <time>2014-06-11T09:06:06Z</time>
      </trkpt>
      <trkpt lat="49.23016" lon="6.96161">
        <ele>186</ele>
        <time>2014-06-11T09:06:11Z</time>
      </trkpt>
      <trkpt lat="49.23004" lon="6.96153">
        <ele>185.4</ele>
        <time>2014-06-11T09:06:21Z</time>
      </trkpt>
      <trkpt lat="49.22998" lon="6.9615">
        <ele>186</ele>
        <time>2014-06-11T09:06:26Z</time>
      </trkpt>
      <trkpt lat="49.22992" lon="6.96146">
        <ele>186.3</ele>
        <time>2014-06-11T09:06:31Z</time>
      </trkpt>
      <trkpt lat="49.22987" lon="6.96143">
        <ele>186.1</ele>
        <time>2014-06-11T09:06:36Z</time>
      </trkpt>
      <trkpt lat="49.22978" lon="6.96139">
        <ele>186.2</ele>
        <time>2014-06-11T09:06:42Z</time>
      </trkpt>
      <trkpt lat="49.22972" lon="6.96139">
        <ele>187.5</ele>
        <time>2014-06-11T09:06:47Z</time>
      </trkpt>
      <trkpt lat="49.2297" lon="6.96142">
        <ele>187.5</ele>
        <time>2014-06-11T09:06:52Z</time>
      </trkpt>
      <trkpt lat="49.22966" lon="6.96149">
        <ele>187.3</ele>
        <time>2014-06-11T09:06:57Z</time>
      </trkpt>
      <trkpt lat="49.22965" lon="6.96152">
        <ele>186.8</ele>
        <time>2014-06-11T09:07:02Z</time>
      </trkpt>
      <trkpt lat="49.22963" lon="6.96152">
        <ele>187.5</ele>
        <time>2014-06-11T09:07:07Z</time>
      </trkpt>
      <trkpt lat="49.22962" lon="6.96154">
        <ele>187.3</ele>
        <time>2014-06-11T09:07:12Z</time>
      </trkpt>
      <trkpt lat="49.22955" lon="6.96151">
        <ele>187.4</ele>
        <time>2014-06-11T09:07:22Z</time>
      </trkpt>
      <trkpt lat="49.2295" lon="6.96151">
        <ele>187.2</ele>
        <time>2014-06-11T09:07:27Z</time>
      </trkpt>
      <trkpt lat="49.22945" lon="6.96153">
        <ele>187.7</ele>
        <time>2014-06-11T09:07:32Z</time>
      </trkpt>
      <trkpt lat="49.22939" lon="6.96152">
        <ele>188.1</ele>
        <time>2014-06-11T09:07:37Z</time>
      </trkpt>
      <trkpt lat="49.22932" lon="6.96151">
        <ele>187.6</ele>
        <time>2014-06-11T09:07:42Z</time>
      </trkpt>
      <trkpt lat="49.22926" lon="6.9615">
        <ele>187.3</ele>
        <time>2014-06-11T09:07:47Z</time>
      </trkpt>
      <trkpt lat="49.2292" lon="6.96149">
        <ele>187.9</ele>
        <time>2014-06-11T09:07:52Z</time>
      </trkpt>
      <trkpt lat="49.22914" lon="6.96148">
        <ele>187.8</ele>
        <time>2014-06-11T09:07:57Z</time>
      </trkpt>
      <trkpt lat="49.22908" lon="6.96148">
        <ele>187.7</ele>
        <time>2014-06-11T09:08:02Z</time>
      </trkpt>
      <trkpt lat="49.22902" lon="6.9615">
        <ele>187.1</ele>
        <time>2014-06-11T09:08:07Z</time>
      </trkpt>
      <trkpt lat="49.22896" lon="6.96153">
        <ele>186.9</ele>
        <time>2014-06-11T09:08:12Z</time>
      </trkpt>
      <trkpt lat="49.22889" lon="6.96152">
        <ele>187.1</ele>
        <time>2014-06-11T09:08:17Z</time>
      </trkpt>
      <trkpt lat="49.22879" lon="6.96148">
        <ele>187.2</ele>
        <time>2014-06-11T09:08:27Z</time>
      </trkpt>
      <trkpt lat="49.22873" lon="6.96146">
        <ele>187</ele>
        <time>2014-06-11T09:08:32Z</time>
      </trkpt>
      <trkpt lat="49.22867" lon="6.96144">
        <ele>187.1</ele>
        <time>2014-06-11T09:08:37Z</time>
      </trkpt>
      <trkpt lat="49.22862" lon="6.96145">
        <ele>187.3</ele>
        <time>2014-06-11T09:08:42Z</time>
      </trkpt>
      <trkpt lat="49.22857" lon="6.96145">
        <ele>187.3</ele>
        <time>2014-06-11T09:08:47Z</time>
      </trkpt>
      <trkpt lat="49.22851" lon="6.96148">
        <ele>187.2</ele>
        <time>2014-06-11T09:08:52Z</time>
      </trkpt>
      <trkpt lat="49.22845" lon="6.9615">
        <ele>187.1</ele>
        <time>2014-06-11T09:08:57Z</time>
      </trkpt>
      <trkpt lat="49.22839" lon="6.96153">
        <ele>187.7</ele>
        <time>2014-06-11T09:09:02Z</time>
      </trkpt>
      <trkpt lat="49.22832" lon="6.96156">
        <ele>187.9</ele>
        <time>2014-06-11T09:09:07Z</time>
      </trkpt>
      <trkpt lat="49.22826" lon="6.96162">
        <ele>187.7</ele>
        <time>2014-06-11T09:09:12Z</time>
      </trkpt>
      <trkpt lat="49.22816" lon="6.96173">
        <ele>187.3</ele>
        <time>2014-06-11T09:09:17Z</time>
      </trkpt>
      <trkpt lat="49.22809" lon="6.96178">
        <ele>187.6</ele>
        <time>2014-06-11T09:09:22Z</time>
      </trkpt>
      <trkpt lat="49.22797" lon="6.96188">
        <ele>188.2</ele>
        <time>2014-06-11T09:09:32Z</time>
      </trkpt>
      <trkpt lat="49.22794" lon="6.96191">
        <ele>188.2</ele>
        <time>2014-06-11T09:09:37Z</time>
      </trkpt>
      <trkpt lat="49.22789" lon="6.96195">
        <ele>187.3</ele>
        <time>2014-06-11T09:09:42Z</time>
      </trkpt>
      <trkpt lat="49.22784" lon="6.96199">
        <ele>187.6</ele>
        <time>2014-06-11T09:09:47Z</time>
      </trkpt>
      <trkpt lat="49.2278" lon="6.96203">
        <ele>186.8</ele>
        <time>2014-06-11T09:09:52Z</time>
      </trkpt>
      <trkpt lat="49.22775" lon="6.96207">
        <ele>186.7</ele>
        <time>2014-06-11T09:09:57Z</time>
      </trkpt>
      <trkpt lat="49.22771" lon="6.9621">
        <ele>186.7</ele>
        <time>2014-06-11T09:10:02Z</time>
      </trkpt>
      <trkpt lat="49.22767" lon="6.96215">
        <ele>187.9</ele>
        <time>2014-06-11T09:10:07Z</time>
      </trkpt>
      <trkpt lat="49.22762" lon="6.9622">
        <ele>187</ele>
        <time>2014-06-11T09:10:12Z</time>
      </trkpt>
      <trkpt lat="49.22758" lon="6.96226">
        <ele>186.8</ele>
        <time>2014-06-11T09:10:17Z</time>
      </trkpt>
      <trkpt lat="49.22753" lon="6.96231">
        <ele>186.6</ele>
        <time>2014-06-11T09:10:22Z</time>
      </trkpt>
      <trkpt lat="49.22747" lon="6.96238">
        <ele>187</ele>
        <time>2014-06-11T09:10:27Z</time>
      </trkpt>
      <trkpt lat="49.22737" lon="6.96241">
        <ele>186.8</ele>
        <time>2014-06-11T09:10:37Z</time>
      </trkpt>
      <trkpt lat="49.2273" lon="6.96241">
        <ele>186.9</ele>
        <time>2014-06-11T09:10:42Z</time>
      </trkpt>
      <trkpt lat="49.22723" lon="6.96243">
        <ele>186.2</ele>
        <time>2014-06-11T09:10:47Z</time>
      </trkpt>
      <trkpt lat="49.22716" lon="6.96243">
        <ele>186.5</ele>
        <time>2014-06-11T09:10:52Z</time>
      </trkpt>
      <trkpt lat="49.22711" lon="6.96243">
        <ele>187.2</ele>
        <time>2014-06-11T09:10:57Z</time>
      </trkpt>
      <trkpt lat="49.22705" lon="6.96243">
        <ele>187.3</ele>
        <time>2014-06-11T09:11:02Z</time>
      </trkpt>
      <trkpt lat="49.22698" lon="6.96242">
        <ele>187.1</ele>
        <time>2014-06-11T09:11:07Z</time>
      </trkpt>
      <trkpt lat="49.22692" lon="6.96241">
        <ele>188</ele>
        <time>2014-06-11T09:11:12Z</time>
      </trkpt>
      <trkpt lat="49.22685" lon="6.96239">
        <ele>187.1</ele>
        <time>2014-06-11T09:11:17Z</time>
      </trkpt>
      <trkpt lat="49.2268" lon="6.96237">
        <ele>187.2</ele>
        <time>2014-06-11T09:11:22Z</time>
      </trkpt>
      <trkpt lat="49.22674" lon="6.96236">
        <ele>187.6</ele>
        <time>2014-06-11T09:11:27Z</time>
      </trkpt>
      <trkpt lat="49.22669" lon="6.96234">
        <ele>188.1</ele>
        <time>2014-06-11T09:11:32Z</time>
      </trkpt>
      <trkpt lat="49.22657" lon="6.96232">
        <ele>187.5</ele>
        <time>2014-06-11T09:11:42Z</time>
      </trkpt>
      <trkpt lat="49.22652" lon="6.96231">
        <ele>187.8</ele>
        <time>2014-06-11T09:11:47Z</time>
      </trkpt>
      <trkpt lat="49.22646" lon="6.9623">
        <ele>187.9</ele>
        <time>2014-06-11T09:11:52Z</time>
      </trkpt>
      <trkpt lat="49.22638" lon="6.96229">
        <ele>187.7</ele>
        <time>2014-06-11T09:11:57Z</time>
      </trkpt>
      <trkpt lat="49.22631" lon="6.96229">
        <ele>187.9</ele>
        <time>2014-06-11T09:12:02Z</time>
      </trkpt>
      <trkpt lat="49.22623" lon="6.96226">
        <ele>187</ele>
        <time>2014-06-11T09:12:07Z</time>
      </trkpt>
      <trkpt lat="49.22615" lon="6.96222">
        <ele>187.7</ele>
        <time>2014-06-11T09:12:12Z</time>
      </trkpt>
      <trkpt lat="49.2261" lon="6.96217">
        <ele>187.9</ele>
        <time>2014-06-11T09:12:17Z</time>
      </trkpt>
      <trkpt lat="49.22606" lon="6.96212">
        <ele>187.6</ele>
        <time>2014-06-11T09:12:22Z</time>
      </trkpt>
      <trkpt lat="49.22602" lon="6.96208">
        <ele>187.4</ele>
        <time>2014-06-11T09:12:27Z</time>
      </trkpt>
      <trkpt lat="49.22599" lon="6.96205">
        <ele>187.6</ele>
        <time>2014-06-11T09:12:32Z</time>
      </trkpt>
      <trkpt lat="49.22595" lon="6.96202">
        <ele>187.9</ele>
        <time>2014-06-11T09:12:37Z</time>
      </trkpt>
      <trkpt lat="49.22587" lon="6.96196">
        <ele>187.2</ele>
        <time>2014-06-11T09:12:47Z</time>
      </trkpt>
      <trkpt lat="49.22582" lon="6.96191">
        <ele>187.5</ele>
        <time>2014-06-11T09:12:52Z</time>
      </trkpt>
      <trkpt lat="49.22576" lon="6.96187">
        <ele>187.5</ele>
        <time>2014-06-11T09:12:57Z</time>
      </trkpt>
      <trkpt lat="49.22572" lon="6.96186">
        <ele>187.9</ele>
        <time>2014-06-11T09:13:02Z</time>
      </trkpt>
      <trkpt lat="49.22563" lon="6.96186">
        <ele>187</ele>
        <time>2014-06-11T09:13:07Z</time>
      </trkpt>
      <trkpt lat="49.22556" lon="6.96187">
        <ele>187</ele>
        <time>2014-06-11T09:13:12Z</time>
      </trkpt>
      <trkpt lat="49.2255" lon="6.96191">
        <ele>187.6</ele>
        <time>2014-06-11T09:13:17Z</time>
      </trkpt>
      <trkpt lat="49.22545" lon="6.96195">
        <ele>187.7</ele>
        <time>2014-06-11T09:13:22Z</time>
      </trkpt>
      <trkpt lat="49.22543" lon="6.96204">
        <ele>187.6</ele>
        <time>2014-06-11T09:13:27Z</time>
      </trkpt>
      <trkpt lat="49.22541" lon="6.96211">
        <ele>186.6</ele>
        <time>2014-06-11T09:13:32Z</time>
      </trkpt>
      <trkpt lat="49.22541" lon="6.96217">
        <ele>186.8</ele>
        <time>2014-06-11T09:13:37Z</time>
      </trkpt>
      <trkpt lat="49.22542" lon="6.96225">
        <ele>186.8</ele>
        <time>2014-06-11T09:13:42Z</time>
      </trkpt>
      <trkpt lat="49.22545" lon="6.9624">
        <ele>187</ele>
        <time>2014-06-11T09:13:52Z</time>
      </trkpt>
      <trkpt lat="49.22547" lon="6.96248">
        <ele>186.6</ele>
        <time>2014-06-11T09:13:57Z</time>
      </trkpt>
      <trkpt lat="49.2255" lon="6.96256">
        <ele>186.5</ele>
        <time>2014-06-11T09:14:02Z</time>
      </trkpt>
      <trkpt lat="49.22555" lon="6.96264">
        <ele>187</ele>
        <time>2014-06-11T09:14:07Z</time>
      </trkpt>
      <trkpt lat="49.22557" lon="6.96271">
        <ele>186.5</ele>
        <time>2014-06-11T09:14:12Z</time>
      </trkpt>
      <trkpt lat="49.22558" lon="6.96277">
        <ele>186.8</ele>
        <time>2014-06-11T09:14:17Z</time>
      </trkpt>
      <trkpt lat="49.22557" lon="6.96279">
        <ele>187.5</ele>
        <time>2014-06-11T09:14:22Z</time>
      </trkpt>
      <trkpt lat="49.22555" lon="6.96281">
        <ele>188.5</ele>
        <time>2014-06-11T09:14:27Z</time>
      </trkpt>
      <trkpt lat="49.22554" lon="6.96281">
        <ele>189.6</ele>
        <time>2014-06-11T09:14:32Z</time>
      </trkpt>
      <trkpt lat="49.2255" lon="6.96278">
        <ele>191.1</ele>
        <time>2014-06-11T09:14:37Z</time>
      </trkpt>
      <trkpt lat="49.22547" lon="6.96276">
        <ele>191.6</ele>
        <time>2014-06-11T09:14:42Z</time>
      </trkpt>
      <trkpt lat="49.22543" lon="6.96273">
        <ele>193</ele>
        <time>2014-06-11T09:14:47Z</time>
      </trkpt>
      <trkpt lat="49.22536" lon="6.96266">
        <ele>193.5</ele>
        <time>2014-06-11T09:14:57Z</time>
      </trkpt>
      <trkpt lat="49.22532" lon="6.96263">
        <ele>194.4</ele>
        <time>2014-06-11T09:15:02Z</time>
      </trkpt>
      <trkpt lat="49.22528" lon="6.9626">
        <ele>194.6</ele>
        <time>2014-06-11T09:15:07Z</time>
      </trkpt>
      <trkpt lat="49.22522" lon="6.96257">
        <ele>195.2</ele>
        <time>2014-06-11T09:15:12Z</time>
      </trkpt>
      <trkpt lat="49.22517" lon="6.96252">
        <ele>195.5</ele>
        <time>2014-06-11T09:15:17Z</time>
      </trkpt>
      <trkpt lat="49.22512" lon="6.96248">
        <ele>196</ele>
        <time>2014-06-11T09:15:22Z</time>
      </trkpt>
      <trkpt lat="49.22507" lon="6.96243">
        <ele>196.3</ele>
        <time>2014-06-11T09:15:27Z</time>
      </trkpt>
      <trkpt lat="49.22503" lon="6.96239">
        <ele>195.9</ele>
        <time>2014-06-11T09:15:32Z</time>
      </trkpt>
      <trkpt lat="49.22497" lon="6.96235">
        <ele>195.9</ele>
        <time>2014-06-11T09:15:37Z</time>
      </trkpt>
      <trkpt lat="49.22492" lon="6.96231">
        <ele>195.8</ele>
        <time>2014-06-11T09:15:42Z</time>
      </trkpt>
      <trkpt lat="49.22485" lon="6.96227">
        <ele>195.9</ele>
        <time>2014-06-11T09:15:47Z</time>
      </trkpt>
      <trkpt lat="49.2248" lon="6.96224">
        <ele>196.7</ele>
        <time>2014-06-11T09:15:52Z</time>
      </trkpt>
      <trkpt lat="49.22471" lon="6.96219">
        <ele>196.9</ele>
        <time>2014-06-11T09:16:02Z</time>
      </trkpt>
      <trkpt lat="49.22467" lon="6.96216">
        <ele>196.4</ele>
        <time>2014-06-11T09:16:07Z</time>
      </trkpt>
      <trkpt lat="49.22463" lon="6.96213">
        <ele>196.8</ele>
        <time>2014-06-11T09:16:12Z</time>
      </trkpt>
      <trkpt lat="49.22458" lon="6.96209">
        <ele>196.6</ele>
        <time>2014-06-11T09:16:17Z</time>
      </trkpt>
      <trkpt lat="49.22452" lon="6.96205">
        <ele>197.1</ele>
        <time>2014-06-11T09:16:22Z</time>
      </trkpt>
      <trkpt lat="49.22446" lon="6.96202">
        <ele>196.4</ele>
        <time>2014-06-11T09:16:27Z</time>
      </trkpt>
      <trkpt lat="49.2244" lon="6.962">
        <ele>195.8</ele>
        <time>2014-06-11T09:16:32Z</time>
      </trkpt>
      <trkpt lat="49.22433" lon="6.962">
        <ele>196.4</ele>
        <time>2014-06-11T09:16:37Z</time>
      </trkpt>
      <trkpt lat="49.22427" lon="6.96201">
        <ele>197.4</ele>
        <time>2014-06-11T09:16:42Z</time>
      </trkpt>
      <trkpt lat="49.2242" lon="6.96203">
        <ele>197.2</ele>
        <time>2014-06-11T09:16:47Z</time>
      </trkpt>
      <trkpt lat="49.22414" lon="6.96204">
        <ele>197.7</ele>
        <time>2014-06-11T09:16:52Z</time>
      </trkpt>
      <trkpt lat="49.22407" lon="6.96202">
        <ele>197.5</ele>
        <time>2014-06-11T09:16:57Z</time>
      </trkpt>
      <trkpt lat="49.22396" lon="6.96196">
        <ele>198.7</ele>
        <time>2014-06-11T09:17:07Z</time>
      </trkpt>
      <trkpt lat="49.22391" lon="6.96194">
        <ele>199.8</ele>
        <time>2014-06-11T09:17:12Z</time>
      </trkpt>
      <trkpt lat="49.22387" lon="6.96192">
        <ele>200.1</ele>
        <time>2014-06-11T09:17:17Z</time>
      </trkpt>
      <trkpt lat="49.22382" lon="6.96188">
        <ele>200.6</ele>
        <time>2014-06-11T09:17:22Z</time>
      </trkpt>
      <trkpt lat="49.22377" lon="6.96184">
        <ele>201</ele>
        <time>2014-06-11T09:17:27Z</time>
      </trkpt>
      <trkpt lat="49.22372" lon="6.96181">
        <ele>200.8</ele>
        <time>2014-06-11T09:17:32Z</time>
      </trkpt>
      <trkpt lat="49.22367" lon="6.96177">
        <ele>200.9</ele>
        <time>2014-06-11T09:17:37Z</time>
      </trkpt>
      <trkpt lat="49.22363" lon="6.96172">
        <ele>201</ele>
        <time>2014-06-11T09:17:42Z</time>
      </trkpt>
      <trkpt lat="49.22358" lon="6.96166">
        <ele>201.4</ele>
        <time>2014-06-11T09:17:47Z</time>
      </trkpt>
      <trkpt lat="49.22353" lon="6.9616">
        <ele>202.2</ele>
        <time>2014-06-11T09:17:52Z</time>
      </trkpt>
      <trkpt lat="49.22349" lon="6.96154">
        <ele>201.3</ele>
        <time>2014-06-11T09:17:57Z</time>
      </trkpt>
      <trkpt lat="49.22346" lon="6.96147">
        <ele>201.9</ele>
        <time>2014-06-11T09:18:02Z</time>
      </trkpt>
      <trkpt lat="49.22336" lon="6.96135">
        <ele>202.5</ele>
        <time>2014-06-11T09:18:12Z</time>
      </trkpt>
      <trkpt lat="49.22332" lon="6.96129">
        <ele>202.6</ele>
        <time>2014-06-11T09:18:17Z</time>
      </trkpt>
      <trkpt lat="49.22327" lon="6.96124">
        <ele>203.1</ele>
        <time>2014-06-11T09:18:22Z</time>
      </trkpt>
      <trkpt lat="49.22324" lon="6.96117">
        <ele>202.9</ele>
        <time>2014-06-11T09:18:27Z</time>
      </trkpt>
      <trkpt lat="49.22319" lon="6.96109">
        <ele>203.4</ele>
        <time>2014-06-11T09:18:32Z</time>
      </trkpt>
      <trkpt lat="49.22313" lon="6.96102">
        <ele>203</ele>
        <time>2014-06-11T09:18:37Z</time>
      </trkpt>
      <trkpt lat="49.22308" lon="6.96096">
        <ele>202.9</ele>
        <time>2014-06-11T09:18:42Z</time>
      </trkpt>
      <trkpt lat="49.22304" lon="6.96091">
        <ele>202.7</ele>
        <time>2014-06-11T09:18:47Z</time>
      </trkpt>
      <trkpt lat="49.223" lon="6.96086">
        <ele>203.3</ele>
        <time>2014-06-11T09:18:52Z</time>
      </trkpt>
      <trkpt lat="49.22295" lon="6.96081">
        <ele>203</ele>
        <time>2014-06-11T09:18:57Z</time>
      </trkpt>
      <trkpt lat="49.2229" lon="6.96075">
        <ele>202.8</ele>
        <time>2014-06-11T09:19:02Z</time>
      </trkpt>
      <trkpt lat="49.22285" lon="6.96072">
        <ele>202.2</ele>
        <time>2014-06-11T09:19:07Z</time>
      </trkpt>
      <trkpt lat="49.22275" lon="6.96069">
        <ele>202</ele>
        <time>2014-06-11T09:19:17Z</time>
      </trkpt>
      <trkpt lat="49.22271" lon="6.9607">
        <ele>202.1</ele>
        <time>2014-06-11T09:19:22Z</time>
      </trkpt>
      <trkpt lat="49.22265" lon="6.96072">
        <ele>201.6</ele>
        <time>2014-06-11T09:19:27Z</time>
      </trkpt>
      <trkpt lat="49.2226" lon="6.96072">
        <ele>201.8</ele>
        <time>2014-06-11T09:19:32Z</time>
      </trkpt>
      <trkpt lat="49.22254" lon="6.96073">
        <ele>202.7</ele>
        <time>2014-06-11T09:19:37Z</time>
      </trkpt>
      <trkpt lat="49.22251" lon="6.96071">
        <ele>202.1</ele>
        <time>2014-06-11T09:19:42Z</time>
      </trkpt>
      <trkpt lat="49.22247" lon="6.96067">
        <ele>202.8</ele>
        <time>2014-06-11T09:19:47Z</time>
      </trkpt>
      <trkpt lat="49.22239" lon="6.96061">
        <ele>202.2</ele>
        <time>2014-06-11T09:19:52Z</time>
      </trkpt>
      <trkpt lat="49.22233" lon="6.96055">
        <ele>202.6</ele>
        <time>2014-06-11T09:19:57Z</time>
      </trkpt>
      <trkpt lat="49.22227" lon="6.96049">
        <ele>203.3</ele>
        <time>2014-06-11T09:20:02Z</time>
      </trkpt>
      <trkpt lat="49.22222" lon="6.96044">
        <ele>204</ele>
        <time>2014-06-11T09:20:07Z</time>
      </trkpt>
      <trkpt lat="49.22217" lon="6.96039">
        <ele>204.7</ele>
        <time>2014-06-11T09:20:12Z</time>
      </trkpt>
      <trkpt lat="49.22207" lon="6.96029">
        <ele>204.7</ele>
        <time>2014-06-11T09:20:22Z</time>
      </trkpt>
      <trkpt lat="49.22203" lon="6.96025">
        <ele>204.9</ele>
        <time>2014-06-11T09:20:27Z</time>
      </trkpt>
      <trkpt lat="49.22199" lon="6.96021">
        <ele>204</ele>
        <time>2014-06-11T09:20:32Z</time>
      </trkpt>
      <trkpt lat="49.22194" lon="6.96017">
        <ele>204.3</ele>
        <time>2014-06-11T09:20:37Z</time>
      </trkpt>
      <trkpt lat="49.22188" lon="6.96012">
        <ele>204.4</ele>
        <time>2014-06-11T09:20:42Z</time>
      </trkpt>
      <trkpt lat="49.22183" lon="6.96008">
        <ele>204.3</ele>
        <time>2014-06-11T09:20:47Z</time>
      </trkpt>
      <trkpt lat="49.22178" lon="6.96002">
        <ele>204.3</ele>
        <time>2014-06-11T09:20:52Z</time>
      </trkpt>
      <trkpt lat="49.22173" lon="6.95996">
        <ele>204.5</ele>
        <time>2014-06-11T09:20:57Z</time>
      </trkpt>
      <trkpt lat="49.22167" lon="6.95991">
        <ele>204.9</ele>
        <time>2014-06-11T09:21:02Z</time>
      </trkpt>
      <trkpt lat="49.22163" lon="6.95985">
        <ele>205.5</ele>
        <time>2014-06-11T09:21:07Z</time>
      </trkpt>
      <trkpt lat="49.22158" lon="6.95979">
        <ele>205</ele>
        <time>2014-06-11T09:21:12Z</time>
      </trkpt>
      <trkpt lat="49.22152" lon="6.95974">
        <ele>205.9</ele>
        <time>2014-06-11T09:21:17Z</time>
      </trkpt>
      <trkpt lat="49.22142" lon="6.95963">
        <ele>205.6</ele>
        <time>2014-06-11T09:21:27Z</time>
      </trkpt>
      <trkpt lat="49.22138" lon="6.95959">
        <ele>206.5</ele>
        <time>2014-06-11T09:21:32Z</time>
      </trkpt>
      <trkpt lat="49.22133" lon="6.95956">
        <ele>206.8</ele>
        <time>2014-06-11T09:21:37Z</time>
      </trkpt>
      <trkpt lat="49.22129" lon="6.95953">
        <ele>207.3</ele>
        <time>2014-06-11T09:21:42Z</time>
      </trkpt>
      <trkpt lat="49.22125" lon="6.95949">
        <ele>207.1</ele>
        <time>2014-06-11T09:21:47Z</time>
      </trkpt>
      <trkpt lat="49.2212" lon="6.95945">
        <ele>207.7</ele>
        <time>2014-06-11T09:21:52Z</time>
      </trkpt>
      <trkpt lat="49.22115" lon="6.95941">
        <ele>208</ele>
        <time>2014-06-11T09:21:57Z</time>
      </trkpt>
      <trkpt lat="49.22109" lon="6.95937">
        <ele>208.9</ele>
        <time>2014-06-11T09:22:02Z</time>
      </trkpt>
      <trkpt lat="49.22103" lon="6.95934">
        <ele>209.1</ele>
        <time>2014-06-11T09:22:07Z</time>
      </trkpt>
      <trkpt lat="49.22097" lon="6.95929">
        <ele>209.4</ele>
        <time>2014-06-11T09:22:12Z</time>
      </trkpt>
      <trkpt lat="49.22091" lon="6.95925">
        <ele>208.8</ele>
        <time>2014-06-11T09:22:17Z</time>
      </trkpt>
      <trkpt lat="49.22085" lon="6.95921">
        <ele>209.2</ele>
        <time>2014-06-11T09:22:22Z</time>
      </trkpt>
      <trkpt lat="49.22073" lon="6.95911">
        <ele>209.7</ele>
        <time>2014-06-11T09:22:32Z</time>
      </trkpt>
      <trkpt lat="49.22067" lon="6.95906">
        <ele>209</ele>
        <time>2014-06-11T09:22:37Z</time>
      </trkpt>
      <trkpt lat="49.22061" lon="6.959">
        <ele>209.3</ele>
        <time>2014-06-11T09:22:42Z</time>
      </trkpt>
      <trkpt lat="49.22056" lon="6.95894">
        <ele>209.5</ele>
        <time>2014-06-11T09:22:47Z</time>
      </trkpt>
      <trkpt lat="49.22051" lon="6.95889">
        <ele>208.5</ele>
        <time>2014-06-11T09:22:52Z</time>
      </trkpt>
      <trkpt lat="49.22047" lon="6.95884">
        <ele>208.3</ele>
        <time>2014-06-11T09:22:57Z</time>
      </trkpt>
      <trkpt lat="49.22042" lon="6.95878">
        <ele>208.5</ele>
        <time>2014-06-11T09:23:02Z</time>
      </trkpt>
      <trkpt lat="49.22039" lon="6.95873">
        <ele>208.1</ele>
        <time>2014-06-11T09:23:07Z</time>
      </trkpt>
      <trkpt lat="49.22035" lon="6.95867">
        <ele>207.6</ele>
        <time>2014-06-11T09:23:12Z</time>
      </trkpt>
      <trkpt lat="49.2203" lon="6.9586">
        <ele>207.4</ele>
        <time>2014-06-11T09:23:17Z</time>
      </trkpt>
      <trkpt lat="49.22027" lon="6.95855">
        <ele>206.2</ele>
        <time>2014-06-11T09:23:22Z</time>
      </trkpt>
      <trkpt lat="49.22022" lon="6.95849">
        <ele>205.2</ele>
        <time>2014-06-11T09:23:27Z</time>
      </trkpt>
      <trkpt lat="49.22014" lon="6.95839">
        <ele>203.9</ele>
        <time>2014-06-11T09:23:37Z</time>
      </trkpt>
      <trkpt lat="49.22008" lon="6.95835">
        <ele>203.6</ele>
        <time>2014-06-11T09:23:42Z</time>
      </trkpt>
      <trkpt lat="49.22003" lon="6.95834">
        <ele>203.2</ele>
        <time>2014-06-11T09:23:47Z</time>
      </trkpt>
      <trkpt lat="49.21998" lon="6.95834">
        <ele>203.2</ele>
        <time>2014-06-11T09:23:52Z</time>
      </trkpt>
      <trkpt lat="49.21992" lon="6.95835">
        <ele>202.7</ele>
        <time>2014-06-11T09:23:57Z</time>
      </trkpt>
      <trkpt lat="49.21987" lon="6.95835">
        <ele>202.6</ele>
        <time>2014-06-11T09:24:02Z</time>
      </trkpt>
      <trkpt lat="49.2198" lon="6.95834">
        <ele>201.9</ele>
        <time>2014-06-11T09:24:07Z</time>
      </trkpt>
      <trkpt lat="49.21976" lon="6.95833">
        <ele>201.6</ele>
        <time>2014-06-11T09:24:12Z</time>
      </trkpt>
      <trkpt lat="49.21971" lon="6.9583">
        <ele>200.7</ele>
        <time>2014-06-11T09:24:17Z</time>
      </trkpt>
      <trkpt lat="49.21964" lon="6.95827">
        <ele>200</ele>
        <time>2014-06-11T09:24:22Z</time>
      </trkpt>
      <trkpt lat="49.21959" lon="6.95825">
        <ele>200.8</ele>
        <time>2014-06-11T09:24:27Z</time>
      </trkpt>
      <trkpt lat="49.21953" lon="6.95822">
        <ele>200.8</ele>
        <time>2014-06-11T09:24:32Z</time>
      </trkpt>
      <trkpt lat="49.21941" lon="6.95812">
        <ele>200.1</ele>
        <time>2014-06-11T09:24:42Z</time>
      </trkpt>
      <trkpt lat="49.21936" lon="6.95803">
        <ele>200.3</ele>
        <time>2014-06-11T09:24:47Z</time>
      </trkpt>
      <trkpt lat="49.21933" lon="6.95795">
        <ele>200.5</ele>
        <time>2014-06-11T09:24:52Z</time>
      </trkpt>
      <trkpt lat="49.2193" lon="6.95785">
        <ele>199.7</ele>
        <time>2014-06-11T09:24:57Z</time>
      </trkpt>
      <trkpt lat="49.21928" lon="6.95775">
        <ele>201.1</ele>
        <time>2014-06-11T09:25:02Z</time>
      </trkpt>
      <trkpt lat="49.21927" lon="6.95764">
        <ele>200.4</ele>
        <time>2014-06-11T09:25:07Z</time>
      </trkpt>
      <trkpt lat="49.21927" lon="6.95754">
        <ele>199.8</ele>
        <time>2014-06-11T09:25:12Z</time>
      </trkpt>
      <trkpt lat="49.21926" lon="6.95745">
        <ele>201</ele>
        <time>2014-06-11T09:25:17Z</time>
      </trkpt>
      <trkpt lat="49.21926" lon="6.95736">
        <ele>201.1</ele>
        <time>2014-06-11T09:25:22Z</time>
      </trkpt>
      <trkpt lat="49.21925" lon="6.95728">
        <ele>200.2</ele>
        <time>2014-06-11T09:25:27Z</time>
      </trkpt>
      <trkpt lat="49.21926" lon="6.95719">
        <ele>201</ele>
        <time>2014-06-11T09:25:32Z</time>
      </trkpt>
      <trkpt lat="49.21926" lon="6.95709">
        <ele>200.6</ele>
        <time>2014-06-11T09:25:37Z</time>
      </trkpt>
      <trkpt lat="49.21927" lon="6.95693">
        <ele>200.8</ele>
        <time>2014-06-11T09:25:47Z</time>
      </trkpt>
      <trkpt lat="49.21928" lon="6.95685">
        <ele>200.4</ele>
        <time>2014-06-11T09:25:52Z</time>
      </trkpt>
      <trkpt lat="49.21929" lon="6.95678">
        <ele>200</ele>
        <time>2014-06-11T09:25:57Z</time>
      </trkpt>
      <trkpt lat="49.21928" lon="6.95669">
        <ele>200.3</ele>
        <time>2014-06-11T09:26:02Z</time>
      </trkpt>
      <trkpt lat="49.21928" lon="6.95661">
        <ele>200.5</ele>
        <time>2014-06-11T09:26:07Z</time>
      </trkpt>
      <trkpt lat="49.21926" lon="6.95654">
        <ele>200.1</ele>
        <time>2014-06-11T09:26:12Z</time>
      </trkpt>
      <trkpt lat="49.21923" lon="6.95647">
        <ele>200.8</ele>
        <time>2014-06-11T09:26:17Z</time>
      </trkpt>
      <trkpt lat="49.21919" lon="6.95642">
        <ele>200.8</ele>
        <time>2014-06-11T09:26:22Z</time>
      </trkpt>
      <trkpt lat="49.21915" lon="6.95634">
        <ele>201.1</ele>
        <time>2014-06-11T09:26:27Z</time>
      </trkpt>
      <trkpt lat="49.2191" lon="6.95629">
        <ele>201.2</ele>
        <time>2014-06-11T09:26:32Z</time>
      </trkpt>
      <trkpt lat="49.21906" lon="6.95623">
        <ele>201.7</ele>
        <time>2014-06-11T09:26:37Z</time>
      </trkpt>
      <trkpt lat="49.21901" lon="6.95617">
        <ele>201.3</ele>
        <time>2014-06-11T09:26:42Z</time>
      </trkpt>
      <trkpt lat="49.21891" lon="6.95606">
        <ele>202.3</ele>
        <time>2014-06-11T09:26:52Z</time>
      </trkpt>
      <trkpt lat="49.21888" lon="6.956">
        <ele>202.2</ele>
        <time>2014-06-11T09:26:57Z</time>
      </trkpt>
      <trkpt lat="49.21884" lon="6.95596">
        <ele>201.9</ele>
        <time>2014-06-11T09:27:02Z</time>
      </trkpt>
      <trkpt lat="49.21879" lon="6.95591">
        <ele>201.6</ele>
        <time>2014-06-11T09:27:07Z</time>
      </trkpt>
      <trkpt lat="49.21873" lon="6.95585">
        <ele>201.8</ele>
        <time>2014-06-11T09:27:12Z</time>
      </trkpt>
      <trkpt lat="49.21867" lon="6.95578">
        <ele>201.9</ele>
        <time>2014-06-11T09:27:17Z</time>
      </trkpt>
      <trkpt lat="49.21863" lon="6.95569">
        <ele>201.7</ele>
        <time>2014-06-11T09:27:22Z</time>
      </trkpt>
      <trkpt lat="49.21859" lon="6.95561">
        <ele>202.2</ele>
        <time>2014-06-11T09:27:27Z</time>
      </trkpt>
      <trkpt lat="49.21857" lon="6.95553">
        <ele>202</ele>
        <time>2014-06-11T09:27:32Z</time>
      </trkpt>
      <trkpt lat="49.21852" lon="6.95546">
        <ele>201.3</ele>
        <time>2014-06-11T09:27:37Z</time>
      </trkpt>
      <trkpt lat="49.21848" lon="6.9554">
        <ele>201.5</ele>
        <time>2014-06-11T09:27:42Z</time>
      </trkpt>
      <trkpt lat="49.21843" lon="6.95533">
        <ele>202.1</ele>
        <time>2014-06-11T09:27:47Z</time>
      </trkpt>
      <trkpt lat="49.21832" lon="6.95518">
        <ele>202.5</ele>
        <time>2014-06-11T09:27:57Z</time>
      </trkpt>
      <trkpt lat="49.21828" lon="6.9551">
        <ele>204.4</ele>
        <time>2014-06-11T09:28:02Z</time>
      </trkpt>
      <trkpt lat="49.21825" lon="6.95501">
        <ele>204.1</ele>
        <time>2014-06-11T09:28:07Z</time>
      </trkpt>
      <trkpt lat="49.21824" lon="6.95493">
        <ele>205</ele>
        <time>2014-06-11T09:28:12Z</time>
      </trkpt>
      <trkpt lat="49.21823" lon="6.95487">
        <ele>205.4</ele>
        <time>2014-06-11T09:28:17Z</time>
      </trkpt>
      <trkpt lat="49.21822" lon="6.95484">
        <ele>205.8</ele>
        <time>2014-06-11T09:28:22Z</time>
      </trkpt>
      <trkpt lat="49.21822" lon="6.95485">
        <ele>206.4</ele>
        <time>2014-06-11T09:28:27Z</time>
      </trkpt>
      <trkpt lat="49.21821" lon="6.95488">
        <ele>206</ele>
        <time>2014-06-11T09:28:32Z</time>
      </trkpt>
      <trkpt lat="49.21819" lon="6.95492">
        <ele>206.6</ele>
        <time>2014-06-11T09:28:37Z</time>
      </trkpt>
      <trkpt lat="49.21818" lon="6.95498">
        <ele>206.2</ele>
        <time>2014-06-11T09:28:42Z</time>
      </trkpt>
      <trkpt lat="49.21815" lon="6.95503">
        <ele>206.3</ele>
        <time>2014-06-11T09:28:47Z</time>
      </trkpt>
      <trkpt lat="49.21811" lon="6.95508">
        <ele>206.2</ele>
        <time>2014-06-11T09:28:52Z</time>
      </trkpt>
      <trkpt lat="49.21802" lon="6.9552">
        <ele>205.8</ele>
        <time>2014-06-11T09:29:02Z</time>
      </trkpt>
      <trkpt lat="49.21797" lon="6.95523">
        <ele>206.5</ele>
        <time>2014-06-11T09:29:07Z</time>
      </trkpt>
      <trkpt lat="49.21793" lon="6.95528">
        <ele>205.5</ele>
        <time>2014-06-11T09:29:12Z</time>
      </trkpt>
      <trkpt lat="49.21789" lon="6.95532">
        <ele>206.6</ele>
        <time>2014-06-11T09:29:17Z</time>
      </trkpt>
      <trkpt lat="49.21782" lon="6.95533">
        <ele>206.2</ele>
        <time>2014-06-11T09:29:22Z</time>
      </trkpt>
      <trkpt lat="49.21777" lon="6.95533">
        <ele>205.5</ele>
        <time>2014-06-11T09:29:27Z</time>
      </trkpt>
      <trkpt lat="49.21771" lon="6.95532">
        <ele>206.4</ele>
        <time>2014-06-11T09:29:32Z</time>
      </trkpt>
      <trkpt lat="49.21765" lon="6.9553">
        <ele>206.6</ele>
        <time>2014-06-11T09:29:37Z</time>
      </trkpt>
      <trkpt lat="49.2176" lon="6.95529">
        <ele>206.1</ele>
        <time>2014-06-11T09:29:42Z</time>
      </trkpt>
      <trkpt lat="49.21754" lon="6.95526">
        <ele>205.9</ele>
        <time>2014-06-11T09:29:47Z</time>
      </trkpt>
      <trkpt lat="49.21749" lon="6.95523">
        <ele>207</ele>
        <time>2014-06-11T09:29:52Z</time>
      </trkpt>
      <trkpt lat="49.21745" lon="6.95519">
        <ele>207.3</ele>
        <time>2014-06-11T09:29:57Z</time>
      </trkpt>
      <trkpt lat="49.21736" lon="6.95515">
        <ele>207.2</ele>
        <time>2014-06-11T09:30:07Z</time>
      </trkpt>
      <trkpt lat="49.2173" lon="6.95512">
        <ele>206.6</ele>
        <time>2014-06-11T09:30:12Z</time>
      </trkpt>
      <trkpt lat="49.21724" lon="6.95508">
        <ele>206.3</ele>
        <time>2014-06-11T09:30:17Z</time>
      </trkpt>
      <trkpt lat="49.21718" lon="6.95503">
        <ele>207.5</ele>
        <time>2014-06-11T09:30:22Z</time>
      </trkpt>
      <trkpt lat="49.21713" lon="6.95498">
        <ele>207.6</ele>
        <time>2014-06-11T09:30:27Z</time>
      </trkpt>
      <trkpt lat="49.21708" lon="6.95491">
        <ele>207.5</ele>
        <time>2014-06-11T09:30:32Z</time>
      </trkpt>
      <trkpt lat="49.21702" lon="6.95483">
        <ele>207.4</ele>
        <time>2014-06-11T09:30:37Z</time>
      </trkpt>
      <trkpt lat="49.21698" lon="6.95474">
        <ele>208.3</ele>
        <time>2014-06-11T09:30:42Z</time>
      </trkpt>
      <trkpt lat="49.21696" lon="6.95466">
        <ele>208.5</ele>
        <time>2014-06-11T09:30:47Z</time>
      </trkpt>
      <trkpt lat="49.21695" lon="6.95457">
        <ele>208.2</ele>
        <time>2014-06-11T09:30:52Z</time>
      </trkpt>
      <trkpt lat="49.21695" lon="6.95447">
        <ele>209.1</ele>
        <time>2014-06-11T09:30:57Z</time>
      </trkpt>
      <trkpt lat="49.21696" lon="6.95437">
        <ele>209.3</ele>
        <time>2014-06-11T09:31:02Z</time>
      </trkpt>
      <trkpt lat="49.21699" lon="6.95417">
        <ele>209.7</ele>
        <time>2014-06-11T09:31:12Z</time>
      </trkpt>
      <trkpt lat="49.21698" lon="6.9541">
        <ele>210.2</ele>
        <time>2014-06-11T09:31:17Z</time>
      </trkpt>
      <trkpt lat="49.21693" lon="6.95407">
        <ele>210.7</ele>
        <time>2014-06-11T09:31:22Z</time>
      </trkpt>
      <trkpt lat="49.21687" lon="6.95406">
        <ele>210.5</ele>
        <time>2014-06-11T09:31:27Z</time>
      </trkpt>
      <trkpt lat="49.21684" lon="6.95406">
        <ele>211.3</ele>
        <time>2014-06-11T09:31:32Z</time>
      </trkpt>
      <trkpt lat="49.21678" lon="6.95407">
        <ele>211.6</ele>
        <time>2014-06-11T09:31:37Z</time>
      </trkpt>
      <trkpt lat="49.21673" lon="6.95408">
        <ele>211.9</ele>
        <time>2014-06-11T09:31:42Z</time>
      </trkpt>
      <trkpt lat="49.21667" lon="6.95409">
        <ele>211.2</ele>
        <time>2014-06-11T09:31:47Z</time>
      </trkpt>
      <trkpt lat="49.2166" lon="6.9541">
        <ele>211.2</ele>
        <time>2014-06-11T09:31:52Z</time>
      </trkpt>
      <trkpt lat="49.21653" lon="6.95414">
        <ele>212</ele>
        <time>2014-06-11T09:31:57Z</time>
      </trkpt>
      <trkpt lat="49.21646" lon="6.95417">
        <ele>211.7</ele>
        <time>2014-06-11T09:32:02Z</time>
      </trkpt>
      <trkpt lat="49.21641" lon="6.9542">
        <ele>212.3</ele>
        <time>2014-06-11T09:32:07Z</time>
      </trkpt>
      <trkpt lat="49.21631" lon="6.95428">
        <ele>211</ele>
        <time>2014-06-11T09:32:17Z</time>
      </trkpt>
      <trkpt lat="49.21626" lon="6.95436">
        <ele>212.1</ele>
        <time>2014-06-11T09:32:22Z</time>
      </trkpt>
      <trkpt lat="49.21622" lon="6.95443">
        <ele>212.1</ele>
        <time>2014-06-11T09:32:27Z</time>
      </trkpt>
      <trkpt lat="49.21617" lon="6.95446">
        <ele>211.8</ele>
        <time>2014-06-11T09:32:32Z</time>
      </trkpt>
      <trkpt lat="49.21612" lon="6.95449">
        <ele>212</ele>
        <time>2014-06-11T09:32:37Z</time>
      </trkpt>
      <trkpt lat="49.21607" lon="6.9545">
        <ele>212.3</ele>
        <time>2014-06-11T09:32:42Z</time>
      </trkpt>
      <trkpt lat="49.21601" lon="6.95451">
        <ele>212.5</ele>
        <time>2014-06-11T09:32:47Z</time>
      </trkpt>
      <trkpt lat="49.21594" lon="6.95451">
        <ele>211.9</ele>
        <time>2014-06-11T09:32:52Z</time>
      </trkpt>
      <trkpt lat="49.21585" lon="6.95451">
        <ele>213.4</ele>
        <time>2014-06-11T09:32:57Z</time>
      </trkpt>
      <trkpt lat="49.21578" lon="6.95451">
        <ele>212.8</ele>
        <time>2014-06-11T09:33:02Z</time>
      </trkpt>
      <trkpt lat="49.21572" lon="6.95454">
        <ele>214.6</ele>
        <time>2014-06-11T09:33:07Z</time>
      </trkpt>
      <trkpt lat="49.21565" lon="6.95457">
        <ele>215.5</ele>
        <time>2014-06-11T09:33:12Z</time>
      </trkpt>
      <trkpt lat="49.21553" lon="6.95466">
        <ele>216.4</ele>
        <time>2014-06-11T09:33:22Z</time>
      </trkpt>
      <trkpt lat="49.21546" lon="6.95472">
        <ele>216.3</ele>
        <time>2014-06-11T09:33:27Z</time>
      </trkpt>
      <trkpt lat="49.2154" lon="6.95473">
        <ele>217.1</ele>
        <time>2014-06-11T09:33:32Z</time>
      </trkpt>
      <trkpt lat="49.21534" lon="6.95474">
        <ele>217.2</ele>
        <time>2014-06-11T09:33:37Z</time>
      </trkpt>
      <trkpt lat="49.21528" lon="6.95476">
        <ele>217.8</ele>
        <time>2014-06-11T09:33:42Z</time>
      </trkpt>
      <trkpt lat="49.21522" lon="6.95476">
        <ele>217.7</ele>
        <time>2014-06-11T09:33:47Z</time>
      </trkpt>
      <trkpt lat="49.21516" lon="6.95477">
        <ele>217.9</ele>
        <time>2014-06-11T09:33:52Z</time>
      </trkpt>
      <trkpt lat="49.2151" lon="6.95479">
        <ele>217.4</ele>
        <time>2014-06-11T09:33:57Z</time>
      </trkpt>
      <trkpt lat="49.21504" lon="6.9548">
        <ele>218.1</ele>
        <time>2014-06-11T09:34:02Z</time>
      </trkpt>
      <trkpt lat="49.21498" lon="6.95482">
        <ele>217.8</ele>
        <time>2014-06-11T09:34:07Z</time>
      </trkpt>
      <trkpt lat="49.21491" lon="6.95483">
        <ele>217.7</ele>
        <time>2014-06-11T09:34:12Z</time>
      </trkpt>
      <trkpt lat="49.21485" lon="6.95485">
        <ele>216.7</ele>
        <time>2014-06-11T09:34:17Z</time>
      </trkpt>
      <trkpt lat="49.21471" lon="6.95486">
        <ele>216.2</ele>
        <time>2014-06-11T09:34:27Z</time>
      </trkpt>
      <trkpt lat="49.21464" lon="6.95486">
        <ele>215.3</ele>
        <time>2014-06-11T09:34:32Z</time>
      </trkpt>
      <trkpt lat="49.21456" lon="6.95487">
        <ele>216.4</ele>
        <time>2014-06-11T09:34:37Z</time>
      </trkpt>
      <trkpt lat="49.21451" lon="6.95488">
        <ele>215.9</ele>
        <time>2014-06-11T09:34:42Z</time>
      </trkpt>
      <trkpt lat="49.21446" lon="6.95489">
        <ele>216</ele>
        <time>2014-06-11T09:34:47Z</time>
      </trkpt>
      <trkpt lat="49.2144" lon="6.95489">
        <ele>216.4</ele>
        <time>2014-06-11T09:34:52Z</time>
      </trkpt>
      <trkpt lat="49.21434" lon="6.95488">
        <ele>216.6</ele>
        <time>2014-06-11T09:34:57Z</time>
      </trkpt>
      <trkpt lat="49.21429" lon="6.95488">
        <ele>216.7</ele>
        <time>2014-06-11T09:35:02Z</time>
      </trkpt>
      <trkpt lat="49.21425" lon="6.9549">
        <ele>217.1</ele>
        <time>2014-06-11T09:35:07Z</time>
      </trkpt>
      <trkpt lat="49.2142" lon="6.95491">
        <ele>217.7</ele>
        <time>2014-06-11T09:35:12Z</time>
      </trkpt>
      <trkpt lat="49.21414" lon="6.95491">
        <ele>218</ele>
        <time>2014-06-11T09:35:17Z</time>
      </trkpt>
      <trkpt lat="49.21408" lon="6.95493">
        <ele>218.7</ele>
        <time>2014-06-11T09:35:22Z</time>
      </trkpt>
      <trkpt lat="49.21395" lon="6.95497">
        <ele>219.1</ele>
        <time>2014-06-11T09:35:32Z</time>
      </trkpt>
      <trkpt lat="49.21389" lon="6.95501">
        <ele>219.3</ele>
        <time>2014-06-11T09:35:37Z</time>
      </trkpt>
      <trkpt lat="49.21382" lon="6.95503">
        <ele>219.8</ele>
        <time>2014-06-11T09:35:42Z</time>
      </trkpt>
      <trkpt lat="49.21376" lon="6.95504">
        <ele>219.6</ele>
        <time>2014-06-11T09:35:47Z</time>
      </trkpt>
      <trkpt lat="49.21368" lon="6.95506">
        <ele>219.8</ele>
        <time>2014-06-11T09:35:52Z</time>
      </trkpt>
      <trkpt lat="49.21362" lon="6.95508">
        <ele>220.4</ele>
        <time>2014-06-11T09:35:57Z</time>
      </trkpt>
      <trkpt lat="49.21355" lon="6.9551">
        <ele>220.5</ele>
        <time>2014-06-11T09:36:02Z</time>
      </trkpt>
      <trkpt lat="49.21349" lon="6.95513">
        <ele>220.6</ele>
        <time>2014-06-11T09:36:07Z</time>
      </trkpt>
      <trkpt lat="49.21342" lon="6.95515">
        <ele>220.7</ele>
        <time>2014-06-11T09:36:12Z</time>
      </trkpt>
      <trkpt lat="49.21334" lon="6.95516">
        <ele>220.7</ele>
        <time>2014-06-11T09:36:17Z</time>
      </trkpt>
      <trkpt lat="49.2133" lon="6.9552">
        <ele>221.1</ele>
        <time>2014-06-11T09:36:22Z</time>
      </trkpt>
      <trkpt lat="49.21324" lon="6.95522">
        <ele>220.9</ele>
        <time>2014-06-11T09:36:27Z</time>
      </trkpt>
      <trkpt lat="49.21313" lon="6.95522">
        <ele>220.7</ele>
        <time>2014-06-11T09:36:37Z</time>
      </trkpt>
      <trkpt lat="49.21307" lon="6.95521">
        <ele>221.6</ele>
        <time>2014-06-11T09:36:42Z</time>
      </trkpt>
      <trkpt lat="49.21301" lon="6.95521">
        <ele>221.6</ele>
        <time>2014-06-11T09:36:47Z</time>
      </trkpt>
      <trkpt lat="49.21296" lon="6.95522">
        <ele>222.1</ele>
        <time>2014-06-11T09:36:52Z</time>
      </trkpt>
      <trkpt lat="49.21291" lon="6.95523">
        <ele>221</ele>
        <time>2014-06-11T09:36:57Z</time>
      </trkpt>
      <trkpt lat="49.21285" lon="6.95525">
        <ele>221</ele>
        <time>2014-06-11T09:37:02Z</time>
      </trkpt>
      <trkpt lat="49.21278" lon="6.95527">
        <ele>221.8</ele>
        <time>2014-06-11T09:37:07Z</time>
      </trkpt>
      <trkpt lat="49.2127" lon="6.95528">
        <ele>222.6</ele>
        <time>2014-06-11T09:37:12Z</time>
      </trkpt>
      <trkpt lat="49.21263" lon="6.95529">
        <ele>223</ele>
        <time>2014-06-11T09:37:17Z</time>
      </trkpt>
      <trkpt lat="49.21258" lon="6.9553">
        <ele>222.7</ele>
        <time>2014-06-11T09:37:22Z</time>
      </trkpt>
      <trkpt lat="49.21254" lon="6.95531">
        <ele>222.2</ele>
        <time>2014-06-11T09:37:27Z</time>
      </trkpt>
      <trkpt lat="49.21247" lon="6.9553">
        <ele>222.1</ele>
        <time>2014-06-11T09:37:32Z</time>
      </trkpt>
      <trkpt lat="49.21238" lon="6.95532">
        <ele>222.7</ele>
        <time>2014-06-11T09:37:42Z</time>
      </trkpt>
      <trkpt lat="49.21234" lon="6.95532">
        <ele>222.5</ele>
        <time>2014-06-11T09:37:47Z</time>
      </trkpt>
      <trkpt lat="49.21227" lon="6.95532">
        <ele>223</ele>
        <time>2014-06-11T09:37:52Z</time>
      </trkpt>
      <trkpt lat="49.2122" lon="6.95535">
        <ele>223.1</ele>
        <time>2014-06-11T09:37:57Z</time>
      </trkpt>
      <trkpt lat="49.21215" lon="6.95538">
        <ele>222.8</ele>
        <time>2014-06-11T09:38:02Z</time>
      </trkpt>
      <trkpt lat="49.21209" lon="6.95542">
        <ele>223.2</ele>
        <time>2014-06-11T09:38:07Z</time>
      </trkpt>
      <trkpt lat="49.21202" lon="6.95543">
        <ele>224.1</ele>
        <time>2014-06-11T09:38:12Z</time>
      </trkpt>
      <trkpt lat="49.21197" lon="6.95546">
        <ele>224.7</ele>
        <time>2014-06-11T09:38:17Z</time>
      </trkpt>
      <trkpt lat="49.21191" lon="6.95549">
        <ele>224.6</ele>
        <time>2014-06-11T09:38:22Z</time>
      </trkpt>
      <trkpt lat="49.21185" lon="6.95553">
        <ele>224.4</ele>
        <time>2014-06-11T09:38:27Z</time>
      </trkpt>
      <trkpt lat="49.21178" lon="6.95556">
        <ele>224.9</ele>
        <time>2014-06-11T09:38:32Z</time>
      </trkpt>
      <trkpt lat="49.21172" lon="6.9556">
        <ele>224.9</ele>
        <time>2014-06-11T09:38:37Z</time>
      </trkpt>
      <trkpt lat="49.2116" lon="6.95565">
        <ele>225.3</ele>
        <time>2014-06-11T09:38:47Z</time>
      </trkpt>
      <trkpt lat="49.21154" lon="6.95567">
        <ele>224.8</ele>
        <time>2014-06-11T09:38:52Z</time>
      </trkpt>
      <trkpt lat="49.21147" lon="6.9557">
        <ele>225.6</ele>
        <time>2014-06-11T09:38:57Z</time>
      </trkpt>
      <trkpt lat="49.21141" lon="6.95572">
        <ele>225.7</ele>
        <time>2014-06-11T09:39:02Z</time>
      </trkpt>
      <trkpt lat="49.21135" lon="6.95575">
        <ele>225.5</ele>
        <time>2014-06-11T09:39:07Z</time>
      </trkpt>
      <trkpt lat="49.2113" lon="6.95577">
        <ele>225.3</ele>
        <time>2014-06-11T09:39:12Z</time>
      </trkpt>
      <trkpt lat="49.21124" lon="6.95582">
        <ele>225</ele>
        <time>2014-06-11T09:39:17Z</time>
      </trkpt>
      <trkpt lat="49.21118" lon="6.95586">
        <ele>225.2</ele>
        <time>2014-06-11T09:39:22Z</time>
      </trkpt>
      <trkpt lat="49.21112" lon="6.9559">
        <ele>225.5</ele>
        <time>2014-06-11T09:39:27Z</time>
      </trkpt>
      <trkpt lat="49.21107" lon="6.95594">
        <ele>225.6</ele>
        <time>2014-06-11T09:39:32Z</time>
      </trkpt>
      <trkpt lat="49.211" lon="6.95595">
        <ele>225.9</ele>
        <time>2014-06-11T09:39:37Z</time>
      </trkpt>
      <trkpt lat="49.21095" lon="6.95599">
        <ele>225.4</ele>
        <time>2014-06-11T09:39:42Z</time>
      </trkpt>
      <trkpt lat="49.21083" lon="6.95608">
        <ele>225.9</ele>
        <time>2014-06-11T09:39:52Z</time>
      </trkpt>
      <trkpt lat="49.21077" lon="6.95612">
        <ele>226.1</ele>
        <time>2014-06-11T09:39:57Z</time>
      </trkpt>
      <trkpt lat="49.21071" lon="6.95618">
        <ele>226.5</ele>
        <time>2014-06-11T09:40:02Z</time>
      </trkpt>
      <trkpt lat="49.21066" lon="6.95623">
        <ele>227.4</ele>
        <time>2014-06-11T09:40:07Z</time>
      </trkpt>
      <trkpt lat="49.2106" lon="6.95628">
        <ele>227.2</ele>
        <time>2014-06-11T09:40:12Z</time>
      </trkpt>
      <trkpt lat="49.21055" lon="6.95636">
        <ele>227</ele>
        <time>2014-06-11T09:40:17Z</time>
      </trkpt>
      <trkpt lat="49.2105" lon="6.95642">
        <ele>227</ele>
        <time>2014-06-11T09:40:22Z</time>
      </trkpt>
      <trkpt lat="49.21046" lon="6.95649">
        <ele>226.7</ele>
        <time>2014-06-11T09:40:27Z</time>
      </trkpt>
      <trkpt lat="49.21041" lon="6.95655">
        <ele>227.1</ele>
        <time>2014-06-11T09:40:32Z</time>
      </trkpt>
      <trkpt lat="49.21036" lon="6.95661">
        <ele>227.8</ele>
        <time>2014-06-11T09:40:37Z</time>
      </trkpt>
      <trkpt lat="49.21032" lon="6.95669">
        <ele>227.6</ele>
        <time>2014-06-11T09:40:42Z</time>
      </trkpt>
      <trkpt lat="49.21027" lon="6.95676">
        <ele>227.9</ele>
        <time>2014-06-11T09:40:47Z</time>
      </trkpt>
      <trkpt lat="49.21018" lon="6.95693">
        <ele>228.2</ele>
        <time>2014-06-11T09:40:57Z</time>
      </trkpt>
      <trkpt lat="49.21013" lon="6.95699">
        <ele>228</ele>
        <time>2014-06-11T09:41:02Z</time>
      </trkpt>
      <trkpt lat="49.21009" lon="6.95705">
        <ele>228.7</ele>
        <time>2014-06-11T09:41:07Z</time>
      </trkpt>
      <trkpt lat="49.21005" lon="6.95711">
        <ele>228.2</ele>
        <time>2014-06-11T09:41:12Z</time>
      </trkpt>
      <trkpt lat="49.21001" lon="6.95718">
        <ele>228.5</ele>
        <time>2014-06-11T09:41:17Z</time>
      </trkpt>
      <trkpt lat="49.20996" lon="6.95727">
        <ele>229.3</ele>
        <time>2014-06-11T09:41:22Z</time>
      </trkpt>
      <trkpt lat="49.20992" lon="6.95736">
        <ele>229.2</ele>
        <time>2014-06-11T09:41:27Z</time>
      </trkpt>
      <trkpt lat="49.20988" lon="6.95744">
        <ele>228.7</ele>
        <time>2014-06-11T09:41:32Z</time>
      </trkpt>
      <trkpt lat="49.20984" lon="6.95753">
        <ele>229.1</ele>
        <time>2014-06-11T09:41:37Z</time>
      </trkpt>
      <trkpt lat="49.2098" lon="6.95761">
        <ele>228.7</ele>
        <time>2014-06-11T09:41:42Z</time>
      </trkpt>
      <trkpt lat="49.20976" lon="6.95768">
        <ele>229.2</ele>
        <time>2014-06-11T09:41:47Z</time>
      </trkpt>
      <trkpt lat="49.20973" lon="6.95775">
        <ele>229.6</ele>
        <time>2014-06-11T09:41:52Z</time>
      </trkpt>
      <trkpt lat="49.20966" lon="6.9579">
        <ele>230.3</ele>
        <time>2014-06-11T09:42:02Z</time>
      </trkpt>
      <trkpt lat="49.20962" lon="6.95797">
        <ele>230.7</ele>
        <time>2014-06-11T09:42:07Z</time>
      </trkpt>
      <trkpt lat="49.20958" lon="6.95804">
        <ele>230.8</ele>
        <time>2014-06-11T09:42:12Z</time>
      </trkpt>
      <trkpt lat="49.20955" lon="6.95812">
        <ele>230.7</ele>
        <time>2014-06-11T09:42:17Z</time>
      </trkpt>
      <trkpt lat="49.20951" lon="6.95821">
        <ele>231.3</ele>
        <time>2014-06-11T09:42:22Z</time>
      </trkpt>
      <trkpt lat="49.20948" lon="6.95828">
        <ele>232</ele>
        <time>2014-06-11T09:42:27Z</time>
      </trkpt>
      <trkpt lat="49.20945" lon="6.95835">
        <ele>231.5</ele>
        <time>2014-06-11T09:42:32Z</time>
      </trkpt>
      <trkpt lat="49.20942" lon="6.95843">
        <ele>231.7</ele>
        <time>2014-06-11T09:42:37Z</time>
      </trkpt>
      <trkpt lat="49.20938" lon="6.9585">
        <ele>231.5</ele>
        <time>2014-06-11T09:42:42Z</time>
      </trkpt>
      <trkpt lat="49.20931" lon="6.95876">
        <ele>231</ele>
        <time>2014-06-11T09:42:50Z</time>
      </trkpt>
      <trkpt lat="49.20921" lon="6.95897">
        <ele>231</ele>
        <time>2014-06-11T09:43:04Z</time>
      </trkpt>
      <trkpt lat="49.20917" lon="6.9591">
        <ele>232</ele>
        <time>2014-06-11T09:43:12Z</time>
      </trkpt>
      <trkpt lat="49.20912" lon="6.95922">
        <ele>232</ele>
        <time>2014-06-11T09:43:20Z</time>
      </trkpt>
      <trkpt lat="49.20901" lon="6.95932">
        <ele>232</ele>
        <time>2014-06-11T09:43:28Z</time>
      </trkpt>
      <trkpt lat="49.20893" lon="6.95942">
        <ele>232</ele>
        <time>2014-06-11T09:43:36Z</time>
      </trkpt>
      <trkpt lat="49.20887" lon="6.95953">
        <ele>232</ele>
        <time>2014-06-11T09:43:44Z</time>
      </trkpt>
      <trkpt lat="49.2088" lon="6.95963">
        <ele>231</ele>
        <time>2014-06-11T09:43:52Z</time>
      </trkpt>
      <trkpt lat="49.20873" lon="6.95975">
        <ele>232</ele>
        <time>2014-06-11T09:44:00Z</time>
      </trkpt>
      <trkpt lat="49.20863" lon="6.96">
        <ele>233</ele>
        <time>2014-06-11T09:44:16Z</time>
      </trkpt>
      <trkpt lat="49.20854" lon="6.96007">
        <ele>232</ele>
        <time>2014-06-11T09:44:24Z</time>
      </trkpt>
      <trkpt lat="49.2085" lon="6.9602">
        <ele>234</ele>
        <time>2014-06-11T09:44:32Z</time>
      </trkpt>
      <trkpt lat="49.2085" lon="6.96033">
        <ele>233.9</ele>
        <time>2014-06-11T09:44:37Z</time>
      </trkpt>
      <trkpt lat="49.20847" lon="6.96041">
        <ele>233.7</ele>
        <time>2014-06-11T09:44:42Z</time>
      </trkpt>
      <trkpt lat="49.20843" lon="6.96049">
        <ele>234.1</ele>
        <time>2014-06-11T09:44:47Z</time>
      </trkpt>
      <trkpt lat="49.2084" lon="6.96057">
        <ele>234.7</ele>
        <time>2014-06-11T09:44:52Z</time>
      </trkpt>
      <trkpt lat="49.20836" lon="6.96066">
        <ele>234.7</ele>
        <time>2014-06-11T09:44:57Z</time>
      </trkpt>
      <trkpt lat="49.20833" lon="6.96074">
        <ele>235.1</ele>
        <time>2014-06-11T09:45:02Z</time>
      </trkpt>
      <trkpt lat="49.20829" lon="6.96083">
        <ele>234.9</ele>
        <time>2014-06-11T09:45:07Z</time>
      </trkpt>
      <trkpt lat="49.20821" lon="6.96095">
        <ele>235.7</ele>
        <time>2014-06-11T09:45:17Z</time>
      </trkpt>
      <trkpt lat="49.20817" lon="6.96102">
        <ele>235.9</ele>
        <time>2014-06-11T09:45:22Z</time>
      </trkpt>
      <trkpt lat="49.20812" lon="6.9611">
        <ele>235.7</ele>
        <time>2014-06-11T09:45:27Z</time>
      </trkpt>
      <trkpt lat="49.20806" lon="6.96109">
        <ele>235.4</ele>
        <time>2014-06-11T09:45:32Z</time>
      </trkpt>
      <trkpt lat="49.20798" lon="6.96104">
        <ele>236.1</ele>
        <time>2014-06-11T09:45:37Z</time>
      </trkpt>
      <trkpt lat="49.20785" lon="6.96096">
        <ele>236</ele>
        <time>2014-06-11T09:45:42Z</time>
      </trkpt>
      <trkpt lat="49.2078" lon="6.96095">
        <ele>236.4</ele>
        <time>2014-06-11T09:45:47Z</time>
      </trkpt>
      <trkpt lat="49.20779" lon="6.96097">
        <ele>236.3</ele>
        <time>2014-06-11T09:45:52Z</time>
      </trkpt>
      <trkpt lat="49.20776" lon="6.96097">
        <ele>236.6</ele>
        <time>2014-06-11T09:45:57Z</time>
      </trkpt>
      <trkpt lat="49.20772" lon="6.96095">
        <ele>236.1</ele>
        <time>2014-06-11T09:46:02Z</time>
      </trkpt>
      <trkpt lat="49.20767" lon="6.96093">
        <ele>236.1</ele>
        <time>2014-06-11T09:46:07Z</time>
      </trkpt>
      <trkpt lat="49.20764" lon="6.96091">
        <ele>236.3</ele>
        <time>2014-06-11T09:46:12Z</time>
      </trkpt>
      <trkpt lat="49.20756" lon="6.96087">
        <ele>237</ele>
        <time>2014-06-11T09:46:22Z</time>
      </trkpt>
      <trkpt lat="49.20751" lon="6.96084">
        <ele>236.1</ele>
        <time>2014-06-11T09:46:27Z</time>
      </trkpt>
      <trkpt lat="49.20744" lon="6.96081">
        <ele>236.1</ele>
        <time>2014-06-11T09:46:32Z</time>
      </trkpt>
      <trkpt lat="49.20738" lon="6.96076">
        <ele>236.2</ele>
        <time>2014-06-11T09:46:37Z</time>
      </trkpt>
      <trkpt lat="49.20734" lon="6.96074">
        <ele>236.7</ele>
        <time>2014-06-11T09:46:42Z</time>
      </trkpt>
      <trkpt lat="49.20732" lon="6.96074">
        <ele>236.1</ele>
        <time>2014-06-11T09:46:47Z</time>
      </trkpt>
      <trkpt lat="49.20733" lon="6.96074">
        <ele>235.7</ele>
        <time>2014-06-11T09:46:52Z</time>
      </trkpt>
      <trkpt lat="49.20732" lon="6.96076">
        <ele>236.2</ele>
        <time>2014-06-11T09:46:57Z</time>
      </trkpt>
      <trkpt lat="49.20733" lon="6.96076">
        <ele>236</ele>
        <time>2014-06-11T09:47:02Z</time>
      </trkpt>
      <trkpt lat="49.20734" lon="6.96075">
        <ele>236.4</ele>
        <time>2014-06-11T09:47:07Z</time>
      </trkpt>
      <trkpt lat="49.20736" lon="6.96075">
        <ele>236.6</ele>
        <time>2014-06-11T09:47:12Z</time>
      </trkpt>
      <trkpt lat="49.20737" lon="6.96074">
        <ele>236.5</ele>
        <time>2014-06-11T09:47:17Z</time>
      </trkpt>
    </trkseg>
  </trk>
</gpx>